<?xml version='1.0' encoding='UTF-8'?><gpx version="1.1" creator="JPX - https://github.com/jenetics/jpx" xmlns="http://www.topografix.com/GPX/1/1"><trk><trkseg><trkpt lat="45.8030600488574" lon="12.168953083103103"><ele>79.4</ele><time>2026-04-02T19:50:12.841Z</time></trkpt><trkpt lat="45.80305634860785" lon="12.1691530626569"><ele>78.8</ele><time>2026-04-02T19:50:15.995Z</time></trkpt><trkpt lat="45.80314292182636" lon="12.169169803054798"><ele>78.2</ele><time>2026-04-02T19:52:18.998Z</time></trkpt><trkpt lat="45.803127737852705" lon="12.169304488312031"><ele>77.6</ele><time>2026-04-02T19:52:29Z</time></trkpt><trkpt lat="45.80315277777971" lon="12.1694067365983"><ele>77.0</ele><time>2026-04-02T19:52:31Z</time></trkpt><trkpt lat="45.80318707409587" lon="12.169512416171"><ele>77.0</ele><time>2026-04-02T19:52:33Z</time></trkpt><trkpt lat="45.803223774382495" lon="12.169619913880924"><ele>77.0</ele><time>2026-04-02T19:52:35Z</time></trkpt><trkpt lat="45.8031580111636" lon="12.169732852953347"><ele>77.0</ele><time>2026-04-02T19:52:38Z</time></trkpt><trkpt lat="45.803045791748694" lon="12.169765121388307"><ele>77.0</ele><time>2026-04-02T19:52:40Z</time></trkpt><trkpt lat="45.80295583778671" lon="12.169802858781653"><ele>77.0</ele><time>2026-04-02T19:52:42Z</time></trkpt><trkpt lat="45.80288592339347" lon="12.169840500047657"><ele>77.0</ele><time>2026-04-02T19:52:45Z</time></trkpt><trkpt lat="45.802810985415285" lon="12.169784191266764"><ele>77.0</ele><time>2026-04-02T19:52:48Z</time></trkpt><trkpt lat="45.802780829466734" lon="12.169653804784096"><ele>77.0</ele><time>2026-04-02T19:52:50Z</time></trkpt><trkpt lat="45.80275568949362" lon="12.169562621922573"><ele>77.0</ele><time>2026-04-02T19:52:52Z</time></trkpt><trkpt lat="45.802720329558376" lon="12.169472571277813"><ele>77.0</ele><time>2026-04-02T19:52:54Z</time></trkpt><trkpt lat="45.80269027799301" lon="12.169360659200576"><ele>77.0</ele><time>2026-04-02T19:52:56Z</time></trkpt><trkpt lat="45.80265542952274" lon="12.169252337931185"><ele>76.83333333333334</ele><time>2026-04-02T19:52:58Z</time></trkpt><trkpt lat="45.80261117381198" lon="12.169165972988713"><ele>76.66666666666667</ele><time>2026-04-02T19:53:00Z</time></trkpt><trkpt lat="45.8025655301245" lon="12.169061661487229"><ele>76.5</ele><time>2026-04-02T19:53:01.999Z</time></trkpt><trkpt lat="45.802506924234905" lon="12.168985766562908"><ele>76.33333333333333</ele><time>2026-04-02T19:53:03.999Z</time></trkpt><trkpt lat="45.80248162800349" lon="12.16888088561944"><ele>76.16666666666666</ele><time>2026-04-02T19:53:08.999Z</time></trkpt><trkpt lat="45.80252971871532" lon="12.168781954722766"><ele>76.0</ele><time>2026-04-02T19:53:10.999Z</time></trkpt><trkpt lat="45.80259727731193" lon="12.168661423035813"><ele>76.5</ele><time>2026-04-02T19:53:12.999Z</time></trkpt><trkpt lat="45.80263447969866" lon="12.168576824040903"><ele>77.0</ele><time>2026-04-02T19:53:13.999Z</time></trkpt><trkpt lat="45.80268654457692" lon="12.168489878043735"><ele>77.5</ele><time>2026-04-02T19:53:14.999Z</time></trkpt><trkpt lat="45.80273070979234" lon="12.168423091461417"><ele>78.0</ele><time>2026-04-02T19:53:15.999Z</time></trkpt><trkpt lat="45.802789952831915" lon="12.16834031139539"><ele>78.5</ele><time>2026-04-02T19:53:17.999Z</time></trkpt><trkpt lat="45.80281817918693" lon="12.168248075777921"><ele>79.0</ele><time>2026-04-02T19:53:20.999Z</time></trkpt><trkpt lat="45.8027255583745" lon="12.168141407328362"><ele>80.2</ele><time>2026-04-02T19:53:21.999Z</time></trkpt><trkpt lat="45.80266531619552" lon="12.168082953482118"><ele>81.4</ele><time>2026-04-02T19:53:22.999Z</time></trkpt><trkpt lat="45.80260204433671" lon="12.168010197140395"><ele>82.6</ele><time>2026-04-02T19:53:23.999Z</time></trkpt><trkpt lat="45.80253308437969" lon="12.167929980292255"><ele>83.8</ele><time>2026-04-02T19:53:24.999Z</time></trkpt><trkpt lat="45.802464282796144" lon="12.167855150216353"><ele>85.0</ele><time>2026-04-02T19:53:25.999Z</time></trkpt><trkpt lat="45.802321510159025" lon="12.167715452544442"><ele>85.0</ele><time>2026-04-02T19:53:27.999Z</time></trkpt><trkpt lat="45.80224005122007" lon="12.167638161944316"><ele>85.0</ele><time>2026-04-02T19:53:28.999Z</time></trkpt><trkpt lat="45.8021608682386" lon="12.16755905645168"><ele>85.0</ele><time>2026-04-02T19:53:29.999Z</time></trkpt><trkpt lat="45.802100238857555" lon="12.167446301922993"><ele>85.0</ele><time>2026-04-02T19:53:30.999Z</time></trkpt><trkpt lat="45.80204388865904" lon="12.167328069693006"><ele>85.0</ele><time>2026-04-02T19:53:31.999Z</time></trkpt><trkpt lat="45.801991249607596" lon="12.167205456652951"><ele>85.33333333333333</ele><time>2026-04-02T19:53:32.999Z</time></trkpt><trkpt lat="45.80194470512483" lon="12.16708502861318"><ele>85.66666666666666</ele><time>2026-04-02T19:53:33.999Z</time></trkpt><trkpt lat="45.80190462308129" lon="12.166973998329578"><ele>86.0</ele><time>2026-04-02T19:53:34.999Z</time></trkpt><trkpt lat="45.80187334061972" lon="12.166877178591783"><ele>86.33333333333333</ele><time>2026-04-02T19:53:35.999Z</time></trkpt><trkpt lat="45.801848982529386" lon="12.166793260440224"><ele>86.66666666666667</ele><time>2026-04-02T19:53:36.999Z</time></trkpt><trkpt lat="45.80180661092725" lon="12.166621448401342"><ele>87.0</ele><time>2026-04-02T19:53:38.999Z</time></trkpt><trkpt lat="45.801785162025865" lon="12.166517228335424"><ele>87.0</ele><time>2026-04-02T19:53:39.999Z</time></trkpt><trkpt lat="45.80176255031888" lon="12.16640779582223"><ele>87.0</ele><time>2026-04-02T19:53:40.999Z</time></trkpt><trkpt lat="45.80173994898836" lon="12.166291904957008"><ele>87.0</ele><time>2026-04-02T19:53:41.999Z</time></trkpt><trkpt lat="45.801717023505084" lon="12.166172777815614"><ele>87.0</ele><time>2026-04-02T19:53:42.999Z</time></trkpt><trkpt lat="45.80169444335402" lon="12.166051452721705"><ele>87.0</ele><time>2026-04-02T19:53:43.999Z</time></trkpt><trkpt lat="45.80167306694782" lon="12.165926650480573"><ele>87.0</ele><time>2026-04-02T19:53:44.999Z</time></trkpt><trkpt lat="45.801656272385614" lon="12.165797601979088"><ele>87.5</ele><time>2026-04-02T19:53:45.999Z</time></trkpt><trkpt lat="45.80165010437124" lon="12.165670806029881"><ele>88.0</ele><time>2026-04-02T19:53:46.999Z</time></trkpt><trkpt lat="45.80165777195414" lon="12.165546176822643"><ele>88.5</ele><time>2026-04-02T19:53:47.999Z</time></trkpt><trkpt lat="45.80167744988897" lon="12.165444897400821"><ele>89.0</ele><time>2026-04-02T19:53:48.999Z</time></trkpt><trkpt lat="45.80169857273686" lon="12.165349321373084"><ele>89.5</ele><time>2026-04-02T19:53:49.999Z</time></trkpt><trkpt lat="45.80171866714676" lon="12.165259503043048"><ele>90.0</ele><time>2026-04-02T19:53:50.999Z</time></trkpt><trkpt lat="45.801835017152754" lon="12.16514809786975"><ele>92.0</ele><time>2026-04-02T19:53:53.999Z</time></trkpt><trkpt lat="45.80190132562655" lon="12.165123305625542"><ele>94.0</ele><time>2026-04-02T19:53:54.999Z</time></trkpt><trkpt lat="45.80197098254403" lon="12.165097126492606"><ele>96.0</ele><time>2026-04-02T19:53:55.999Z</time></trkpt><trkpt lat="45.80204261349979" lon="12.165058971804703"><ele>98.0</ele><time>2026-04-02T19:53:56.999Z</time></trkpt><trkpt lat="45.80211395336838" lon="12.165014251058857"><ele>100.0</ele><time>2026-04-02T19:53:57.999Z</time></trkpt><trkpt lat="45.80219103349723" lon="12.164965612110784"><ele>102.0</ele><time>2026-04-02T19:53:58.999Z</time></trkpt><trkpt lat="45.802263763034695" lon="12.164895788517601"><ele>102.0</ele><time>2026-04-02T19:53:59.999Z</time></trkpt><trkpt lat="45.80234999572812" lon="12.16486533571593"><ele>102.0</ele><time>2026-04-02T19:54:00.999Z</time></trkpt><trkpt lat="45.80242166806501" lon="12.16479596619343"><ele>102.0</ele><time>2026-04-02T19:54:01.998Z</time></trkpt><trkpt lat="45.802504598587745" lon="12.164768196374075"><ele>102.0</ele><time>2026-04-02T19:54:02.998Z</time></trkpt><trkpt lat="45.80258094468153" lon="12.164720226878387"><ele>102.0</ele><time>2026-04-02T19:54:03.998Z</time></trkpt><trkpt lat="45.802654110192" lon="12.16467425588467"><ele>102.0</ele><time>2026-04-02T19:54:04.998Z</time></trkpt><trkpt lat="45.8027263957781" lon="12.164628837781088"><ele>104.66666666666667</ele><time>2026-04-02T19:54:05.998Z</time></trkpt><trkpt lat="45.80279996855875" lon="12.164582610874472"><ele>107.33333333333334</ele><time>2026-04-02T19:54:06.998Z</time></trkpt><trkpt lat="45.80287564760277" lon="12.16453506058982"><ele>110.0</ele><time>2026-04-02T19:54:07.998Z</time></trkpt><trkpt lat="45.80295392211953" lon="12.164485879451467"><ele>112.66666666666667</ele><time>2026-04-02T19:54:08.998Z</time></trkpt><trkpt lat="45.80302480063829" lon="12.164417906388254"><ele>115.33333333333334</ele><time>2026-04-02T19:54:09.998Z</time></trkpt><trkpt lat="45.80309830260612" lon="12.164373875972586"><ele>118.0</ele><time>2026-04-02T19:54:10.998Z</time></trkpt><trkpt lat="45.80316829613668" lon="12.164331077885922"><ele>118.00000000000001</ele><time>2026-04-02T19:54:11.998Z</time></trkpt><trkpt lat="45.803238188245494" lon="12.16429202826175"><ele>118.0</ele><time>2026-04-02T19:54:12.998Z</time></trkpt><trkpt lat="45.803307718265145" lon="12.164252586944226"><ele>118.0</ele><time>2026-04-02T19:54:13.998Z</time></trkpt><trkpt lat="45.80336921080944" lon="12.16422288211654"><ele>118.0</ele><time>2026-04-02T19:54:14.998Z</time></trkpt><trkpt lat="45.803465225179174" lon="12.16415527084326"><ele>118.00000000000001</ele><time>2026-04-02T19:54:16.998Z</time></trkpt><trkpt lat="45.803561466939435" lon="12.164081035930119"><ele>118.0</ele><time>2026-04-02T19:54:18.998Z</time></trkpt><trkpt lat="45.80366922113894" lon="12.164010058697885"><ele>118.83333333333334</ele><time>2026-04-02T19:54:20.998Z</time></trkpt><trkpt lat="45.80376400800506" lon="12.163960536073876"><ele>119.66666666666667</ele><time>2026-04-02T19:54:22.998Z</time></trkpt><trkpt lat="45.8038287670991" lon="12.163935201072668"><ele>120.5</ele><time>2026-04-02T19:54:32Z</time></trkpt><trkpt lat="45.80374573816416" lon="12.163986701116668"><ele>121.33333333333334</ele><time>2026-04-02T19:54:42Z</time></trkpt><trkpt lat="45.80368583282866" lon="12.163951947201266"><ele>122.16666666666667</ele><time>2026-04-02T19:54:43Z</time></trkpt><trkpt lat="45.80360437332551" lon="12.164032541389371"><ele>123.0</ele><time>2026-04-02T19:54:45Z</time></trkpt><trkpt lat="45.803513082124574" lon="12.164100839037317"><ele>122.2</ele><time>2026-04-02T19:54:47Z</time></trkpt><trkpt lat="45.80341129334346" lon="12.164163095892947"><ele>121.4</ele><time>2026-04-02T19:54:49Z</time></trkpt><trkpt lat="45.80333406052047" lon="12.16419504491638"><ele>120.60000000000001</ele><time>2026-04-02T19:54:51Z</time></trkpt><trkpt lat="45.80330215656502" lon="12.163979295455436"><ele>119.80000000000001</ele><time>2026-04-02T19:54:53Z</time></trkpt><trkpt lat="45.80326155229494" lon="12.16387199183894"><ele>119.0</ele><time>2026-04-02T19:54:55Z</time></trkpt><trkpt lat="45.80322356309242" lon="12.163747186893719"><ele>119.0</ele><time>2026-04-02T19:54:57Z</time></trkpt><trkpt lat="45.80318977071207" lon="12.163645463279204"><ele>119.0</ele><time>2026-04-02T19:54:59Z</time></trkpt><trkpt lat="45.80318683543079" lon="12.163524640548166"><ele>119.0</ele><time>2026-04-02T19:55:01Z</time></trkpt><trkpt lat="45.80322879108396" lon="12.163383078950808"><ele>119.0</ele><time>2026-04-02T19:55:03Z</time></trkpt><trkpt lat="45.80330281426448" lon="12.163370596102538"><ele>119.0</ele><time>2026-04-02T19:55:04Z</time></trkpt><trkpt lat="45.803379889861624" lon="12.16326803609535"><ele>119.2</ele><time>2026-04-02T19:55:06Z</time></trkpt><trkpt lat="45.803463091431915" lon="12.163170239975138"><ele>119.4</ele><time>2026-04-02T19:55:08Z</time></trkpt><trkpt lat="45.80356036851708" lon="12.16308443344119"><ele>119.6</ele><time>2026-04-02T19:55:10Z</time></trkpt><trkpt lat="45.80365974173046" lon="12.16301438385075"><ele>119.8</ele><time>2026-04-02T19:55:12Z</time></trkpt><trkpt lat="45.80375842464924" lon="12.162954779317122"><ele>120.0</ele><time>2026-04-02T19:55:14Z</time></trkpt><trkpt lat="45.80383600111897" lon="12.162921678100664"><ele>120.16666666666667</ele><time>2026-04-02T19:55:16Z</time></trkpt><trkpt lat="45.80388394271706" lon="12.16285568999464"><ele>120.33333333333334</ele><time>2026-04-02T19:55:18Z</time></trkpt><trkpt lat="45.80381259472759" lon="12.162881611438172"><ele>120.5</ele><time>2026-04-02T19:55:26.999Z</time></trkpt><trkpt lat="45.80372878666067" lon="12.162912551103688"><ele>120.66666666666667</ele><time>2026-04-02T19:55:30.999Z</time></trkpt><trkpt lat="45.80367703748183" lon="12.162965757610548"><ele>120.83333333333334</ele><time>2026-04-02T19:55:56.999Z</time></trkpt><trkpt lat="45.80359552665582" lon="12.163001242168951"><ele>121.0</ele><time>2026-04-02T19:56:01.999Z</time></trkpt><trkpt lat="45.803516237497945" lon="12.163080695799696"><ele>120.8</ele><time>2026-04-02T19:56:03.999Z</time></trkpt><trkpt lat="45.803425943842484" lon="12.163167769200303"><ele>120.6</ele><time>2026-04-02T19:56:05.999Z</time></trkpt><trkpt lat="45.80333386369076" lon="12.16326987923904"><ele>120.4</ele><time>2026-04-02T19:56:07.999Z</time></trkpt><trkpt lat="45.80326133514352" lon="12.16337363533924"><ele>120.2</ele><time>2026-04-02T19:56:09.999Z</time></trkpt><trkpt lat="45.80318542434245" lon="12.163487649715327"><ele>120.0</ele><time>2026-04-02T19:56:11.999Z</time></trkpt><trkpt lat="45.80314067039644" lon="12.163629941414257"><ele>119.8</ele><time>2026-04-02T19:56:13.999Z</time></trkpt><trkpt lat="45.80317175005097" lon="12.163797342195712"><ele>119.6</ele><time>2026-04-02T19:56:15.999Z</time></trkpt><trkpt lat="45.803221104533264" lon="12.163862814655367"><ele>119.4</ele><time>2026-04-02T19:56:16.999Z</time></trkpt><trkpt lat="45.80326618290447" lon="12.164010531632066"><ele>119.2</ele><time>2026-04-02T19:56:18.999Z</time></trkpt><trkpt lat="45.803323584141246" lon="12.164095610066722"><ele>119.0</ele><time>2026-04-02T19:56:20.998Z</time></trkpt><trkpt lat="45.80334782808655" lon="12.16418585813873"><ele>118.80000000000001</ele><time>2026-04-02T19:56:22.998Z</time></trkpt><trkpt lat="45.803198706936705" lon="12.164280089581723"><ele>118.60000000000001</ele><time>2026-04-02T19:56:25.998Z</time></trkpt><trkpt lat="45.80312159480854" lon="12.164328540278609"><ele>118.4</ele><time>2026-04-02T19:56:26.998Z</time></trkpt><trkpt lat="45.803042592802484" lon="12.164394199329832"><ele>118.2</ele><time>2026-04-02T19:56:27.998Z</time></trkpt><trkpt lat="45.802955052075475" lon="12.164447978938265"><ele>118.0</ele><time>2026-04-02T19:56:28.998Z</time></trkpt><trkpt lat="45.80287110646023" lon="12.164494534701705"><ele>118.00000000000001</ele><time>2026-04-02T19:56:29.998Z</time></trkpt><trkpt lat="45.80279058974773" lon="12.164543422658008"><ele>118.0</ele><time>2026-04-02T19:56:30.998Z</time></trkpt><trkpt lat="45.802709939956486" lon="12.164590018674204"><ele>118.0</ele><time>2026-04-02T19:56:31.998Z</time></trkpt><trkpt lat="45.80263040560513" lon="12.164639534795896"><ele>118.0</ele><time>2026-04-02T19:56:32.998Z</time></trkpt><trkpt lat="45.802543620667365" lon="12.164697484471322"><ele>118.00000000000001</ele><time>2026-04-02T19:56:34Z</time></trkpt><trkpt lat="45.80245995156556" lon="12.164752495020899"><ele>118.0</ele><time>2026-04-02T19:56:35Z</time></trkpt><trkpt lat="45.80238245763533" lon="12.164799683665294"><ele>116.16666666666667</ele><time>2026-04-02T19:56:36Z</time></trkpt><trkpt lat="45.80230475167409" lon="12.16485009888042"><ele>114.33333333333334</ele><time>2026-04-02T19:56:37Z</time></trkpt><trkpt lat="45.80222843554226" lon="12.164897324585262"><ele>112.5</ele><time>2026-04-02T19:56:38Z</time></trkpt><trkpt lat="45.8021517440702" lon="12.164941047133786"><ele>110.66666666666666</ele><time>2026-04-02T19:56:39Z</time></trkpt><trkpt lat="45.80208271978524" lon="12.164987512996767"><ele>108.83333333333333</ele><time>2026-04-02T19:56:40Z</time></trkpt><trkpt lat="45.80201551142242" lon="12.165029579948186"><ele>107.0</ele><time>2026-04-02T19:56:41Z</time></trkpt><trkpt lat="45.80194899317324" lon="12.165064317990993"><ele>106.0</ele><time>2026-04-02T19:56:42Z</time></trkpt><trkpt lat="45.801890169577476" lon="12.165097478436945"><ele>104.99999999999999</ele><time>2026-04-02T19:56:43Z</time></trkpt><trkpt lat="45.8018071425513" lon="12.165099427482454"><ele>104.0</ele><time>2026-04-02T19:56:45Z</time></trkpt><trkpt lat="45.80173506092953" lon="12.165088859378294"><ele>103.0</ele><time>2026-04-02T19:56:47Z</time></trkpt><trkpt lat="45.801651034473174" lon="12.165302380838273"><ele>102.0</ele><time>2026-04-02T19:56:49Z</time></trkpt><trkpt lat="45.80162970101436" lon="12.165413755855838"><ele>99.6</ele><time>2026-04-02T19:56:50Z</time></trkpt><trkpt lat="45.8016078293123" lon="12.165529490867513"><ele>97.19999999999999</ele><time>2026-04-02T19:56:51Z</time></trkpt><trkpt lat="45.80159989417613" lon="12.165660928688107"><ele>94.8</ele><time>2026-04-02T19:56:52Z</time></trkpt><trkpt lat="45.80160699960103" lon="12.165807322140285"><ele>92.4</ele><time>2026-04-02T19:56:53Z</time></trkpt><trkpt lat="45.80163217850198" lon="12.165962699576003"><ele>90.0</ele><time>2026-04-02T19:56:54Z</time></trkpt><trkpt lat="45.80166430771278" lon="12.166121342131524"><ele>89.25</ele><time>2026-04-02T19:56:55Z</time></trkpt><trkpt lat="45.801700965808124" lon="12.166281785264216"><ele>88.5</ele><time>2026-04-02T19:56:56Z</time></trkpt><trkpt lat="45.801737855928316" lon="12.16644981862265"><ele>87.75</ele><time>2026-04-02T19:56:57Z</time></trkpt><trkpt lat="45.80177169706234" lon="12.16662215811911"><ele>87.0</ele><time>2026-04-02T19:56:58Z</time></trkpt><trkpt lat="45.801802835580204" lon="12.166786887965939"><ele>86.5</ele><time>2026-04-02T19:56:59Z</time></trkpt><trkpt lat="45.80184226551779" lon="12.166935314069628"><ele>86.0</ele><time>2026-04-02T19:57:00Z</time></trkpt><trkpt lat="45.80189786772365" lon="12.167083310389568"><ele>85.5</ele><time>2026-04-02T19:57:01Z</time></trkpt><trkpt lat="45.80195421351136" lon="12.167227043283672"><ele>85.0</ele><time>2026-04-02T19:57:02Z</time></trkpt><trkpt lat="45.80200946424287" lon="12.167371084168426"><ele>85.0</ele><time>2026-04-02T19:57:03Z</time></trkpt><trkpt lat="45.80206938751095" lon="12.16749392637519"><ele>85.0</ele><time>2026-04-02T19:57:04Z</time></trkpt><trkpt lat="45.80214131288088" lon="12.167608751567569"><ele>85.0</ele><time>2026-04-02T19:57:05Z</time></trkpt><trkpt lat="45.80221925919676" lon="12.167703770841506"><ele>85.0</ele><time>2026-04-02T19:57:06Z</time></trkpt><trkpt lat="45.80229991716697" lon="12.16777808645971"><ele>85.0</ele><time>2026-04-02T19:57:07Z</time></trkpt><trkpt lat="45.80238159750602" lon="12.167836537343042"><ele>85.0</ele><time>2026-04-02T19:57:08Z</time></trkpt><trkpt lat="45.80245882303906" lon="12.167906789793504"><ele>85.0</ele><time>2026-04-02T19:57:09Z</time></trkpt><trkpt lat="45.8025294048277" lon="12.167983761675075"><ele>85.0</ele><time>2026-04-02T19:57:10Z</time></trkpt><trkpt lat="45.80259792600156" lon="12.168064562922964"><ele>85.0</ele><time>2026-04-02T19:57:11Z</time></trkpt><trkpt lat="45.802658801575454" lon="12.168162700872315"><ele>85.0</ele><time>2026-04-02T19:57:12Z</time></trkpt><trkpt lat="45.80272543041732" lon="12.168255908344324"><ele>84.0</ele><time>2026-04-02T19:57:13Z</time></trkpt><trkpt lat="45.80280688808486" lon="12.168338061777426"><ele>83.0</ele><time>2026-04-02T19:57:14Z</time></trkpt><trkpt lat="45.8028993092338" lon="12.168389051162045"><ele>82.0</ele><time>2026-04-02T19:57:15Z</time></trkpt><trkpt lat="45.80299151860679" lon="12.168413036565502"><ele>81.0</ele><time>2026-04-02T19:57:16Z</time></trkpt><trkpt lat="45.80308200811725" lon="12.168424567828806"><ele>80.0</ele><time>2026-04-02T19:57:17Z</time></trkpt><trkpt lat="45.80316022954964" lon="12.168449659277465"><ele>80.0</ele><time>2026-04-02T19:57:18Z</time></trkpt><trkpt lat="45.803233212185894" lon="12.168500135461708"><ele>80.0</ele><time>2026-04-02T19:57:19Z</time></trkpt><trkpt lat="45.80330312558602" lon="12.168569568030048"><ele>80.0</ele><time>2026-04-02T19:57:20Z</time></trkpt><trkpt lat="45.803367351890856" lon="12.1686741880248"><ele>80.0</ele><time>2026-04-02T19:57:21Z</time></trkpt><trkpt lat="45.80341879463814" lon="12.168800038897471"><ele>80.0</ele><time>2026-04-02T19:57:22Z</time></trkpt><trkpt lat="45.803461564235825" lon="12.168943911333665"><ele>80.25</ele><time>2026-04-02T19:57:23Z</time></trkpt><trkpt lat="45.803478320162775" lon="12.169108873394165"><ele>80.5</ele><time>2026-04-02T19:57:24Z</time></trkpt><trkpt lat="45.80349055583425" lon="12.16927931868443"><ele>80.75</ele><time>2026-04-02T19:57:25Z</time></trkpt><trkpt lat="45.80351382150833" lon="12.16945608834921"><ele>81.0</ele><time>2026-04-02T19:57:26Z</time></trkpt><trkpt lat="45.80353644541667" lon="12.169650030405185"><ele>81.0</ele><time>2026-04-02T19:57:27Z</time></trkpt><trkpt lat="45.80356195543801" lon="12.169851551611254"><ele>81.0</ele><time>2026-04-02T19:57:28Z</time></trkpt><trkpt lat="45.80359053053006" lon="12.170056447925486"><ele>81.0</ele><time>2026-04-02T19:57:29Z</time></trkpt><trkpt lat="45.80361840664547" lon="12.170246735989275"><ele>81.0</ele><time>2026-04-02T19:57:30Z</time></trkpt><trkpt lat="45.803645920433496" lon="12.170443904453949"><ele>81.33333333333333</ele><time>2026-04-02T19:57:31Z</time></trkpt><trkpt lat="45.80367705456411" lon="12.170655202999912"><ele>81.66666666666666</ele><time>2026-04-02T19:57:32Z</time></trkpt><trkpt lat="45.80370779051843" lon="12.170872498420534"><ele>82.0</ele><time>2026-04-02T19:57:33Z</time></trkpt><trkpt lat="45.80374004847041" lon="12.171087518056849"><ele>81.25</ele><time>2026-04-02T19:57:34Z</time></trkpt><trkpt lat="45.80376929898164" lon="12.17129829164206"><ele>80.5</ele><time>2026-04-02T19:57:34.999Z</time></trkpt><trkpt lat="45.80379607179215" lon="12.171489619254855"><ele>79.75</ele><time>2026-04-02T19:57:35.999Z</time></trkpt><trkpt lat="45.80382161030677" lon="12.171675056810928"><ele>79.0</ele><time>2026-04-02T19:57:36.999Z</time></trkpt><trkpt lat="45.8038547759448" lon="12.17185677962509"><ele>78.5</ele><time>2026-04-02T19:57:37.999Z</time></trkpt><trkpt lat="45.803888894045194" lon="12.172027240994526"><ele>78.0</ele><time>2026-04-02T19:57:38.999Z</time></trkpt><trkpt lat="45.80397046022169" lon="12.172155847425937"><ele>77.5</ele><time>2026-04-02T19:57:39.999Z</time></trkpt><trkpt lat="45.80405812949164" lon="12.17225319053999"><ele>77.0</ele><time>2026-04-02T19:57:40.999Z</time></trkpt><trkpt lat="45.80416275297282" lon="12.172297392081463"><ele>77.0</ele><time>2026-04-02T19:57:41.999Z</time></trkpt><trkpt lat="45.804265196752944" lon="12.172357626338828"><ele>77.0</ele><time>2026-04-02T19:57:42.999Z</time></trkpt><trkpt lat="45.804368220294215" lon="12.172382129572851"><ele>77.0</ele><time>2026-04-02T19:57:43.999Z</time></trkpt><trkpt lat="45.80447355127692" lon="12.172414390070294"><ele>77.0</ele><time>2026-04-02T19:57:44.999Z</time></trkpt><trkpt lat="45.80457821210089" lon="12.172457631817942"><ele>77.0</ele><time>2026-04-02T19:57:45.999Z</time></trkpt><trkpt lat="45.80468610520007" lon="12.172499465190592"><ele>77.8</ele><time>2026-04-02T19:57:46.999Z</time></trkpt><trkpt lat="45.804788415810165" lon="12.172540833327384"><ele>78.6</ele><time>2026-04-02T19:57:47.999Z</time></trkpt><trkpt lat="45.80489164589248" lon="12.172588680060024"><ele>79.39999999999999</ele><time>2026-04-02T19:57:48.999Z</time></trkpt><trkpt lat="45.80499077797484" lon="12.172631660490408"><ele>80.2</ele><time>2026-04-02T19:57:49.999Z</time></trkpt><trkpt lat="45.805083001812584" lon="12.172682443026845"><ele>81.0</ele><time>2026-04-02T19:57:50.999Z</time></trkpt><trkpt lat="45.805159730477875" lon="12.172765197424374"><ele>81.33333333333333</ele><time>2026-04-02T19:57:51.999Z</time></trkpt><trkpt lat="45.80521803077314" lon="12.172852075912592"><ele>81.66666666666667</ele><time>2026-04-02T19:57:52.999Z</time></trkpt><trkpt lat="45.805249459535965" lon="12.172960869156833"><ele>82.0</ele><time>2026-04-02T19:57:53.999Z</time></trkpt><trkpt lat="45.80526240294971" lon="12.173090795650511"><ele>82.33333333333334</ele><time>2026-04-02T19:57:54.999Z</time></trkpt><trkpt lat="45.80527312169739" lon="12.173223970142457"><ele>82.66666666666667</ele><time>2026-04-02T19:57:55.999Z</time></trkpt><trkpt lat="45.8053039963728" lon="12.173355288112914"><ele>83.0</ele><time>2026-04-02T19:57:56.999Z</time></trkpt><trkpt lat="45.80531871150166" lon="12.17348623938429"><ele>83.0</ele><time>2026-04-02T19:57:57.999Z</time></trkpt><trkpt lat="45.80534841083523" lon="12.173589108603402"><ele>83.0</ele><time>2026-04-02T19:57:58.999Z</time></trkpt><trkpt lat="45.805379718444435" lon="12.173677962228624"><ele>83.0</ele><time>2026-04-02T19:57:59.999Z</time></trkpt><trkpt lat="45.805422387887496" lon="12.173766039545772"><ele>83.0</ele><time>2026-04-02T19:58:00.999Z</time></trkpt><trkpt lat="45.80548698844593" lon="12.17385450023716"><ele>83.0</ele><time>2026-04-02T19:58:01.999Z</time></trkpt><trkpt lat="45.805540775612435" lon="12.173919319641316"><ele>83.0</ele><time>2026-04-02T19:58:02.999Z</time></trkpt><trkpt lat="45.80559713078138" lon="12.173996596921414"><ele>83.0</ele><time>2026-04-02T19:58:04.999Z</time></trkpt><trkpt lat="45.80566493170798" lon="12.173929574565928"><ele>83.0</ele><time>2026-04-02T19:58:05.999Z</time></trkpt><trkpt lat="45.80573295597296" lon="12.173863337003963"><ele>83.0</ele><time>2026-04-02T19:58:07.999Z</time></trkpt><trkpt lat="45.80579879285323" lon="12.17380248698026"><ele>83.0</ele><time>2026-04-02T19:58:09.999Z</time></trkpt><trkpt lat="45.80587899179425" lon="12.173737461762439"><ele>83.0</ele><time>2026-04-02T19:58:12.999Z</time></trkpt><trkpt lat="45.80594300450293" lon="12.173697481537769"><ele>83.0</ele><time>2026-04-02T19:58:14.999Z</time></trkpt><trkpt lat="45.8060038069464" lon="12.173662172296465"><ele>83.0</ele><time>2026-04-02T19:58:16.999Z</time></trkpt><trkpt lat="45.80609596584252" lon="12.173603112864857"><ele>83.0</ele><time>2026-04-02T19:58:19.999Z</time></trkpt><trkpt lat="45.80617435280138" lon="12.173550024086914"><ele>83.0</ele><time>2026-04-02T19:58:21.999Z</time></trkpt><trkpt lat="45.806260903832055" lon="12.173491762489023"><ele>83.0</ele><time>2026-04-02T19:58:23.999Z</time></trkpt><trkpt lat="45.80635767162707" lon="12.173427294601918"><ele>83.0</ele><time>2026-04-02T19:58:25.999Z</time></trkpt><trkpt lat="45.80644146346048" lon="12.17336772853326"><ele>83.0</ele><time>2026-04-02T19:58:27.999Z</time></trkpt><trkpt lat="45.80653176192564" lon="12.173303060555844"><ele>83.0</ele><time>2026-04-02T19:58:29.999Z</time></trkpt><trkpt lat="45.806592165670615" lon="12.173257649408125"><ele>83.0</ele><time>2026-04-02T19:58:30.999Z</time></trkpt><trkpt lat="45.806664930132115" lon="12.173208730623093"><ele>83.0</ele><time>2026-04-02T19:58:31.999Z</time></trkpt><trkpt lat="45.80673004217407" lon="12.173162072020395"><ele>83.0</ele><time>2026-04-02T19:58:32.999Z</time></trkpt><trkpt lat="45.80682352566439" lon="12.173124871452417"><ele>83.0</ele><time>2026-04-02T19:58:34.999Z</time></trkpt><trkpt lat="45.80690149666919" lon="12.173042041971476"><ele>84.80000000000001</ele><time>2026-04-02T19:58:37.998Z</time></trkpt><trkpt lat="45.80700503592265" lon="12.172961591236305"><ele>86.6</ele><time>2026-04-02T19:58:40Z</time></trkpt><trkpt lat="45.80708027371387" lon="12.172910281472836"><ele>88.4</ele><time>2026-04-02T19:58:41Z</time></trkpt><trkpt lat="45.807161941436306" lon="12.172852006436788"><ele>90.19999999999999</ele><time>2026-04-02T19:58:42Z</time></trkpt><trkpt lat="45.807237230162706" lon="12.172799977824422"><ele>92.0</ele><time>2026-04-02T19:58:43Z</time></trkpt><trkpt lat="45.80730748507019" lon="12.172761581010398"><ele>92.0</ele><time>2026-04-02T19:58:44Z</time></trkpt><trkpt lat="45.8073878911604" lon="12.172759984477377"><ele>92.0</ele><time>2026-04-02T19:58:45Z</time></trkpt><trkpt lat="45.80746330873188" lon="12.172769009214345"><ele>92.0</ele><time>2026-04-02T19:58:46Z</time></trkpt><trkpt lat="45.80755356546579" lon="12.172746682409738"><ele>92.0</ele><time>2026-04-02T19:58:47Z</time></trkpt><trkpt lat="45.80764442940578" lon="12.172750072005218"><ele>92.0</ele><time>2026-04-02T19:58:48Z</time></trkpt><trkpt lat="45.80773360226035" lon="12.172754514666517"><ele>92.0</ele><time>2026-04-02T19:58:49Z</time></trkpt><trkpt lat="45.8078170597444" lon="12.172743729960358"><ele>92.0</ele><time>2026-04-02T19:58:50Z</time></trkpt><trkpt lat="45.80788864013502" lon="12.172746905737535"><ele>92.0</ele><time>2026-04-02T19:58:51Z</time></trkpt><trkpt lat="45.80796864305392" lon="12.172738865729933"><ele>92.0</ele><time>2026-04-02T19:58:52Z</time></trkpt><trkpt lat="45.808050365980975" lon="12.172744074763983"><ele>92.0</ele><time>2026-04-02T19:58:53Z</time></trkpt><trkpt lat="45.80813421638106" lon="12.172743543438981"><ele>92.0</ele><time>2026-04-02T19:58:54Z</time></trkpt><trkpt lat="45.808219432984366" lon="12.172737246128618"><ele>92.0</ele><time>2026-04-02T19:58:55Z</time></trkpt><trkpt lat="45.80830047674587" lon="12.172732118157311"><ele>92.0</ele><time>2026-04-02T19:58:56Z</time></trkpt><trkpt lat="45.80837317013425" lon="12.172734590556558"><ele>92.0</ele><time>2026-04-02T19:58:57Z</time></trkpt><trkpt lat="45.80844026215669" lon="12.17273459380385"><ele>92.0</ele><time>2026-04-02T19:58:58Z</time></trkpt><trkpt lat="45.80850431210461" lon="12.172731743771424"><ele>92.0</ele><time>2026-04-02T19:58:59Z</time></trkpt><trkpt lat="45.80862718174061" lon="12.172724626576128"><ele>92.0</ele><time>2026-04-02T19:59:01Z</time></trkpt><trkpt lat="45.808746639235935" lon="12.172728241314678"><ele>92.0</ele><time>2026-04-02T19:59:03Z</time></trkpt><trkpt lat="45.80887694399372" lon="12.172738695532287"><ele>92.85714285714286</ele><time>2026-04-02T19:59:04.999Z</time></trkpt><trkpt lat="45.80894884567054" lon="12.172738720681833"><ele>93.71428571428571</ele><time>2026-04-02T19:59:05.999Z</time></trkpt><trkpt lat="45.809016009855796" lon="12.172752268885748"><ele>94.57142857142857</ele><time>2026-04-02T19:59:06.999Z</time></trkpt><trkpt lat="45.80908561600787" lon="12.172770389669136"><ele>95.42857142857143</ele><time>2026-04-02T19:59:07.999Z</time></trkpt><trkpt lat="45.80915668389586" lon="12.172788891016417"><ele>96.28571428571428</ele><time>2026-04-02T19:59:08.999Z</time></trkpt><trkpt lat="45.80923482759675" lon="12.172712170596247"><ele>97.14285714285714</ele><time>2026-04-02T19:59:09.999Z</time></trkpt><trkpt lat="45.8093042723381" lon="12.172710280527392"><ele>98.0</ele><time>2026-04-02T19:59:10.999Z</time></trkpt><trkpt lat="45.809369046326815" lon="12.172762880181095"><ele>98.80000000000001</ele><time>2026-04-02T19:59:11.999Z</time></trkpt><trkpt lat="45.809436433447445" lon="12.17278253246026"><ele>99.6</ele><time>2026-04-02T19:59:12.999Z</time></trkpt><trkpt lat="45.80953514415287" lon="12.17288054809101"><ele>100.4</ele><time>2026-04-02T19:59:14.999Z</time></trkpt><trkpt lat="45.8096303299254" lon="12.172973037079446"><ele>101.19999999999999</ele><time>2026-04-02T19:59:16.999Z</time></trkpt><trkpt lat="45.80973060021639" lon="12.173074075063399"><ele>102.0</ele><time>2026-04-02T19:59:18.999Z</time></trkpt><trkpt lat="45.80978683717897" lon="12.173129464482836"><ele>102.0</ele><time>2026-04-02T19:59:19.999Z</time></trkpt><trkpt lat="45.80984540725126" lon="12.17318294960015"><ele>102.0</ele><time>2026-04-02T19:59:20.999Z</time></trkpt><trkpt lat="45.8099058390335" lon="12.173239626695946"><ele>102.0</ele><time>2026-04-02T19:59:21.999Z</time></trkpt><trkpt lat="45.80997463993384" lon="12.173290077773885"><ele>102.0</ele><time>2026-04-02T19:59:22.999Z</time></trkpt><trkpt lat="45.810048772566404" lon="12.173324488116368"><ele>102.0</ele><time>2026-04-02T19:59:23.999Z</time></trkpt><trkpt lat="45.81013368017218" lon="12.17332639125531"><ele>102.0</ele><time>2026-04-02T19:59:24.999Z</time></trkpt><trkpt lat="45.81021083906913" lon="12.173306640332099"><ele>104.16666666666667</ele><time>2026-04-02T19:59:25.999Z</time></trkpt><trkpt lat="45.81028840921482" lon="12.17326352520185"><ele>106.33333333333334</ele><time>2026-04-02T19:59:26.999Z</time></trkpt><trkpt lat="45.81036289365554" lon="12.173199559515773"><ele>108.5</ele><time>2026-04-02T19:59:27.999Z</time></trkpt><trkpt lat="45.81042488517542" lon="12.173124344446622"><ele>110.66666666666667</ele><time>2026-04-02T19:59:28.999Z</time></trkpt><trkpt lat="45.81049313531096" lon="12.173061586714157"><ele>112.83333333333334</ele><time>2026-04-02T19:59:29.999Z</time></trkpt><trkpt lat="45.81055517751268" lon="12.172969791375712"><ele>115.0</ele><time>2026-04-02T19:59:30.999Z</time></trkpt><trkpt lat="45.81061333705591" lon="12.172870308240633"><ele>115.00000000000001</ele><time>2026-04-02T19:59:31.999Z</time></trkpt><trkpt lat="45.8106654366947" lon="12.172765456013394"><ele>115.0</ele><time>2026-04-02T19:59:32.999Z</time></trkpt><trkpt lat="45.81070945484223" lon="12.172658438407945"><ele>115.0</ele><time>2026-04-02T19:59:33.999Z</time></trkpt><trkpt lat="45.81073118362012" lon="12.172546369220962"><ele>115.0</ele><time>2026-04-02T19:59:34.999Z</time></trkpt><trkpt lat="45.81075755293508" lon="12.172437385948413"><ele>115.00000000000001</ele><time>2026-04-02T19:59:35.999Z</time></trkpt><trkpt lat="45.81076477347038" lon="12.172307491039337"><ele>115.0</ele><time>2026-04-02T19:59:36.999Z</time></trkpt><trkpt lat="45.810763723615615" lon="12.172181673299587"><ele>115.6</ele><time>2026-04-02T19:59:37.999Z</time></trkpt><trkpt lat="45.81078664672039" lon="12.172053006779755"><ele>116.2</ele><time>2026-04-02T19:59:38.999Z</time></trkpt><trkpt lat="45.810794529610725" lon="12.171911282450088"><ele>116.80000000000001</ele><time>2026-04-02T19:59:39.999Z</time></trkpt><trkpt lat="45.810802082148925" lon="12.171768586603534"><ele>117.4</ele><time>2026-04-02T19:59:40.999Z</time></trkpt><trkpt lat="45.81080897326596" lon="12.17161635539973"><ele>118.0</ele><time>2026-04-02T19:59:41.999Z</time></trkpt><trkpt lat="45.81081602905148" lon="12.171460486742568"><ele>119.2</ele><time>2026-04-02T19:59:42.999Z</time></trkpt><trkpt lat="45.810822906048465" lon="12.17129298940916"><ele>120.4</ele><time>2026-04-02T19:59:43.999Z</time></trkpt><trkpt lat="45.81082720512218" lon="12.171136049753795"><ele>121.60000000000001</ele><time>2026-04-02T19:59:44.999Z</time></trkpt><trkpt lat="45.81082617366982" lon="12.170992118836345"><ele>122.80000000000001</ele><time>2026-04-02T19:59:45.999Z</time></trkpt><trkpt lat="45.81081081871934" lon="12.170861802163964"><ele>124.0</ele><time>2026-04-02T19:59:46.999Z</time></trkpt><trkpt lat="45.81080228709439" lon="12.170735306894679"><ele>125.00000000000001</ele><time>2026-04-02T19:59:47.999Z</time></trkpt><trkpt lat="45.8107725342798" lon="12.170629063307045"><ele>126.0</ele><time>2026-04-02T19:59:48.999Z</time></trkpt><trkpt lat="45.8106929208771" lon="12.170558711712337"><ele>127.0</ele><time>2026-04-02T19:59:49.999Z</time></trkpt><trkpt lat="45.810604782947735" lon="12.170534322125418"><ele>128.0</ele><time>2026-04-02T19:59:50.999Z</time></trkpt><trkpt lat="45.81052040839516" lon="12.170513609058439"><ele>129.0</ele><time>2026-04-02T19:59:51.999Z</time></trkpt><trkpt lat="45.810436268164345" lon="12.170503079105899"><ele>130.0</ele><time>2026-04-02T19:59:52.999Z</time></trkpt><trkpt lat="45.81035905978025" lon="12.170494921251112"><ele>130.0</ele><time>2026-04-02T19:59:53.999Z</time></trkpt><trkpt lat="45.81028744736648" lon="12.17048248203828"><ele>130.0</ele><time>2026-04-02T19:59:54.999Z</time></trkpt><trkpt lat="45.810240994421974" lon="12.170407746690652"><ele>130.0</ele><time>2026-04-02T19:59:55.998Z</time></trkpt><trkpt lat="45.81018027040913" lon="12.170277483591203"><ele>130.0</ele><time>2026-04-02T19:59:57.998Z</time></trkpt><trkpt lat="45.81016341463067" lon="12.170186455279277"><ele>130.0</ele><time>2026-04-02T19:59:58.998Z</time></trkpt><trkpt lat="45.81017333037157" lon="12.1700027876229"><ele>130.0</ele><time>2026-04-02T20:00:00.998Z</time></trkpt><trkpt lat="45.810185942149495" lon="12.169833758405241"><ele>129.75</ele><time>2026-04-02T20:00:02.998Z</time></trkpt><trkpt lat="45.81020406590309" lon="12.169652443971565"><ele>129.5</ele><time>2026-04-02T20:00:04.998Z</time></trkpt><trkpt lat="45.810195087015444" lon="12.169341999976348"><ele>129.25</ele><time>2026-04-02T20:00:07.998Z</time></trkpt><trkpt lat="45.81016678374708" lon="12.169246266699535"><ele>129.0</ele><time>2026-04-02T20:00:08.998Z</time></trkpt><trkpt lat="45.81014483928082" lon="12.16913645919084"><ele>129.0</ele><time>2026-04-02T20:00:09.998Z</time></trkpt><trkpt lat="45.810127005370106" lon="12.169026261705014"><ele>129.0</ele><time>2026-04-02T20:00:10.998Z</time></trkpt><trkpt lat="45.810104078904544" lon="12.16889783710267"><ele>129.0</ele><time>2026-04-02T20:00:11.998Z</time></trkpt><trkpt lat="45.81133403869487" lon="12.169088602665926"><ele>134.8</ele><time>2026-04-02T20:00:36.998Z</time></trkpt><trkpt lat="45.81143841436505" lon="12.169107441281563"><ele>140.60000000000002</ele><time>2026-04-02T20:00:37.998Z</time></trkpt><trkpt lat="45.81153487984616" lon="12.169134691669084"><ele>146.4</ele><time>2026-04-02T20:00:38.998Z</time></trkpt><trkpt lat="45.811619345695576" lon="12.16917994588162"><ele>152.20000000000002</ele><time>2026-04-02T20:00:39.998Z</time></trkpt><trkpt lat="45.811695766494815" lon="12.16926174392453"><ele>158.0</ele><time>2026-04-02T20:00:40.998Z</time></trkpt><trkpt lat="45.811747295156756" lon="12.169387202498216"><ele>158.0</ele><time>2026-04-02T20:00:41.998Z</time></trkpt><trkpt lat="45.81180075705276" lon="12.169490885166859"><ele>158.0</ele><time>2026-04-02T20:00:42.998Z</time></trkpt><trkpt lat="45.81185515015163" lon="12.169584743547931"><ele>158.0</ele><time>2026-04-02T20:00:43.998Z</time></trkpt><trkpt lat="45.81189708559907" lon="12.169686904832318"><ele>158.0</ele><time>2026-04-02T20:00:44.998Z</time></trkpt><trkpt lat="45.81193873128574" lon="12.169785758268294"><ele>158.0</ele><time>2026-04-02T20:00:46Z</time></trkpt><trkpt lat="45.81198261922852" lon="12.169868975465283"><ele>158.0</ele><time>2026-04-02T20:00:47Z</time></trkpt><trkpt lat="45.81203728529097" lon="12.169938264492126"><ele>158.0</ele><time>2026-04-02T20:00:48Z</time></trkpt><trkpt lat="45.81209612989705" lon="12.169976543248673"><ele>158.0</ele><time>2026-04-02T20:00:49Z</time></trkpt><trkpt lat="45.81216871561432" lon="12.170015864013656"><ele>158.0</ele><time>2026-04-02T20:00:50Z</time></trkpt><trkpt lat="45.81224599026533" lon="12.170065588618227"><ele>158.0</ele><time>2026-04-02T20:00:51Z</time></trkpt><trkpt lat="45.81232057800827" lon="12.170125177726211"><ele>158.0</ele><time>2026-04-02T20:00:52Z</time></trkpt><trkpt lat="45.81239093428022" lon="12.170186273307376"><ele>158.0</ele><time>2026-04-02T20:00:53Z</time></trkpt><trkpt lat="45.81250365250821" lon="12.170305413674027"><ele>158.0</ele><time>2026-04-02T20:00:55Z</time></trkpt><trkpt lat="45.812559045238785" lon="12.170352596700006"><ele>158.0</ele><time>2026-04-02T20:00:57Z</time></trkpt><trkpt lat="45.81252774591299" lon="12.170444035207352"><ele>158.0</ele><time>2026-04-02T20:01:13.999Z</time></trkpt><trkpt lat="45.81245063452598" lon="12.170643049897054"><ele>158.0</ele><time>2026-04-02T20:01:16.999Z</time></trkpt><trkpt lat="45.81242460487491" lon="12.170753374210653"><ele>158.0</ele><time>2026-04-02T20:01:17.999Z</time></trkpt><trkpt lat="45.81239415875378" lon="12.170869214023202"><ele>158.0</ele><time>2026-04-02T20:01:18.999Z</time></trkpt><trkpt lat="45.81236680320057" lon="12.17098266254947"><ele>158.0</ele><time>2026-04-02T20:01:19.999Z</time></trkpt><trkpt lat="45.81233912612655" lon="12.171098136732928"><ele>158.0</ele><time>2026-04-02T20:01:20.999Z</time></trkpt><trkpt lat="45.81231230588643" lon="12.171207625002543"><ele>158.0</ele><time>2026-04-02T20:01:21.999Z</time></trkpt><trkpt lat="45.81228490513365" lon="12.171317562840986"><ele>158.0</ele><time>2026-04-02T20:01:22.999Z</time></trkpt><trkpt lat="45.812270010257734" lon="12.171432887181233"><ele>158.0</ele><time>2026-04-02T20:01:23.999Z</time></trkpt><trkpt lat="45.81222518292696" lon="12.171531640992937"><ele>157.66666666666666</ele><time>2026-04-02T20:01:24.999Z</time></trkpt><trkpt lat="45.812194401926526" lon="12.171636591000617"><ele>157.33333333333331</ele><time>2026-04-02T20:01:25.999Z</time></trkpt><trkpt lat="45.81214979861194" lon="12.171727262103916"><ele>157.0</ele><time>2026-04-02T20:01:26.999Z</time></trkpt><trkpt lat="45.81208471431726" lon="12.17180115071232"><ele>156.66666666666666</ele><time>2026-04-02T20:01:27.999Z</time></trkpt><trkpt lat="45.81201669364376" lon="12.171858692465094"><ele>156.33333333333334</ele><time>2026-04-02T20:01:28.999Z</time></trkpt><trkpt lat="45.81194905397523" lon="12.171919547841513"><ele>156.0</ele><time>2026-04-02T20:01:29.999Z</time></trkpt><trkpt lat="45.81190347034221" lon="12.1720053195466"><ele>156.0</ele><time>2026-04-02T20:01:30.999Z</time></trkpt><trkpt lat="45.8118529818392" lon="12.172084906814662"><ele>156.0</ele><time>2026-04-02T20:01:31.999Z</time></trkpt><trkpt lat="45.81180717886164" lon="12.172249846770278"><ele>156.0</ele><time>2026-04-02T20:01:33.999Z</time></trkpt><trkpt lat="45.81177958633576" lon="12.172345058656548"><ele>156.0</ele><time>2026-04-02T20:01:34.999Z</time></trkpt><trkpt lat="45.81178412791688" lon="12.172547992753406"><ele>156.0</ele><time>2026-04-02T20:01:36.999Z</time></trkpt><trkpt lat="45.811753048564114" lon="12.172630824012327"><ele>151.6</ele><time>2026-04-02T20:01:37.999Z</time></trkpt><trkpt lat="45.81169382550716" lon="12.172685444238832"><ele>147.2</ele><time>2026-04-02T20:01:38.999Z</time></trkpt><trkpt lat="45.811594607665405" lon="12.172786847202048"><ele>142.8</ele><time>2026-04-02T20:01:40.999Z</time></trkpt><trkpt lat="45.81154287529401" lon="12.172860909501969"><ele>138.4</ele><time>2026-04-02T20:01:42.999Z</time></trkpt><trkpt lat="45.81156913652747" lon="12.173005411901066"><ele>134.0</ele><time>2026-04-02T20:01:51.999Z</time></trkpt><trkpt lat="45.81168033671991" lon="12.173016880323884"><ele>134.0</ele><time>2026-04-02T20:01:53.999Z</time></trkpt><trkpt lat="45.81178149321139" lon="12.17302660889805"><ele>134.0</ele><time>2026-04-02T20:01:55.999Z</time></trkpt><trkpt lat="45.811968187469084" lon="12.172989569297494"><ele>134.0</ele><time>2026-04-02T20:01:58.999Z</time></trkpt><trkpt lat="45.812048523245615" lon="12.17298152282999"><ele>134.0</ele><time>2026-04-02T20:01:59.999Z</time></trkpt><trkpt lat="45.812128813138315" lon="12.172960823118848"><ele>137.8</ele><time>2026-04-02T20:02:00.999Z</time></trkpt><trkpt lat="45.81220956277531" lon="12.172946215795482"><ele>141.60000000000002</ele><time>2026-04-02T20:02:01.999Z</time></trkpt><trkpt lat="45.81228082918784" lon="12.172935879848774"><ele>145.4</ele><time>2026-04-02T20:02:02.999Z</time></trkpt><trkpt lat="45.81240038067676" lon="12.172925421097215"><ele>149.20000000000002</ele><time>2026-04-02T20:02:04.999Z</time></trkpt><trkpt lat="45.81249206535804" lon="12.172925001365918"><ele>153.0</ele><time>2026-04-02T20:02:06.999Z</time></trkpt><trkpt lat="45.812586363369476" lon="12.172940529610647"><ele>154.66666666666666</ele><time>2026-04-02T20:02:08.999Z</time></trkpt><trkpt lat="45.81266654385169" lon="12.172982688768862"><ele>156.33333333333334</ele><time>2026-04-02T20:02:10.999Z</time></trkpt><trkpt lat="45.81274507708302" lon="12.17304183893245"><ele>158.0</ele><time>2026-04-02T20:02:12.999Z</time></trkpt><trkpt lat="45.81281550793143" lon="12.17307715982583"><ele>159.66666666666669</ele><time>2026-04-02T20:02:13.998Z</time></trkpt><trkpt lat="45.81289461778077" lon="12.173075612479465"><ele>161.33333333333334</ele><time>2026-04-02T20:02:14.998Z</time></trkpt><trkpt lat="45.81299707380604" lon="12.173143508999836"><ele>163.0</ele><time>2026-04-02T20:02:16.998Z</time></trkpt><trkpt lat="45.81314574017056" lon="12.172981418563007"><ele>163.0</ele><time>2026-04-02T20:02:24.998Z</time></trkpt><trkpt lat="45.813151290168" lon="12.172867178188818"><ele>163.0</ele><time>2026-04-02T20:02:27.998Z</time></trkpt><trkpt lat="45.81315760590347" lon="12.172746975568861"><ele>163.0</ele><time>2026-04-02T20:02:30.998Z</time></trkpt><trkpt lat="45.81316657721123" lon="12.172656709486223"><ele>163.0</ele><time>2026-04-02T20:02:32.998Z</time></trkpt><trkpt lat="45.81319133447427" lon="12.172539223996473"><ele>163.0</ele><time>2026-04-02T20:02:34.998Z</time></trkpt><trkpt lat="45.81321720824085" lon="12.172418563805053"><ele>163.0</ele><time>2026-04-02T20:02:36.998Z</time></trkpt><trkpt lat="45.81324344296113" lon="12.17231264870373"><ele>163.25</ele><time>2026-04-02T20:02:38.998Z</time></trkpt><trkpt lat="45.8133529176106" lon="12.172080714742323"><ele>163.5</ele><time>2026-04-02T20:02:42.998Z</time></trkpt><trkpt lat="45.81341323509709" lon="12.172007932055529"><ele>163.75</ele><time>2026-04-02T20:02:44.998Z</time></trkpt><trkpt lat="45.813507345558044" lon="12.171929391415253"><ele>164.0</ele><time>2026-04-02T20:02:46.998Z</time></trkpt><trkpt lat="45.81361981472748" lon="12.171858621470829"><ele>162.39999999999998</ele><time>2026-04-02T20:02:48.998Z</time></trkpt><trkpt lat="45.813716468941145" lon="12.171748522076657"><ele>160.79999999999998</ele><time>2026-04-02T20:02:51Z</time></trkpt><trkpt lat="45.81380257441997" lon="12.17164111621101"><ele>159.2</ele><time>2026-04-02T20:02:53Z</time></trkpt><trkpt lat="45.81385151344503" lon="12.171583926056915"><ele>157.6</ele><time>2026-04-02T20:02:54Z</time></trkpt><trkpt lat="45.8139459108522" lon="12.171494862720593"><ele>156.0</ele><time>2026-04-02T20:02:56Z</time></trkpt><trkpt lat="45.814056444239974" lon="12.171449768964623"><ele>155.8</ele><time>2026-04-02T20:02:58Z</time></trkpt><trkpt lat="45.81418162787044" lon="12.171420497105393"><ele>155.6</ele><time>2026-04-02T20:03:00Z</time></trkpt><trkpt lat="45.81431174040498" lon="12.171373946706124"><ele>155.4</ele><time>2026-04-02T20:03:02Z</time></trkpt><trkpt lat="45.814374829418405" lon="12.171347609353418"><ele>155.2</ele><time>2026-04-02T20:03:03Z</time></trkpt><trkpt lat="45.81443678173053" lon="12.171323284481504"><ele>155.0</ele><time>2026-04-02T20:03:04Z</time></trkpt><trkpt lat="45.81450199503102" lon="12.171303142575658"><ele>155.0</ele><time>2026-04-02T20:03:05Z</time></trkpt><trkpt lat="45.81457219606321" lon="12.171282530418813"><ele>155.0</ele><time>2026-04-02T20:03:06Z</time></trkpt><trkpt lat="45.81463794770788" lon="12.171271898521754"><ele>155.0</ele><time>2026-04-02T20:03:07Z</time></trkpt><trkpt lat="45.81473697475815" lon="12.171223821583885"><ele>155.0</ele><time>2026-04-02T20:03:08.999Z</time></trkpt><trkpt lat="45.81482955307943" lon="12.171156377585417"><ele>155.0</ele><time>2026-04-02T20:03:10.999Z</time></trkpt><trkpt lat="45.81492047217157" lon="12.171085984815411"><ele>155.0</ele><time>2026-04-02T20:03:12.999Z</time></trkpt><trkpt lat="45.8150173235512" lon="12.171007156668812"><ele>155.0</ele><time>2026-04-02T20:03:14.999Z</time></trkpt><trkpt lat="45.815098523583536" lon="12.170938427455434"><ele>155.0</ele><time>2026-04-02T20:03:16.999Z</time></trkpt><trkpt lat="45.81515093435339" lon="12.170878665066835"><ele>155.0</ele><time>2026-04-02T20:03:18.999Z</time></trkpt><trkpt lat="45.815172332316855" lon="12.170780094846318"><ele>155.0</ele><time>2026-04-02T20:03:21.999Z</time></trkpt><trkpt lat="45.81524909827005" lon="12.170563531409039"><ele>155.0</ele><time>2026-04-02T20:03:25.999Z</time></trkpt><trkpt lat="45.81528505122778" lon="12.170426163435188"><ele>155.0</ele><time>2026-04-02T20:03:27.999Z</time></trkpt><trkpt lat="45.81529790184904" lon="12.170302411946842"><ele>155.0</ele><time>2026-04-02T20:03:29.999Z</time></trkpt><trkpt lat="45.81528713988976" lon="12.17020727488779"><ele>155.0</ele><time>2026-04-02T20:03:31.999Z</time></trkpt><trkpt lat="45.81530048056114" lon="12.170116965455707"><ele>155.0</ele><time>2026-04-02T20:03:33.999Z</time></trkpt><trkpt lat="45.815327514475946" lon="12.170009685726175"><ele>155.0</ele><time>2026-04-02T20:03:37.999Z</time></trkpt><trkpt lat="45.81539211855678" lon="12.169923641476755"><ele>155.0</ele><time>2026-04-02T20:03:40.999Z</time></trkpt><trkpt lat="45.81544785853363" lon="12.169859203935207"><ele>154.6</ele><time>2026-04-02T20:03:43.999Z</time></trkpt><trkpt lat="45.81556895028379" lon="12.169708091910625"><ele>154.2</ele><time>2026-04-02T20:03:48.999Z</time></trkpt><trkpt lat="45.815621684177785" lon="12.169652823638042"><ele>153.8</ele><time>2026-04-02T20:03:50.999Z</time></trkpt><trkpt lat="45.81570294517224" lon="12.169578064207702"><ele>153.4</ele><time>2026-04-02T20:03:53.998Z</time></trkpt><trkpt lat="45.81577235283584" lon="12.169512535556864"><ele>153.0</ele><time>2026-04-02T20:03:55.998Z</time></trkpt><trkpt lat="45.81584475684597" lon="12.169447220480917"><ele>153.0</ele><time>2026-04-02T20:03:57.998Z</time></trkpt><trkpt lat="45.815905535438944" lon="12.16938700164765"><ele>153.0</ele><time>2026-04-02T20:03:59.998Z</time></trkpt><trkpt lat="45.81595571016331" lon="12.169316116231311"><ele>153.0</ele><time>2026-04-02T20:04:02.998Z</time></trkpt><trkpt lat="45.81600418517978" lon="12.169199729969128"><ele>153.0</ele><time>2026-04-02T20:04:04.998Z</time></trkpt><trkpt lat="45.81605005230244" lon="12.16900468784586"><ele>153.0</ele><time>2026-04-02T20:04:14.998Z</time></trkpt><trkpt lat="45.81609984566537" lon="12.168912815732888"><ele>155.2</ele><time>2026-04-02T20:05:16Z</time></trkpt><trkpt lat="45.81621035329019" lon="12.168778132284883"><ele>157.4</ele><time>2026-04-02T20:05:20Z</time></trkpt><trkpt lat="45.81626832623265" lon="12.16872990850561"><ele>159.6</ele><time>2026-04-02T20:05:22Z</time></trkpt><trkpt lat="45.81632915120246" lon="12.1686847636505"><ele>161.79999999999998</ele><time>2026-04-02T20:05:24Z</time></trkpt><trkpt lat="45.816415711289864" lon="12.168629969183996"><ele>164.0</ele><time>2026-04-02T20:05:27Z</time></trkpt><trkpt lat="45.81649010828826" lon="12.168599792732788"><ele>164.0</ele><time>2026-04-02T20:05:29Z</time></trkpt><trkpt lat="45.816554783858734" lon="12.168561688451788"><ele>164.0</ele><time>2026-04-02T20:05:31Z</time></trkpt><trkpt lat="45.81664124280054" lon="12.168522993569182"><ele>164.0</ele><time>2026-04-02T20:05:34Z</time></trkpt><trkpt lat="45.81673225600396" lon="12.168481041406466"><ele>164.0</ele><time>2026-04-02T20:05:36.999Z</time></trkpt><trkpt lat="45.816868645108826" lon="12.16844048117836"><ele>164.0</ele><time>2026-04-02T20:05:40.999Z</time></trkpt><trkpt lat="45.81693393455426" lon="12.168426814291182"><ele>164.79999999999998</ele><time>2026-04-02T20:05:42.999Z</time></trkpt><trkpt lat="45.81701264571472" lon="12.168393824297905"><ele>165.6</ele><time>2026-04-02T20:05:44.999Z</time></trkpt><trkpt lat="45.817079071915565" lon="12.16831493146138"><ele>166.4</ele><time>2026-04-02T20:05:46.999Z</time></trkpt><trkpt lat="45.817168729131716" lon="12.168234476635325"><ele>167.2</ele><time>2026-04-02T20:05:48.999Z</time></trkpt><trkpt lat="45.8172641719491" lon="12.168182319645865"><ele>168.0</ele><time>2026-04-02T20:05:50.999Z</time></trkpt><trkpt lat="45.817346709164326" lon="12.168144998408643"><ele>168.0</ele><time>2026-04-02T20:05:52.999Z</time></trkpt><trkpt lat="45.817443214622685" lon="12.168104951605612"><ele>168.0</ele><time>2026-04-02T20:05:54.999Z</time></trkpt><trkpt lat="45.81754555767413" lon="12.168072083491072"><ele>168.0</ele><time>2026-04-02T20:05:56.999Z</time></trkpt><trkpt lat="45.817615661035724" lon="12.168032899286061"><ele>168.0</ele><time>2026-04-02T20:05:58.999Z</time></trkpt><trkpt lat="45.81774288266932" lon="12.167896332443096"><ele>168.0</ele><time>2026-04-02T20:06:02.999Z</time></trkpt><trkpt lat="45.8177990559471" lon="12.1677904692044"><ele>168.16666666666666</ele><time>2026-04-02T20:06:06.999Z</time></trkpt><trkpt lat="45.81780745279627" lon="12.167658454540055"><ele>168.33333333333334</ele><time>2026-04-02T20:06:09.999Z</time></trkpt><trkpt lat="45.81785407050458" lon="12.1675519900001"><ele>168.5</ele><time>2026-04-02T20:06:12.999Z</time></trkpt><trkpt lat="45.81789850694521" lon="12.167456709351807"><ele>168.66666666666669</ele><time>2026-04-02T20:06:14.999Z</time></trkpt><trkpt lat="45.81794513486811" lon="12.167370927520507"><ele>168.83333333333334</ele><time>2026-04-02T20:06:16.999Z</time></trkpt><trkpt lat="45.817984465590804" lon="12.167281896902862"><ele>169.0</ele><time>2026-04-02T20:06:18.999Z</time></trkpt><trkpt lat="45.818047540174746" lon="12.16721257073884"><ele>168.5</ele><time>2026-04-02T20:06:20.999Z</time></trkpt><trkpt lat="45.81818725201209" lon="12.167047056713573"><ele>168.0</ele><time>2026-04-02T20:06:24.999Z</time></trkpt><trkpt lat="45.81823381697516" lon="12.166935061395545"><ele>167.5</ele><time>2026-04-02T20:06:26.999Z</time></trkpt><trkpt lat="45.81824810664743" lon="12.166795579339537"><ele>167.0</ele><time>2026-04-02T20:06:28.999Z</time></trkpt><trkpt lat="45.81825663612588" lon="12.16663522173588"><ele>168.0</ele><time>2026-04-02T20:06:30.999Z</time></trkpt><trkpt lat="45.81826145805644" lon="12.166498174161035"><ele>169.0</ele><time>2026-04-02T20:06:32.999Z</time></trkpt><trkpt lat="45.81826261845855" lon="12.166398844953557"><ele>170.0</ele><time>2026-04-02T20:06:34.999Z</time></trkpt><trkpt lat="45.81827122661725" lon="12.166305352996963"><ele>171.0</ele><time>2026-04-02T20:06:38.999Z</time></trkpt><trkpt lat="45.81826265246899" lon="12.166180592948441"><ele>172.0</ele><time>2026-04-02T20:06:41.999Z</time></trkpt><trkpt lat="45.81824353565916" lon="12.165991999935017"><ele>172.0</ele><time>2026-04-02T20:06:45.999Z</time></trkpt><trkpt lat="45.81823554123476" lon="12.16587054842759"><ele>172.0</ele><time>2026-04-02T20:06:47.999Z</time></trkpt><trkpt lat="45.818224600350476" lon="12.16572731577519"><ele>172.0</ele><time>2026-04-02T20:06:49.999Z</time></trkpt><trkpt lat="45.81821918926791" lon="12.16563357793012"><ele>172.0</ele><time>2026-04-02T20:06:50.999Z</time></trkpt><trkpt lat="45.81821062293754" lon="12.165500244545985"><ele>172.0</ele><time>2026-04-02T20:06:52.998Z</time></trkpt><trkpt lat="45.81823010858971" lon="12.16541343785366"><ele>172.0</ele><time>2026-04-02T20:06:54.998Z</time></trkpt><trkpt lat="45.818296456294654" lon="12.16536338965642"><ele>173.0</ele><time>2026-04-02T20:06:57.998Z</time></trkpt><trkpt lat="45.81837754785977" lon="12.16534324208864"><ele>174.0</ele><time>2026-04-02T20:06:59.998Z</time></trkpt><trkpt lat="45.81846626767319" lon="12.16530753511014"><ele>175.0</ele><time>2026-04-02T20:07:02Z</time></trkpt><trkpt lat="45.81857808984938" lon="12.165241593959472"><ele>176.0</ele><time>2026-04-02T20:07:04Z</time></trkpt><trkpt lat="45.818728422289205" lon="12.165184945030386"><ele>177.16666666666666</ele><time>2026-04-02T20:07:06Z</time></trkpt><trkpt lat="45.818806543752274" lon="12.165184591276915"><ele>178.33333333333331</ele><time>2026-04-02T20:07:07Z</time></trkpt><trkpt lat="45.81889840987274" lon="12.165222939985165"><ele>179.5</ele><time>2026-04-02T20:07:08Z</time></trkpt><trkpt lat="45.81898304939967" lon="12.165277586155637"><ele>180.66666666666666</ele><time>2026-04-02T20:07:09Z</time></trkpt><trkpt lat="45.819064496693166" lon="12.165333911601298"><ele>181.83333333333334</ele><time>2026-04-02T20:07:10Z</time></trkpt><trkpt lat="45.819137089920076" lon="12.165387729814057"><ele>183.0</ele><time>2026-04-02T20:07:11Z</time></trkpt><trkpt lat="45.819202178367036" lon="12.165434850581956"><ele>183.0</ele><time>2026-04-02T20:07:12Z</time></trkpt><trkpt lat="45.81926284054693" lon="12.165474864997185"><ele>183.0</ele><time>2026-04-02T20:07:13Z</time></trkpt><trkpt lat="45.819330899568534" lon="12.165526462602942"><ele>183.0</ele><time>2026-04-02T20:07:14Z</time></trkpt><trkpt lat="45.81940355933564" lon="12.165575261565552"><ele>183.0</ele><time>2026-04-02T20:07:15Z</time></trkpt><trkpt lat="45.819500239607045" lon="12.1656116638489"><ele>183.0</ele><time>2026-04-02T20:07:16Z</time></trkpt><trkpt lat="45.81960997320475" lon="12.165650967666442"><ele>183.0</ele><time>2026-04-02T20:07:17Z</time></trkpt><trkpt lat="45.819719777324295" lon="12.165683473854303"><ele>181.75</ele><time>2026-04-02T20:07:18Z</time></trkpt><trkpt lat="45.81982475634088" lon="12.165721133043883"><ele>180.5</ele><time>2026-04-02T20:07:19Z</time></trkpt><trkpt lat="45.81993085202931" lon="12.165783913657533"><ele>179.25</ele><time>2026-04-02T20:07:20Z</time></trkpt><trkpt lat="45.82003297735074" lon="12.165863294472224"><ele>178.0</ele><time>2026-04-02T20:07:21Z</time></trkpt><trkpt lat="45.82013552477638" lon="12.165955524091116"><ele>177.0</ele><time>2026-04-02T20:07:22Z</time></trkpt><trkpt lat="45.82025010972351" lon="12.166037711039188"><ele>176.0</ele><time>2026-04-02T20:07:23Z</time></trkpt><trkpt lat="45.82037049344682" lon="12.166109600363658"><ele>175.0</ele><time>2026-04-02T20:07:24Z</time></trkpt><trkpt lat="45.82049101799905" lon="12.166172680707714"><ele>174.0</ele><time>2026-04-02T20:07:25Z</time></trkpt><trkpt lat="45.82073994924198" lon="12.166291562010857"><ele>174.0</ele><time>2026-04-02T20:07:27Z</time></trkpt><trkpt lat="45.82086453431586" lon="12.166339344021761"><ele>174.0</ele><time>2026-04-02T20:07:28Z</time></trkpt><trkpt lat="45.82098953842319" lon="12.166378939683215"><ele>174.0</ele><time>2026-04-02T20:07:29Z</time></trkpt><trkpt lat="45.82110624279208" lon="12.166407319782826"><ele>174.0</ele><time>2026-04-02T20:07:30Z</time></trkpt><trkpt lat="45.82122137357072" lon="12.166436100788921"><ele>175.66666666666666</ele><time>2026-04-02T20:07:31Z</time></trkpt><trkpt lat="45.821334979673956" lon="12.166467347047687"><ele>177.33333333333334</ele><time>2026-04-02T20:07:32Z</time></trkpt><trkpt lat="45.82143094039943" lon="12.166506303306482"><ele>179.0</ele><time>2026-04-02T20:07:33Z</time></trkpt><trkpt lat="45.82149580474985" lon="12.166558156747476"><ele>180.66666666666669</ele><time>2026-04-02T20:07:34Z</time></trkpt><trkpt lat="45.82154944185715" lon="12.16662508933519"><ele>182.33333333333334</ele><time>2026-04-02T20:07:35Z</time></trkpt><trkpt lat="45.82159517563766" lon="12.166701893043"><ele>184.0</ele><time>2026-04-02T20:07:36Z</time></trkpt><trkpt lat="45.821620829983715" lon="12.166798984706984"><ele>184.0</ele><time>2026-04-02T20:07:38Z</time></trkpt><trkpt lat="45.82157746339038" lon="12.166732311504168"><ele>184.0</ele><time>2026-04-02T20:07:44Z</time></trkpt><trkpt lat="45.8215383459111" lon="12.16666138634707"><ele>184.0</ele><time>2026-04-02T20:07:47Z</time></trkpt><trkpt lat="45.8214336014147" lon="12.166529619354172"><ele>184.0</ele><time>2026-04-02T20:07:55Z</time></trkpt><trkpt lat="45.82136648767362" lon="12.166496127377986"><ele>184.0</ele><time>2026-04-02T20:08:00.999Z</time></trkpt><trkpt lat="45.8212941999268" lon="12.166464922420124"><ele>184.0</ele><time>2026-04-02T20:08:05.999Z</time></trkpt><trkpt lat="45.8212223354799" lon="12.16644296254865"><ele>184.0</ele><time>2026-04-02T20:08:08.999Z</time></trkpt><trkpt lat="45.82108733387465" lon="12.16639162408335"><ele>184.0</ele><time>2026-04-02T20:08:17.999Z</time></trkpt><trkpt lat="45.82114387960738" lon="12.166344583634261"><ele>184.0</ele><time>2026-04-02T20:08:21.999Z</time></trkpt><trkpt lat="45.82119432404216" lon="12.166276010957393"><ele>184.0</ele><time>2026-04-02T20:08:23.999Z</time></trkpt><trkpt lat="45.82127637099665" lon="12.166228041562018"><ele>184.0</ele><time>2026-04-02T20:08:25.999Z</time></trkpt><trkpt lat="45.821355692705005" lon="12.166180912162359"><ele>184.0</ele><time>2026-04-02T20:08:27.999Z</time></trkpt><trkpt lat="45.82144837970693" lon="12.166129198730276"><ele>184.0</ele><time>2026-04-02T20:08:29.999Z</time></trkpt><trkpt lat="45.82161987848884" lon="12.165968026743684"><ele>184.0</ele><time>2026-04-02T20:08:33.999Z</time></trkpt><trkpt lat="45.821687599487234" lon="12.165838309577254"><ele>184.0</ele><time>2026-04-02T20:08:35.999Z</time></trkpt><trkpt lat="45.82174862876558" lon="12.165691420424686"><ele>184.0</ele><time>2026-04-02T20:08:37.999Z</time></trkpt><trkpt lat="45.82177310635594" lon="12.165608093951509"><ele>183.71428571428572</ele><time>2026-04-02T20:08:38.999Z</time></trkpt><trkpt lat="45.82178719584864" lon="12.165518677248032"><ele>183.42857142857142</ele><time>2026-04-02T20:08:39.999Z</time></trkpt><trkpt lat="45.82179521575158" lon="12.16542468764347"><ele>183.14285714285714</ele><time>2026-04-02T20:08:40.999Z</time></trkpt><trkpt lat="45.82180742527369" lon="12.1653304940331"><ele>182.85714285714286</ele><time>2026-04-02T20:08:41.999Z</time></trkpt><trkpt lat="45.8218259407874" lon="12.165240149736261"><ele>182.57142857142856</ele><time>2026-04-02T20:08:42.999Z</time></trkpt><trkpt lat="45.821856331920536" lon="12.165140771763593"><ele>182.28571428571428</ele><time>2026-04-02T20:08:43.999Z</time></trkpt><trkpt lat="45.8218891805188" lon="12.165041957175045"><ele>182.0</ele><time>2026-04-02T20:08:44.999Z</time></trkpt><trkpt lat="45.82191670189756" lon="12.164947893848552"><ele>183.0</ele><time>2026-04-02T20:08:45.999Z</time></trkpt><trkpt lat="45.82194058614943" lon="12.164849953109588"><ele>184.0</ele><time>2026-04-02T20:08:46.999Z</time></trkpt><trkpt lat="45.8219605058081" lon="12.16474893680239"><ele>185.0</ele><time>2026-04-02T20:08:47.999Z</time></trkpt><trkpt lat="45.82198212042028" lon="12.164646096901306"><ele>186.0</ele><time>2026-04-02T20:08:48.999Z</time></trkpt><trkpt lat="45.822003600418846" lon="12.164532100485452"><ele>187.0</ele><time>2026-04-02T20:08:49.999Z</time></trkpt><trkpt lat="45.82202319830105" lon="12.164414155836395"><ele>188.0</ele><time>2026-04-02T20:08:50.999Z</time></trkpt><trkpt lat="45.822082772210045" lon="12.164197138933076"><ele>188.0</ele><time>2026-04-02T20:08:52.999Z</time></trkpt><trkpt lat="45.822115723441094" lon="12.164090472810004"><ele>188.0</ele><time>2026-04-02T20:08:53.999Z</time></trkpt><trkpt lat="45.822161083154334" lon="12.163980654219161"><ele>188.0</ele><time>2026-04-02T20:08:54.999Z</time></trkpt><trkpt lat="45.82220495319965" lon="12.16387495508881"><ele>188.0</ele><time>2026-04-02T20:08:55.999Z</time></trkpt><trkpt lat="45.8222469258186" lon="12.163774999952743"><ele>188.0</ele><time>2026-04-02T20:08:56.999Z</time></trkpt><trkpt lat="45.82227748525962" lon="12.163678720925239"><ele>188.0</ele><time>2026-04-02T20:08:57.999Z</time></trkpt><trkpt lat="45.82230681154144" lon="12.163571655635899"><ele>188.16666666666666</ele><time>2026-04-02T20:08:58.999Z</time></trkpt><trkpt lat="45.822329526962086" lon="12.163461542179528"><ele>188.33333333333331</ele><time>2026-04-02T20:08:59.999Z</time></trkpt><trkpt lat="45.82235289234299" lon="12.163356523517093"><ele>188.5</ele><time>2026-04-02T20:09:00.999Z</time></trkpt><trkpt lat="45.822373642847495" lon="12.163255204461509"><ele>188.66666666666666</ele><time>2026-04-02T20:09:01.999Z</time></trkpt><trkpt lat="45.82238720561555" lon="12.163156189107678"><ele>188.83333333333334</ele><time>2026-04-02T20:09:02.999Z</time></trkpt><trkpt lat="45.82239985396059" lon="12.163035036886564"><ele>189.0</ele><time>2026-04-02T20:09:03.999Z</time></trkpt><trkpt lat="45.82240568598508" lon="12.16292078583801"><ele>189.0</ele><time>2026-04-02T20:09:04.999Z</time></trkpt><trkpt lat="45.82240366182084" lon="12.162796753849872"><ele>189.0</ele><time>2026-04-02T20:09:05.999Z</time></trkpt><trkpt lat="45.822403459135415" lon="12.16267684460225"><ele>189.0</ele><time>2026-04-02T20:09:06.999Z</time></trkpt><trkpt lat="45.82240317721192" lon="12.162568415418521"><ele>189.0</ele><time>2026-04-02T20:09:08Z</time></trkpt><trkpt lat="45.822411892341975" lon="12.162458711617521"><ele>189.0</ele><time>2026-04-02T20:09:09Z</time></trkpt><trkpt lat="45.82242000488695" lon="12.16235379496749"><ele>189.0</ele><time>2026-04-02T20:09:10Z</time></trkpt><trkpt lat="45.8224271762831" lon="12.162260220419371"><ele>188.79999999999998</ele><time>2026-04-02T20:09:11Z</time></trkpt><trkpt lat="45.822457864311076" lon="12.162180714289242"><ele>188.6</ele><time>2026-04-02T20:09:12Z</time></trkpt><trkpt lat="45.82263133848353" lon="12.16210791669893"><ele>188.4</ele><time>2026-04-02T20:09:15Z</time></trkpt><trkpt lat="45.8226935790671" lon="12.16209429306608"><ele>188.2</ele><time>2026-04-02T20:09:16Z</time></trkpt><trkpt lat="45.82276555006438" lon="12.162063794297627"><ele>188.0</ele><time>2026-04-02T20:09:17Z</time></trkpt><trkpt lat="45.8228518760186" lon="12.162051730303043"><ele>187.85714285714286</ele><time>2026-04-02T20:09:18Z</time></trkpt><trkpt lat="45.822930341953736" lon="12.162042034118373"><ele>187.71428571428572</ele><time>2026-04-02T20:09:19Z</time></trkpt><trkpt lat="45.82300072466313" lon="12.16203037832502"><ele>187.57142857142856</ele><time>2026-04-02T20:09:20Z</time></trkpt><trkpt lat="45.823072095558445" lon="12.16201121812685"><ele>187.42857142857144</ele><time>2026-04-02T20:09:21Z</time></trkpt><trkpt lat="45.82313947598548" lon="12.161990343197784"><ele>187.2857142857143</ele><time>2026-04-02T20:09:22Z</time></trkpt><trkpt lat="45.82320317487748" lon="12.161939771746644"><ele>187.14285714285714</ele><time>2026-04-02T20:09:23Z</time></trkpt><trkpt lat="45.82326338837392" lon="12.161866604925294"><ele>187.0</ele><time>2026-04-02T20:09:24Z</time></trkpt><trkpt lat="45.82331663761126" lon="12.161785887050863"><ele>187.0</ele><time>2026-04-02T20:09:25Z</time></trkpt><trkpt lat="45.82336049631426" lon="12.161710327598973"><ele>187.0</ele><time>2026-04-02T20:09:26Z</time></trkpt><trkpt lat="45.823386147909815" lon="12.161623003318253"><ele>187.0</ele><time>2026-04-02T20:09:27Z</time></trkpt><trkpt lat="45.823409550055814" lon="12.161511212429815"><ele>187.0</ele><time>2026-04-02T20:09:28Z</time></trkpt><trkpt lat="45.823419800152784" lon="12.161413182836379"><ele>187.0</ele><time>2026-04-02T20:09:29Z</time></trkpt><trkpt lat="45.82342922792215" lon="12.16131051871791"><ele>187.0</ele><time>2026-04-02T20:09:30Z</time></trkpt><trkpt lat="45.82342050439032" lon="12.161122632893454"><ele>186.8</ele><time>2026-04-02T20:09:32Z</time></trkpt><trkpt lat="45.8234127058304" lon="12.161012017689396"><ele>186.6</ele><time>2026-04-02T20:09:33Z</time></trkpt><trkpt lat="45.823413374039006" lon="12.16080020402866"><ele>186.4</ele><time>2026-04-02T20:09:35Z</time></trkpt><trkpt lat="45.82345720340131" lon="12.160624845468913"><ele>186.20000000000002</ele><time>2026-04-02T20:09:37Z</time></trkpt><trkpt lat="45.82347440446547" lon="12.160529920145084"><ele>186.0</ele><time>2026-04-02T20:09:38Z</time></trkpt><trkpt lat="45.82348303560359" lon="12.16042795461081"><ele>186.42857142857144</ele><time>2026-04-02T20:09:39Z</time></trkpt><trkpt lat="45.82347464183665" lon="12.160327662277824"><ele>186.85714285714286</ele><time>2026-04-02T20:09:40Z</time></trkpt><trkpt lat="45.82345929725972" lon="12.160227393950672"><ele>187.28571428571428</ele><time>2026-04-02T20:09:41Z</time></trkpt><trkpt lat="45.823438095945875" lon="12.160121651108135"><ele>187.71428571428572</ele><time>2026-04-02T20:09:42Z</time></trkpt><trkpt lat="45.823408877467735" lon="12.160024847551911"><ele>188.14285714285714</ele><time>2026-04-02T20:09:43Z</time></trkpt><trkpt lat="45.82337660568221" lon="12.159927234006974"><ele>188.57142857142858</ele><time>2026-04-02T20:09:44Z</time></trkpt><trkpt lat="45.82334356195248" lon="12.159826915945755"><ele>189.0</ele><time>2026-04-02T20:09:45Z</time></trkpt><trkpt lat="45.82332053393544" lon="12.159720274589459"><ele>189.0</ele><time>2026-04-02T20:09:46Z</time></trkpt><trkpt lat="45.82330357992557" lon="12.1596154616445"><ele>189.0</ele><time>2026-04-02T20:09:47Z</time></trkpt><trkpt lat="45.82327810397815" lon="12.159518873858115"><ele>189.0</ele><time>2026-04-02T20:09:48Z</time></trkpt><trkpt lat="45.823265570708145" lon="12.159422032584398"><ele>189.0</ele><time>2026-04-02T20:09:49Z</time></trkpt><trkpt lat="45.8232443820915" lon="12.1593336309311"><ele>189.0</ele><time>2026-04-02T20:09:50Z</time></trkpt><trkpt lat="45.823234200065066" lon="12.159236655824277"><ele>189.0</ele><time>2026-04-02T20:09:51Z</time></trkpt><trkpt lat="45.82322937681492" lon="12.159141172714302"><ele>189.0</ele><time>2026-04-02T20:09:52Z</time></trkpt><trkpt lat="45.8232410182811" lon="12.159028906932646"><ele>188.5</ele><time>2026-04-02T20:09:53Z</time></trkpt><trkpt lat="45.82326192376523" lon="12.158935983899205"><ele>188.0</ele><time>2026-04-02T20:09:54Z</time></trkpt><trkpt lat="45.823350793382104" lon="12.15878080100792"><ele>187.5</ele><time>2026-04-02T20:09:56Z</time></trkpt><trkpt lat="45.82341160006777" lon="12.15872784669128"><ele>187.0</ele><time>2026-04-02T20:09:57Z</time></trkpt><trkpt lat="45.82350451920428" lon="12.15869683430229"><ele>186.5</ele><time>2026-04-02T20:09:59Z</time></trkpt><trkpt lat="45.82356488925437" lon="12.15865694905769"><ele>186.0</ele><time>2026-04-02T20:10:01.999Z</time></trkpt><trkpt lat="45.82352402552953" lon="12.158574523946486"><ele>186.0</ele><time>2026-04-02T20:10:04.999Z</time></trkpt><trkpt lat="45.8234377811615" lon="12.15860056510699"><ele>186.0</ele><time>2026-04-02T20:10:06.999Z</time></trkpt><trkpt lat="45.82336965999653" lon="12.158678765489322"><ele>186.0</ele><time>2026-04-02T20:10:08.999Z</time></trkpt><trkpt lat="45.823266057002144" lon="12.158728054596724"><ele>186.0</ele><time>2026-04-02T20:10:10.999Z</time></trkpt><trkpt lat="45.82320220730701" lon="12.158750735142963"><ele>186.0</ele><time>2026-04-02T20:10:11.999Z</time></trkpt><trkpt lat="45.82313598794294" lon="12.158762560675406"><ele>186.0</ele><time>2026-04-02T20:10:12.999Z</time></trkpt><trkpt lat="45.82306893293821" lon="12.158763193334808"><ele>186.0</ele><time>2026-04-02T20:10:13.999Z</time></trkpt><trkpt lat="45.82299805910421" lon="12.158746854983127"><ele>186.0</ele><time>2026-04-02T20:10:14.999Z</time></trkpt><trkpt lat="45.82284522612777" lon="12.158674766559459"><ele>186.0</ele><time>2026-04-02T20:10:16.999Z</time></trkpt><trkpt lat="45.82276629569044" lon="12.158627744129939"><ele>186.0</ele><time>2026-04-02T20:10:17.999Z</time></trkpt><trkpt lat="45.82269811029817" lon="12.158588573743952"><ele>186.0</ele><time>2026-04-02T20:10:18.999Z</time></trkpt><trkpt lat="45.82263196877956" lon="12.158553379644847"><ele>186.83333333333334</ele><time>2026-04-02T20:10:19.999Z</time></trkpt><trkpt lat="45.82255801345294" lon="12.158532341870808"><ele>187.66666666666666</ele><time>2026-04-02T20:10:20.999Z</time></trkpt><trkpt lat="45.822476534071384" lon="12.158524562426736"><ele>188.5</ele><time>2026-04-02T20:10:21.999Z</time></trkpt><trkpt lat="45.8223926238729" lon="12.158532985115233"><ele>189.33333333333331</ele><time>2026-04-02T20:10:22.999Z</time></trkpt><trkpt lat="45.82230724819242" lon="12.158549021368755"><ele>190.16666666666666</ele><time>2026-04-02T20:10:23.998Z</time></trkpt><trkpt lat="45.8222194509044" lon="12.158551545130802"><ele>191.0</ele><time>2026-04-02T20:10:24.998Z</time></trkpt><trkpt lat="45.82212545771284" lon="12.158557364990195"><ele>191.0</ele><time>2026-04-02T20:10:25.998Z</time></trkpt><trkpt lat="45.82201688284649" lon="12.158566743978458"><ele>191.0</ele><time>2026-04-02T20:10:26.998Z</time></trkpt><trkpt lat="45.82191439382758" lon="12.158570412067329"><ele>191.0</ele><time>2026-04-02T20:10:27.998Z</time></trkpt><trkpt lat="45.821828285043736" lon="12.15856622550889"><ele>191.0</ele><time>2026-04-02T20:10:28.998Z</time></trkpt><trkpt lat="45.82174737283559" lon="12.15857386421536"><ele>191.0</ele><time>2026-04-02T20:10:29.998Z</time></trkpt><trkpt lat="45.82169811739259" lon="12.1584984976604"><ele>193.0</ele><time>2026-04-02T20:10:31.998Z</time></trkpt><trkpt lat="45.821770091187645" lon="12.158520931045976"><ele>195.0</ele><time>2026-04-02T20:10:38.998Z</time></trkpt><trkpt lat="45.82171716753798" lon="12.158741702085784"><ele>197.0</ele><time>2026-04-02T20:10:51.998Z</time></trkpt><trkpt lat="45.82164255115857" lon="12.158886211898263"><ele>199.0</ele><time>2026-04-02T20:10:53.998Z</time></trkpt><trkpt lat="45.82158026808421" lon="12.159019021354613"><ele>198.75</ele><time>2026-04-02T20:10:55.998Z</time></trkpt><trkpt lat="45.821546238838586" lon="12.159180162250726"><ele>198.5</ele><time>2026-04-02T20:10:57.998Z</time></trkpt><trkpt lat="45.82151947981827" lon="12.15932609977867"><ele>198.25</ele><time>2026-04-02T20:10:59.998Z</time></trkpt><trkpt lat="45.82139872878007" lon="12.15953108179737"><ele>198.0</ele><time>2026-04-02T20:11:02.998Z</time></trkpt><trkpt lat="45.821347469039935" lon="12.159600021882406"><ele>198.0</ele><time>2026-04-02T20:11:03.998Z</time></trkpt><trkpt lat="45.82129650892241" lon="12.159662963330858"><ele>198.0</ele><time>2026-04-02T20:11:04.998Z</time></trkpt><trkpt lat="45.821194636807284" lon="12.159770929251245"><ele>198.0</ele><time>2026-04-02T20:11:06.998Z</time></trkpt><trkpt lat="45.82114148268897" lon="12.159824127605953"><ele>198.0</ele><time>2026-04-02T20:11:07.998Z</time></trkpt><trkpt lat="45.821044003821896" lon="12.159920414089404"><ele>198.0</ele><time>2026-04-02T20:11:09.998Z</time></trkpt><trkpt lat="45.82095168209098" lon="12.159983097611798"><ele>196.75</ele><time>2026-04-02T20:11:11.998Z</time></trkpt><trkpt lat="45.82083750198542" lon="12.16001894952625"><ele>195.5</ele><time>2026-04-02T20:11:13.999Z</time></trkpt><trkpt lat="45.82071585393955" lon="12.160038492109706"><ele>194.25</ele><time>2026-04-02T20:11:15.999Z</time></trkpt><trkpt lat="45.82059753707759" lon="12.160047993763389"><ele>193.0</ele><time>2026-04-02T20:11:17.999Z</time></trkpt><trkpt lat="45.820484506499426" lon="12.16006391603267"><ele>193.0</ele><time>2026-04-02T20:11:19.999Z</time></trkpt><trkpt lat="45.82037498953395" lon="12.160087205769699"><ele>193.0</ele><time>2026-04-02T20:11:21.999Z</time></trkpt><trkpt lat="45.82014729857205" lon="12.16005504781196"><ele>193.0</ele><time>2026-04-02T20:11:25.999Z</time></trkpt><trkpt lat="45.820090617076175" lon="12.159998236045618"><ele>193.0</ele><time>2026-04-02T20:11:26.999Z</time></trkpt><trkpt lat="45.8200389312291" lon="12.159942054617904"><ele>192.83333333333331</ele><time>2026-04-02T20:11:27.999Z</time></trkpt><trkpt lat="45.81998025907454" lon="12.159904130427037"><ele>192.66666666666666</ele><time>2026-04-02T20:11:28.999Z</time></trkpt><trkpt lat="45.819858960079856" lon="12.159872753502672"><ele>192.5</ele><time>2026-04-02T20:11:30.999Z</time></trkpt><trkpt lat="45.8197896195702" lon="12.159882204225832"><ele>192.33333333333331</ele><time>2026-04-02T20:11:31.999Z</time></trkpt><trkpt lat="45.81971857981666" lon="12.159895895669743"><ele>192.16666666666666</ele><time>2026-04-02T20:11:32.999Z</time></trkpt><trkpt lat="45.81965046910504" lon="12.159916574915378"><ele>192.0</ele><time>2026-04-02T20:11:33.999Z</time></trkpt><trkpt lat="45.81958956529274" lon="12.15994219063241"><ele>192.0</ele><time>2026-04-02T20:11:34.999Z</time></trkpt><trkpt lat="45.819526810831654" lon="12.159972540705517"><ele>192.0</ele><time>2026-04-02T20:11:35.999Z</time></trkpt><trkpt lat="45.81940307802704" lon="12.160004520994304"><ele>192.0</ele><time>2026-04-02T20:11:37.999Z</time></trkpt><trkpt lat="45.81933871174095" lon="12.159970547657442"><ele>192.0</ele><time>2026-04-02T20:11:38.999Z</time></trkpt><trkpt lat="45.81928294336332" lon="12.159904818357745"><ele>192.0</ele><time>2026-04-02T20:11:39.999Z</time></trkpt><trkpt lat="45.81923600060366" lon="12.159822240042015"><ele>192.0</ele><time>2026-04-02T20:11:40.999Z</time></trkpt><trkpt lat="45.819185647671276" lon="12.159752891659016"><ele>193.0</ele><time>2026-04-02T20:11:41.999Z</time></trkpt><trkpt lat="45.81905191917132" lon="12.159712477208227"><ele>194.0</ele><time>2026-04-02T20:11:43.999Z</time></trkpt><trkpt lat="45.8188883981169" lon="12.15974277168122"><ele>195.0</ele><time>2026-04-02T20:11:45.999Z</time></trkpt><trkpt lat="45.81880228712504" lon="12.15978592979063"><ele>196.0</ele><time>2026-04-02T20:11:46.999Z</time></trkpt><trkpt lat="45.81872279646419" lon="12.159827792674688"><ele>195.20000000000002</ele><time>2026-04-02T20:11:47.999Z</time></trkpt><trkpt lat="45.81864836117814" lon="12.159887198546484"><ele>194.4</ele><time>2026-04-02T20:11:48.999Z</time></trkpt><trkpt lat="45.818578575007386" lon="12.159979330473746"><ele>193.6</ele><time>2026-04-02T20:11:49.999Z</time></trkpt><trkpt lat="45.81850893719467" lon="12.160086146756605"><ele>192.8</ele><time>2026-04-02T20:11:50.999Z</time></trkpt><trkpt lat="45.818439683851146" lon="12.160203794356116"><ele>192.0</ele><time>2026-04-02T20:11:51.999Z</time></trkpt><trkpt lat="45.818365434496286" lon="12.160325159796852"><ele>192.0</ele><time>2026-04-02T20:11:52.999Z</time></trkpt><trkpt lat="45.81829800676004" lon="12.16042975940022"><ele>192.0</ele><time>2026-04-02T20:11:53.999Z</time></trkpt><trkpt lat="45.818232635418994" lon="12.160526608144357"><ele>192.0</ele><time>2026-04-02T20:11:54.999Z</time></trkpt><trkpt lat="45.818183163524665" lon="12.16061504462549"><ele>192.0</ele><time>2026-04-02T20:11:55.999Z</time></trkpt><trkpt lat="45.81813716417121" lon="12.160691377241179"><ele>192.0</ele><time>2026-04-02T20:11:56.999Z</time></trkpt><trkpt lat="45.81809352168531" lon="12.160759407281866"><ele>192.0</ele><time>2026-04-02T20:11:57.999Z</time></trkpt><trkpt lat="45.81798914971267" lon="12.16078639166856"><ele>192.0</ele><time>2026-04-02T20:11:59.999Z</time></trkpt><trkpt lat="45.817923735285" lon="12.160743200340349"><ele>192.0</ele><time>2026-04-02T20:12:00.999Z</time></trkpt><trkpt lat="45.81786233259683" lon="12.16067945169019"><ele>192.0</ele><time>2026-04-02T20:12:01.999Z</time></trkpt><trkpt lat="45.81782015543538" lon="12.160606548822663"><ele>192.0</ele><time>2026-04-02T20:12:02.999Z</time></trkpt><trkpt lat="45.81777095574811" lon="12.160533737043338"><ele>192.0</ele><time>2026-04-02T20:12:03.999Z</time></trkpt><trkpt lat="45.81763697006105" lon="12.160519730271497"><ele>192.0</ele><time>2026-04-02T20:12:05.999Z</time></trkpt><trkpt lat="45.817465187129606" lon="12.160528460087892"><ele>190.39999999999998</ele><time>2026-04-02T20:12:07.999Z</time></trkpt><trkpt lat="45.81737318757086" lon="12.160542179686438"><ele>188.79999999999998</ele><time>2026-04-02T20:12:08.999Z</time></trkpt><trkpt lat="45.81728005621434" lon="12.160547347268187"><ele>187.2</ele><time>2026-04-02T20:12:09.999Z</time></trkpt><trkpt lat="45.81719178607344" lon="12.160546870151826"><ele>185.6</ele><time>2026-04-02T20:12:10.999Z</time></trkpt><trkpt lat="45.81709789174865" lon="12.160540217783668"><ele>184.0</ele><time>2026-04-02T20:12:11.999Z</time></trkpt><trkpt lat="45.81701084514693" lon="12.160522919344475"><ele>184.0</ele><time>2026-04-02T20:12:12.999Z</time></trkpt><trkpt lat="45.81693076126498" lon="12.160492863723428"><ele>184.0</ele><time>2026-04-02T20:12:13.999Z</time></trkpt><trkpt lat="45.816864774621585" lon="12.16042993900131"><ele>184.0</ele><time>2026-04-02T20:12:14.999Z</time></trkpt><trkpt lat="45.81680864609836" lon="12.160339306126534"><ele>184.0</ele><time>2026-04-02T20:12:15.999Z</time></trkpt><trkpt lat="45.816762028900676" lon="12.160235682922849"><ele>184.0</ele><time>2026-04-02T20:12:16.999Z</time></trkpt><trkpt lat="45.816672429391915" lon="12.16011435171788"><ele>183.33333333333334</ele><time>2026-04-02T20:12:18.999Z</time></trkpt><trkpt lat="45.81660048367671" lon="12.16002820720954"><ele>182.66666666666669</ele><time>2026-04-02T20:12:19.999Z</time></trkpt><trkpt lat="45.81652361694831" lon="12.159983602246426"><ele>182.0</ele><time>2026-04-02T20:12:20.999Z</time></trkpt><trkpt lat="45.81644215718512" lon="12.1599746666604"><ele>181.33333333333334</ele><time>2026-04-02T20:12:21.999Z</time></trkpt><trkpt lat="45.81636578636127" lon="12.160035520760207"><ele>180.66666666666666</ele><time>2026-04-02T20:12:22.999Z</time></trkpt><trkpt lat="45.81627697855412" lon="12.16004059671188"><ele>180.0</ele><time>2026-04-02T20:12:23.999Z</time></trkpt><trkpt lat="45.81619202111141" lon="12.16007258890486"><ele>180.0</ele><time>2026-04-02T20:12:24.999Z</time></trkpt><trkpt lat="45.8161088690328" lon="12.160081649682223"><ele>180.0</ele><time>2026-04-02T20:12:25.999Z</time></trkpt><trkpt lat="45.816023193382726" lon="12.16008231100565"><ele>180.0</ele><time>2026-04-02T20:12:26.999Z</time></trkpt><trkpt lat="45.81585516144161" lon="12.160068707574627"><ele>180.0</ele><time>2026-04-02T20:12:28.999Z</time></trkpt><trkpt lat="45.815769452200186" lon="12.16008101988743"><ele>180.0</ele><time>2026-04-02T20:12:29.999Z</time></trkpt><trkpt lat="45.815685440793054" lon="12.160101435949576"><ele>179.66666666666666</ele><time>2026-04-02T20:12:30.999Z</time></trkpt><trkpt lat="45.81560383930476" lon="12.160124073046905"><ele>179.33333333333334</ele><time>2026-04-02T20:12:31.999Z</time></trkpt><trkpt lat="45.815523164581414" lon="12.160168976311251"><ele>179.0</ele><time>2026-04-02T20:12:32.999Z</time></trkpt><trkpt lat="45.81544015315111" lon="12.16018766724925"><ele>178.66666666666669</ele><time>2026-04-02T20:12:33.999Z</time></trkpt><trkpt lat="45.8153501582167" lon="12.160226271161422"><ele>178.33333333333334</ele><time>2026-04-02T20:12:34.999Z</time></trkpt><trkpt lat="45.815265729567045" lon="12.160288491235837"><ele>178.0</ele><time>2026-04-02T20:12:35.999Z</time></trkpt><trkpt lat="45.815183284065924" lon="12.160357035610398"><ele>178.33333333333334</ele><time>2026-04-02T20:12:36.999Z</time></trkpt><trkpt lat="45.81510533041945" lon="12.16042252527319"><ele>178.66666666666669</ele><time>2026-04-02T20:12:37.999Z</time></trkpt><trkpt lat="45.8150380986933" lon="12.160476718687796"><ele>179.0</ele><time>2026-04-02T20:12:38.999Z</time></trkpt><trkpt lat="45.81497004998792" lon="12.160466949208125"><ele>179.33333333333334</ele><time>2026-04-02T20:12:39.999Z</time></trkpt><trkpt lat="45.814890067312184" lon="12.160358597630472"><ele>179.66666666666666</ele><time>2026-04-02T20:12:41.999Z</time></trkpt><trkpt lat="45.81482740993029" lon="12.160291434673363"><ele>180.0</ele><time>2026-04-02T20:12:42.999Z</time></trkpt><trkpt lat="45.81475440542788" lon="12.160226635253792"><ele>180.0</ele><time>2026-04-02T20:12:43.998Z</time></trkpt><trkpt lat="45.814689172407235" lon="12.160156498486709"><ele>180.0</ele><time>2026-04-02T20:12:44.998Z</time></trkpt><trkpt lat="45.814616141372944" lon="12.16010255432321"><ele>180.0</ele><time>2026-04-02T20:12:45.998Z</time></trkpt><trkpt lat="45.814542804278055" lon="12.160052730544146"><ele>180.0</ele><time>2026-04-02T20:12:46.998Z</time></trkpt><trkpt lat="45.814470911286044" lon="12.160003043169699"><ele>180.0</ele><time>2026-04-02T20:12:47.998Z</time></trkpt><trkpt lat="45.81432096984587" lon="12.1599833867655"><ele>178.66666666666666</ele><time>2026-04-02T20:12:49.998Z</time></trkpt><trkpt lat="45.814244524569716" lon="12.160008784412396"><ele>177.33333333333334</ele><time>2026-04-02T20:12:50.998Z</time></trkpt><trkpt lat="45.8141678504366" lon="12.160045196807456"><ele>176.0</ele><time>2026-04-02T20:12:51.998Z</time></trkpt><trkpt lat="45.814085995536495" lon="12.160096522853827"><ele>174.66666666666669</ele><time>2026-04-02T20:12:52.998Z</time></trkpt><trkpt lat="45.81400902216419" lon="12.160146079163287"><ele>173.33333333333334</ele><time>2026-04-02T20:12:53.998Z</time></trkpt><trkpt lat="45.81392841623229" lon="12.160153076603734"><ele>172.0</ele><time>2026-04-02T20:12:54.998Z</time></trkpt><trkpt lat="45.813857914057046" lon="12.160169963838925"><ele>172.0</ele><time>2026-04-02T20:12:55.998Z</time></trkpt><trkpt lat="45.81376637081656" lon="12.160162807414348"><ele>172.0</ele><time>2026-04-02T20:12:57.998Z</time></trkpt><trkpt lat="45.81376993323225" lon="12.160052272232292"><ele>172.0</ele><time>2026-04-02T20:12:59.998Z</time></trkpt><trkpt lat="45.81378750216543" lon="12.15994197156924"><ele>172.0</ele><time>2026-04-02T20:13:01.998Z</time></trkpt><trkpt lat="45.81385586908059" lon="12.1598046678157"><ele>172.0</ele><time>2026-04-02T20:13:03.998Z</time></trkpt><trkpt lat="45.81391093536208" lon="12.15973865787058"><ele>172.0</ele><time>2026-04-02T20:13:04.998Z</time></trkpt><trkpt lat="45.81397567916439" lon="12.159654040540016"><ele>173.25</ele><time>2026-04-02T20:13:05.998Z</time></trkpt><trkpt lat="45.81403330328245" lon="12.159554059016353"><ele>174.5</ele><time>2026-04-02T20:13:06.998Z</time></trkpt><trkpt lat="45.81408677685478" lon="12.159459529317083"><ele>175.75</ele><time>2026-04-02T20:13:07.998Z</time></trkpt><trkpt lat="45.81413876558016" lon="12.159346287094065"><ele>177.0</ele><time>2026-04-02T20:13:08.998Z</time></trkpt><trkpt lat="45.81420406651204" lon="12.159070183480399"><ele>177.2</ele><time>2026-04-02T20:13:10.998Z</time></trkpt><trkpt lat="45.81424141517089" lon="12.158933967257195"><ele>177.39999999999998</ele><time>2026-04-02T20:13:11.998Z</time></trkpt><trkpt lat="45.81427511676493" lon="12.158804507788266"><ele>177.60000000000002</ele><time>2026-04-02T20:13:12.998Z</time></trkpt><trkpt lat="45.81431125028799" lon="12.158675786215515"><ele>177.8</ele><time>2026-04-02T20:13:13.998Z</time></trkpt><trkpt lat="45.81434771232001" lon="12.15855014697637"><ele>178.0</ele><time>2026-04-02T20:13:14.998Z</time></trkpt><trkpt lat="45.8143832733451" lon="12.158426590147043"><ele>178.0</ele><time>2026-04-02T20:13:15.998Z</time></trkpt><trkpt lat="45.814420811422146" lon="12.158310911333778"><ele>178.0</ele><time>2026-04-02T20:13:16.998Z</time></trkpt><trkpt lat="45.814454900058955" lon="12.158190638426355"><ele>178.0</ele><time>2026-04-02T20:13:17.998Z</time></trkpt><trkpt lat="45.81448463519991" lon="12.158072414404918"><ele>178.0</ele><time>2026-04-02T20:13:18.998Z</time></trkpt><trkpt lat="45.81450236847777" lon="12.157945347481014"><ele>178.0</ele><time>2026-04-02T20:13:20Z</time></trkpt><trkpt lat="45.81450615517222" lon="12.157802937198348"><ele>178.4</ele><time>2026-04-02T20:13:21Z</time></trkpt><trkpt lat="45.81446478822202" lon="12.15767901131618"><ele>178.8</ele><time>2026-04-02T20:13:22Z</time></trkpt><trkpt lat="45.81440380815431" lon="12.157582434884896"><ele>179.2</ele><time>2026-04-02T20:13:23Z</time></trkpt><trkpt lat="45.81433806469942" lon="12.157479938139621"><ele>179.6</ele><time>2026-04-02T20:13:24Z</time></trkpt><trkpt lat="45.814257493578964" lon="12.157395598956747"><ele>180.0</ele><time>2026-04-02T20:13:25Z</time></trkpt><trkpt lat="45.81416465305708" lon="12.157315453894448"><ele>180.0</ele><time>2026-04-02T20:13:26Z</time></trkpt><trkpt lat="45.81406215449807" lon="12.157261914368423"><ele>180.0</ele><time>2026-04-02T20:13:27Z</time></trkpt><trkpt lat="45.813987303414414" lon="12.157164085923286"><ele>180.0</ele><time>2026-04-02T20:13:28Z</time></trkpt><trkpt lat="45.81392058717286" lon="12.15707190484085"><ele>180.0</ele><time>2026-04-02T20:13:29Z</time></trkpt><trkpt lat="45.813862443689025" lon="12.156970731152967"><ele>180.0</ele><time>2026-04-02T20:13:30Z</time></trkpt><trkpt lat="45.813709795939886" lon="12.15669722384959"><ele>180.0</ele><time>2026-04-02T20:13:33Z</time></trkpt><trkpt lat="45.81366248181151" lon="12.156633037609573"><ele>180.0</ele><time>2026-04-02T20:13:34Z</time></trkpt><trkpt lat="45.81360398410171" lon="12.156580410747287"><ele>180.0</ele><time>2026-04-02T20:13:35Z</time></trkpt><trkpt lat="45.81353991406166" lon="12.15655520671667"><ele>180.0</ele><time>2026-04-02T20:13:36Z</time></trkpt><trkpt lat="45.81346013650251" lon="12.156516061857356"><ele>180.0</ele><time>2026-04-02T20:13:37Z</time></trkpt><trkpt lat="45.81336926137553" lon="12.156544953917546"><ele>180.0</ele><time>2026-04-02T20:13:38Z</time></trkpt><trkpt lat="45.813295933810274" lon="12.156498127829382"><ele>180.16666666666666</ele><time>2026-04-02T20:13:39Z</time></trkpt><trkpt lat="45.81322977957448" lon="12.156467733223826"><ele>180.33333333333334</ele><time>2026-04-02T20:13:40Z</time></trkpt><trkpt lat="45.813170361245476" lon="12.156412800106226"><ele>180.5</ele><time>2026-04-02T20:13:41Z</time></trkpt><trkpt lat="45.81311733632633" lon="12.156326655711071"><ele>180.66666666666669</ele><time>2026-04-02T20:13:42Z</time></trkpt><trkpt lat="45.81309168746068" lon="12.156210071274536"><ele>180.83333333333334</ele><time>2026-04-02T20:13:43Z</time></trkpt><trkpt lat="45.8130890318646" lon="12.156090200548167"><ele>181.0</ele><time>2026-04-02T20:13:44Z</time></trkpt><trkpt lat="45.81307870825638" lon="12.15594110990906"><ele>181.0</ele><time>2026-04-02T20:13:45Z</time></trkpt><trkpt lat="45.81308110355187" lon="12.15579246771858"><ele>181.0</ele><time>2026-04-02T20:13:46Z</time></trkpt><trkpt lat="45.813092570710126" lon="12.155631701680946"><ele>181.0</ele><time>2026-04-02T20:13:47Z</time></trkpt><trkpt lat="45.81310522065257" lon="12.155475971866254"><ele>181.0</ele><time>2026-04-02T20:13:48Z</time></trkpt><trkpt lat="45.81311524474738" lon="12.155337780578202"><ele>181.0</ele><time>2026-04-02T20:13:48.999Z</time></trkpt><trkpt lat="45.813104212258" lon="12.155210207204757"><ele>181.5</ele><time>2026-04-02T20:13:49.999Z</time></trkpt><trkpt lat="45.813110694310794" lon="12.155091266671418"><ele>182.0</ele><time>2026-04-02T20:13:50.999Z</time></trkpt><trkpt lat="45.813055277255025" lon="12.154853555155013"><ele>182.5</ele><time>2026-04-02T20:13:52.999Z</time></trkpt><trkpt lat="45.812990136041726" lon="12.154741607603052"><ele>183.0</ele><time>2026-04-02T20:13:53.999Z</time></trkpt><trkpt lat="45.81291106849512" lon="12.154648321981616"><ele>183.8</ele><time>2026-04-02T20:13:54.999Z</time></trkpt><trkpt lat="45.812856126797115" lon="12.154535700456425"><ele>184.60000000000002</ele><time>2026-04-02T20:13:55.999Z</time></trkpt><trkpt lat="45.81281788423652" lon="12.154428900474457"><ele>185.39999999999998</ele><time>2026-04-02T20:13:56.999Z</time></trkpt><trkpt lat="45.81280530074926" lon="12.154302052133275"><ele>186.2</ele><time>2026-04-02T20:13:57.999Z</time></trkpt><trkpt lat="45.812802396056256" lon="12.154155046423906"><ele>187.0</ele><time>2026-04-02T20:13:58.999Z</time></trkpt><trkpt lat="45.81280579304762" lon="12.154000351556132"><ele>187.8</ele><time>2026-04-02T20:13:59.999Z</time></trkpt><trkpt lat="45.81280882648177" lon="12.153841997834732"><ele>188.6</ele><time>2026-04-02T20:14:00.999Z</time></trkpt><trkpt lat="45.812814560124224" lon="12.153698783686782"><ele>189.4</ele><time>2026-04-02T20:14:01.999Z</time></trkpt><trkpt lat="45.81282916878252" lon="12.153566470518106"><ele>190.20000000000002</ele><time>2026-04-02T20:14:02.999Z</time></trkpt><trkpt lat="45.8128493527566" lon="12.15343109333689"><ele>191.0</ele><time>2026-04-02T20:14:03.999Z</time></trkpt><trkpt lat="45.81288177472164" lon="12.153293243700515"><ele>191.5</ele><time>2026-04-02T20:14:04.999Z</time></trkpt><trkpt lat="45.81291173308272" lon="12.153139137612229"><ele>192.0</ele><time>2026-04-02T20:14:05.999Z</time></trkpt><trkpt lat="45.812963416415926" lon="12.15302031324898"><ele>192.5</ele><time>2026-04-02T20:14:06.999Z</time></trkpt><trkpt lat="45.81300428011717" lon="12.152919861095716"><ele>193.0</ele><time>2026-04-02T20:14:07.999Z</time></trkpt><trkpt lat="45.81302351795952" lon="12.152829175146614"><ele>193.50000000000003</ele><time>2026-04-02T20:14:08.999Z</time></trkpt><trkpt lat="45.81307098124571" lon="12.152750180567397"><ele>194.0</ele><time>2026-04-02T20:14:11.999Z</time></trkpt><trkpt lat="45.8132082845454" lon="12.153000174124388"><ele>194.00000000000003</ele><time>2026-04-02T20:14:16.999Z</time></trkpt><trkpt lat="45.813274261638114" lon="12.153068460025029"><ele>194.0</ele><time>2026-04-02T20:14:17.999Z</time></trkpt><trkpt lat="45.81333141444301" lon="12.153161819145033"><ele>194.0</ele><time>2026-04-02T20:14:18.999Z</time></trkpt><trkpt lat="45.81339663643308" lon="12.153258297341928"><ele>194.0</ele><time>2026-04-02T20:14:19.999Z</time></trkpt><trkpt lat="45.813448842185586" lon="12.153349074975827"><ele>194.00000000000003</ele><time>2026-04-02T20:14:20.999Z</time></trkpt><trkpt lat="45.813498029189354" lon="12.15345583768688"><ele>194.0</ele><time>2026-04-02T20:14:21.999Z</time></trkpt><trkpt lat="45.8135516551492" lon="12.153561179672868"><ele>194.79999999999998</ele><time>2026-04-02T20:14:22.999Z</time></trkpt><trkpt lat="45.81362634574383" lon="12.15361235338473"><ele>195.6</ele><time>2026-04-02T20:14:23.999Z</time></trkpt><trkpt lat="45.81374660575172" lon="12.15363490374938"><ele>196.4</ele><time>2026-04-02T20:14:25.999Z</time></trkpt><trkpt lat="45.8138159495185" lon="12.153619599578356"><ele>197.2</ele><time>2026-04-02T20:14:26.999Z</time></trkpt><trkpt lat="45.81389793334617" lon="12.153557127774958"><ele>198.0</ele><time>2026-04-02T20:14:27.999Z</time></trkpt><trkpt lat="45.81399346060911" lon="12.153503055672243"><ele>198.0</ele><time>2026-04-02T20:14:28.999Z</time></trkpt><trkpt lat="45.81409653198759" lon="12.153452495846643"><ele>198.0</ele><time>2026-04-02T20:14:29.999Z</time></trkpt><trkpt lat="45.814205263330585" lon="12.153401188485754"><ele>198.0</ele><time>2026-04-02T20:14:30.999Z</time></trkpt><trkpt lat="45.814292636048194" lon="12.15332170270969"><ele>198.0</ele><time>2026-04-02T20:14:31.999Z</time></trkpt><trkpt lat="45.814371077163656" lon="12.153242531856424"><ele>198.0</ele><time>2026-04-02T20:14:32.999Z</time></trkpt><trkpt lat="45.814539085119726" lon="12.153080890169461"><ele>197.4</ele><time>2026-04-02T20:14:34.999Z</time></trkpt><trkpt lat="45.814608718521995" lon="12.152982487273247"><ele>196.8</ele><time>2026-04-02T20:14:35.999Z</time></trkpt><trkpt lat="45.81470002170454" lon="12.152932112211102"><ele>196.2</ele><time>2026-04-02T20:14:36.999Z</time></trkpt><trkpt lat="45.81479315449349" lon="12.152918244649225"><ele>195.6</ele><time>2026-04-02T20:14:37.999Z</time></trkpt><trkpt lat="45.81488709982576" lon="12.152951093226966"><ele>195.0</ele><time>2026-04-02T20:14:38.999Z</time></trkpt><trkpt lat="45.81499223915985" lon="12.152995960453197"><ele>195.0</ele><time>2026-04-02T20:14:39.999Z</time></trkpt><trkpt lat="45.81509843584907" lon="12.153036835847296"><ele>195.0</ele><time>2026-04-02T20:14:40.999Z</time></trkpt><trkpt lat="45.81520223382445" lon="12.15306100232153"><ele>195.0</ele><time>2026-04-02T20:14:41.999Z</time></trkpt><trkpt lat="45.815310758930934" lon="12.153062400334361"><ele>195.0</ele><time>2026-04-02T20:14:42.999Z</time></trkpt><trkpt lat="45.81541308163669" lon="12.153077884384132"><ele>195.0</ele><time>2026-04-02T20:14:43.999Z</time></trkpt><trkpt lat="45.815510497892774" lon="12.153045154488433"><ele>195.0</ele><time>2026-04-02T20:14:44.999Z</time></trkpt><trkpt lat="45.815612824054924" lon="12.15302949589258"><ele>195.0</ele><time>2026-04-02T20:14:45.999Z</time></trkpt><trkpt lat="45.81571792737233" lon="12.15304034632389"><ele>195.0</ele><time>2026-04-02T20:14:46.999Z</time></trkpt><trkpt lat="45.8158120581974" lon="12.153060838394577"><ele>195.0</ele><time>2026-04-02T20:14:47.999Z</time></trkpt><trkpt lat="45.81590627690333" lon="12.15307786569096"><ele>195.0</ele><time>2026-04-02T20:14:48.999Z</time></trkpt><trkpt lat="45.815990012318224" lon="12.153103049967163"><ele>195.0</ele><time>2026-04-02T20:14:49.999Z</time></trkpt><trkpt lat="45.81607155662039" lon="12.153130404688863"><ele>195.0</ele><time>2026-04-02T20:14:50.999Z</time></trkpt><trkpt lat="45.816150551688736" lon="12.153108700987223"><ele>195.0</ele><time>2026-04-02T20:14:51.999Z</time></trkpt><trkpt lat="45.816211221761044" lon="12.153068996412939"><ele>195.0</ele><time>2026-04-02T20:14:52.999Z</time></trkpt><trkpt lat="45.816269545777345" lon="12.153032221703548"><ele>195.0</ele><time>2026-04-02T20:14:53.999Z</time></trkpt><trkpt lat="45.81631859805768" lon="12.152833577545037"><ele>195.0</ele><time>2026-04-02T20:14:55.999Z</time></trkpt><trkpt lat="45.816348684914665" lon="12.152720586220028"><ele>195.0</ele><time>2026-04-02T20:14:56.999Z</time></trkpt><trkpt lat="45.81636530699176" lon="12.152604984136431"><ele>195.0</ele><time>2026-04-02T20:14:57.999Z</time></trkpt><trkpt lat="45.816405790551656" lon="12.15244767229909"><ele>195.0</ele><time>2026-04-02T20:14:59.999Z</time></trkpt><trkpt lat="45.81645324355915" lon="12.152324977138223"><ele>195.0</ele><time>2026-04-02T20:15:01.999Z</time></trkpt><trkpt lat="45.816350570839774" lon="12.152177044637495"><ele>195.0</ele><time>2026-04-02T20:15:06.999Z</time></trkpt><trkpt lat="45.816258334575124" lon="12.152184757684212"><ele>195.5</ele><time>2026-04-02T20:15:08.999Z</time></trkpt><trkpt lat="45.81613163212113" lon="12.152225057498049"><ele>196.0</ele><time>2026-04-02T20:15:10.999Z</time></trkpt><trkpt lat="45.816060544895116" lon="12.152249714300247"><ele>196.5</ele><time>2026-04-02T20:15:11.999Z</time></trkpt><trkpt lat="45.81598917309608" lon="12.152264510200467"><ele>197.0</ele><time>2026-04-02T20:15:12.999Z</time></trkpt><trkpt lat="45.815915832471546" lon="12.152276835839144"><ele>197.5</ele><time>2026-04-02T20:15:13.999Z</time></trkpt><trkpt lat="45.81584934606037" lon="12.152283044752991"><ele>198.0</ele><time>2026-04-02T20:15:14.998Z</time></trkpt><trkpt lat="45.815488320873364" lon="12.151662503645833"><ele>198.16666666666666</ele><time>2026-04-02T20:15:52Z</time></trkpt><trkpt lat="45.815505153521265" lon="12.151522312812281"><ele>198.33333333333331</ele><time>2026-04-02T20:15:54Z</time></trkpt><trkpt lat="45.81552988750763" lon="12.151431545636752"><ele>198.5</ele><time>2026-04-02T20:15:55Z</time></trkpt><trkpt lat="45.815570318836855" lon="12.151338877425571"><ele>198.66666666666666</ele><time>2026-04-02T20:15:56Z</time></trkpt><trkpt lat="45.815674585389246" lon="12.151279388420376"><ele>198.83333333333331</ele><time>2026-04-02T20:15:57Z</time></trkpt><trkpt lat="45.81569815664437" lon="12.151170364723214"><ele>199.0</ele><time>2026-04-02T20:15:58Z</time></trkpt><trkpt lat="45.8157091971618" lon="12.151049086669733"><ele>198.99999999999997</ele><time>2026-04-02T20:15:59Z</time></trkpt><trkpt lat="45.81569958813715" lon="12.150926285958114"><ele>199.0</ele><time>2026-04-02T20:16:00Z</time></trkpt><trkpt lat="45.815673761489634" lon="12.150807711619255"><ele>199.0</ele><time>2026-04-02T20:16:01Z</time></trkpt><trkpt lat="45.815616655246835" lon="12.150711781677897"><ele>199.0</ele><time>2026-04-02T20:16:02Z</time></trkpt><trkpt lat="45.81556927118465" lon="12.150615126886754"><ele>198.99999999999997</ele><time>2026-04-02T20:16:03Z</time></trkpt><trkpt lat="45.81550895165734" lon="12.150556822769827"><ele>199.0</ele><time>2026-04-02T20:16:04Z</time></trkpt><trkpt lat="45.81544322947549" lon="12.15052067211147"><ele>199.79999999999998</ele><time>2026-04-02T20:16:05Z</time></trkpt><trkpt lat="45.81539659700255" lon="12.150454458685084"><ele>200.6</ele><time>2026-04-02T20:16:06Z</time></trkpt><trkpt lat="45.815297379838164" lon="12.150360863842081"><ele>201.4</ele><time>2026-04-02T20:16:08Z</time></trkpt><trkpt lat="45.81521708264317" lon="12.150254093965948"><ele>202.2</ele><time>2026-04-02T20:16:10Z</time></trkpt><trkpt lat="45.8151641442802" lon="12.150130036773849"><ele>203.0</ele><time>2026-04-02T20:16:12Z</time></trkpt><trkpt lat="45.815192117922074" lon="12.149894952518041"><ele>203.83333333333334</ele><time>2026-04-02T20:16:20.999Z</time></trkpt><trkpt lat="45.81516794444741" lon="12.149808503956635"><ele>204.66666666666669</ele><time>2026-04-02T20:17:14.999Z</time></trkpt><trkpt lat="45.815184702301245" lon="12.149671018972683"><ele>205.5</ele><time>2026-04-02T20:17:16.999Z</time></trkpt><trkpt lat="45.81517367206933" lon="12.149535241330895"><ele>206.33333333333331</ele><time>2026-04-02T20:17:18.999Z</time></trkpt><trkpt lat="45.8151126953502" lon="12.149425389997079"><ele>207.16666666666666</ele><time>2026-04-02T20:17:20.999Z</time></trkpt><trkpt lat="45.81505706258015" lon="12.149379097095109"><ele>208.0</ele><time>2026-04-02T20:17:21.999Z</time></trkpt><trkpt lat="45.81499699597937" lon="12.149339384093578"><ele>207.99999999999997</ele><time>2026-04-02T20:17:22.999Z</time></trkpt><trkpt lat="45.81495752353685" lon="12.1492575840555"><ele>208.0</ele><time>2026-04-02T20:17:23.999Z</time></trkpt><trkpt lat="45.814904344277224" lon="12.149198271321215"><ele>208.0</ele><time>2026-04-02T20:17:24.999Z</time></trkpt><trkpt lat="45.814853705409554" lon="12.149135864686322"><ele>208.0</ele><time>2026-04-02T20:17:25.999Z</time></trkpt><trkpt lat="45.81477875512592" lon="12.14899426153232"><ele>207.99999999999997</ele><time>2026-04-02T20:17:27.999Z</time></trkpt><trkpt lat="45.814752905208216" lon="12.14890207969918"><ele>208.0</ele><time>2026-04-02T20:17:28.999Z</time></trkpt><trkpt lat="45.814743686674994" lon="12.148797949814988"><ele>208.0</ele><time>2026-04-02T20:17:29.999Z</time></trkpt><trkpt lat="45.81476234399385" lon="12.148700618183996"><ele>208.0</ele><time>2026-04-02T20:17:31Z</time></trkpt><trkpt lat="45.814830220715415" lon="12.148519088721152"><ele>208.0</ele><time>2026-04-02T20:17:33Z</time></trkpt><trkpt lat="45.81484953446606" lon="12.148402522727968"><ele>208.0</ele><time>2026-04-02T20:17:34Z</time></trkpt><trkpt lat="45.81485299269824" lon="12.14829480251579"><ele>208.0</ele><time>2026-04-02T20:17:35Z</time></trkpt><trkpt lat="45.81482082175076" lon="12.148133325317067"><ele>208.4</ele><time>2026-04-02T20:17:37Z</time></trkpt><trkpt lat="45.814774355787044" lon="12.148053175914512"><ele>208.8</ele><time>2026-04-02T20:17:38Z</time></trkpt><trkpt lat="45.8147004028802" lon="12.14800571523754"><ele>209.2</ele><time>2026-04-02T20:17:39Z</time></trkpt><trkpt lat="45.81461715983941" lon="12.147866358508017"><ele>209.6</ele><time>2026-04-02T20:17:41Z</time></trkpt><trkpt lat="45.81458547059975" lon="12.147784897945956"><ele>210.0</ele><time>2026-04-02T20:17:42Z</time></trkpt><trkpt lat="45.81458209606794" lon="12.147627290133425"><ele>210.0</ele><time>2026-04-02T20:17:44Z</time></trkpt><trkpt lat="45.8145922506621" lon="12.147532387564901"><ele>210.0</ele><time>2026-04-02T20:17:45Z</time></trkpt><trkpt lat="45.81460510073309" lon="12.14743760771527"><ele>210.0</ele><time>2026-04-02T20:17:46Z</time></trkpt><trkpt lat="45.814620355083896" lon="12.14732876916782"><ele>210.0</ele><time>2026-04-02T20:17:47Z</time></trkpt><trkpt lat="45.81463623775353" lon="12.14723800631215"><ele>210.0</ele><time>2026-04-02T20:17:48Z</time></trkpt><trkpt lat="45.81465326250801" lon="12.147144218145613"><ele>210.0</ele><time>2026-04-02T20:17:49Z</time></trkpt><trkpt lat="45.81465855230851" lon="12.147043901784633"><ele>210.0</ele><time>2026-04-02T20:17:50Z</time></trkpt><trkpt lat="45.81468861088845" lon="12.146949985964287"><ele>210.5</ele><time>2026-04-02T20:17:51Z</time></trkpt><trkpt lat="45.814703640503936" lon="12.146851683799582"><ele>211.0</ele><time>2026-04-02T20:17:52Z</time></trkpt><trkpt lat="45.81471410829095" lon="12.146754433249024"><ele>211.5</ele><time>2026-04-02T20:17:53Z</time></trkpt><trkpt lat="45.81471727950752" lon="12.146660938974682"><ele>212.0</ele><time>2026-04-02T20:17:54Z</time></trkpt><trkpt lat="45.81471218232692" lon="12.146506735271332"><ele>212.5</ele><time>2026-04-02T20:17:56Z</time></trkpt><trkpt lat="45.81470441158078" lon="12.146394724484034"><ele>213.0</ele><time>2026-04-02T20:17:58Z</time></trkpt><trkpt lat="45.814697670130265" lon="12.146299520927013"><ele>213.4</ele><time>2026-04-02T20:18:00Z</time></trkpt><trkpt lat="45.81452583543235" lon="12.146275481336101"><ele>213.8</ele><time>2026-04-02T20:18:02Z</time></trkpt><trkpt lat="45.81446044577333" lon="12.146277892026509"><ele>214.2</ele><time>2026-04-02T20:18:03Z</time></trkpt><trkpt lat="45.81437501408659" lon="12.146292493971217"><ele>214.6</ele><time>2026-04-02T20:18:04Z</time></trkpt><trkpt lat="45.81429373801499" lon="12.146288098378864"><ele>215.0</ele><time>2026-04-02T20:18:05Z</time></trkpt><trkpt lat="45.814218986562665" lon="12.146288098381026"><ele>215.16666666666669</ele><time>2026-04-02T20:18:06Z</time></trkpt><trkpt lat="45.81414634409779" lon="12.146290080298566"><ele>215.33333333333334</ele><time>2026-04-02T20:18:07Z</time></trkpt><trkpt lat="45.814077455936854" lon="12.146293311731498"><ele>215.5</ele><time>2026-04-02T20:18:08Z</time></trkpt><trkpt lat="45.81397759158428" lon="12.146303103950379"><ele>215.66666666666669</ele><time>2026-04-02T20:18:10Z</time></trkpt><trkpt lat="45.81390114834219" lon="12.146310599532713"><ele>215.83333333333334</ele><time>2026-04-02T20:18:13Z</time></trkpt><trkpt lat="45.81385740996789" lon="12.146427074481482"><ele>216.0</ele><time>2026-04-02T20:18:14Z</time></trkpt><trkpt lat="45.81378513319763" lon="12.146544454209083"><ele>215.0</ele><time>2026-04-02T20:18:16Z</time></trkpt><trkpt lat="45.81372910894845" lon="12.146623541500288"><ele>214.00000000000003</ele><time>2026-04-02T20:18:17Z</time></trkpt><trkpt lat="45.813656318572754" lon="12.146716829813725"><ele>213.0</ele><time>2026-04-02T20:18:18Z</time></trkpt><trkpt lat="45.81357513007465" lon="12.146808728021597"><ele>212.0</ele><time>2026-04-02T20:18:19Z</time></trkpt><trkpt lat="45.81348806360019" lon="12.146871099557544"><ele>211.0</ele><time>2026-04-02T20:18:20Z</time></trkpt><trkpt lat="45.81340877757106" lon="12.146980106827225"><ele>211.0</ele><time>2026-04-02T20:18:21Z</time></trkpt><trkpt lat="45.81330746573723" lon="12.147076579688385"><ele>211.0</ele><time>2026-04-02T20:18:22Z</time></trkpt><trkpt lat="45.81320103139978" lon="12.147186491644293"><ele>211.0</ele><time>2026-04-02T20:18:23Z</time></trkpt><trkpt lat="45.8130885284293" lon="12.147294740996102"><ele>211.0</ele><time>2026-04-02T20:18:24Z</time></trkpt><trkpt lat="45.812976755602904" lon="12.147393801917419"><ele>210.75</ele><time>2026-04-02T20:18:25Z</time></trkpt><trkpt lat="45.81286684632527" lon="12.147477523418406"><ele>210.5</ele><time>2026-04-02T20:18:26Z</time></trkpt><trkpt lat="45.81274478343303" lon="12.147511389468916"><ele>210.25</ele><time>2026-04-02T20:18:27Z</time></trkpt><trkpt lat="45.81261879185472" lon="12.147532153427512"><ele>210.0</ele><time>2026-04-02T20:18:28Z</time></trkpt><trkpt lat="45.8124851016428" lon="12.147531666489966"><ele>209.25</ele><time>2026-04-02T20:18:29Z</time></trkpt><trkpt lat="45.81234099447109" lon="12.147523854513267"><ele>208.5</ele><time>2026-04-02T20:18:30Z</time></trkpt><trkpt lat="45.812188828614296" lon="12.147537187640006"><ele>207.75</ele><time>2026-04-02T20:18:31Z</time></trkpt><trkpt lat="45.812045619889744" lon="12.147519023318429"><ele>207.0</ele><time>2026-04-02T20:18:32Z</time></trkpt><trkpt lat="45.81189962355002" lon="12.147508296500307"><ele>207.5</ele><time>2026-04-02T20:18:33Z</time></trkpt><trkpt lat="45.81175442458105" lon="12.1474923332838"><ele>208.0</ele><time>2026-04-02T20:18:34Z</time></trkpt><trkpt lat="45.81161603877044" lon="12.147475911636004"><ele>208.5</ele><time>2026-04-02T20:18:35Z</time></trkpt><trkpt lat="45.81147941879096" lon="12.14745813351706"><ele>209.0</ele><time>2026-04-02T20:18:36Z</time></trkpt><trkpt lat="45.811344569520486" lon="12.147445470270876"><ele>209.0</ele><time>2026-04-02T20:18:37Z</time></trkpt><trkpt lat="45.811215203399996" lon="12.147431496622424"><ele>209.0</ele><time>2026-04-02T20:18:38Z</time></trkpt><trkpt lat="45.81108076732015" lon="12.147410127699782"><ele>209.0</ele><time>2026-04-02T20:18:39Z</time></trkpt><trkpt lat="45.81094871600579" lon="12.147392291238576"><ele>209.0</ele><time>2026-04-02T20:18:39.999Z</time></trkpt><trkpt lat="45.81082084400779" lon="12.147386951249384"><ele>208.0</ele><time>2026-04-02T20:18:40.999Z</time></trkpt><trkpt lat="45.81069712574072" lon="12.147393835006364"><ele>207.0</ele><time>2026-04-02T20:18:41.999Z</time></trkpt><trkpt lat="45.81058017435412" lon="12.147407468446575"><ele>206.0</ele><time>2026-04-02T20:18:42.999Z</time></trkpt><trkpt lat="45.810466577931514" lon="12.14743362745946"><ele>205.0</ele><time>2026-04-02T20:18:43.999Z</time></trkpt><trkpt lat="45.81034927361972" lon="12.147473009583052"><ele>205.0</ele><time>2026-04-02T20:18:44.999Z</time></trkpt><trkpt lat="45.810228334811256" lon="12.147501823829263"><ele>205.0</ele><time>2026-04-02T20:18:45.999Z</time></trkpt><trkpt lat="45.81011351532905" lon="12.14754192708172"><ele>205.0</ele><time>2026-04-02T20:18:46.999Z</time></trkpt><trkpt lat="45.81000021331394" lon="12.14758385866077"><ele>205.0</ele><time>2026-04-02T20:18:47.999Z</time></trkpt><trkpt lat="45.809898224087235" lon="12.147644039024899"><ele>205.66666666666666</ele><time>2026-04-02T20:18:48.999Z</time></trkpt><trkpt lat="45.8098064298346" lon="12.147737597278688"><ele>206.33333333333331</ele><time>2026-04-02T20:18:49.999Z</time></trkpt><trkpt lat="45.809760587864126" lon="12.147825531881544"><ele>207.0</ele><time>2026-04-02T20:18:50.999Z</time></trkpt><trkpt lat="45.80979551694192" lon="12.147737662875487"><ele>207.66666666666669</ele><time>2026-04-02T20:19:03.999Z</time></trkpt><trkpt lat="45.80974953932438" lon="12.147636020931062"><ele>208.33333333333334</ele><time>2026-04-02T20:19:04.999Z</time></trkpt><trkpt lat="45.809755245545944" lon="12.147496953694393"><ele>209.0</ele><time>2026-04-02T20:19:06.999Z</time></trkpt><trkpt lat="45.809804487167284" lon="12.14739952972929"><ele>209.33333333333334</ele><time>2026-04-02T20:19:08.999Z</time></trkpt><trkpt lat="45.80974345387292" lon="12.147310023253075"><ele>209.66666666666669</ele><time>2026-04-02T20:19:09.999Z</time></trkpt><trkpt lat="45.80968509889527" lon="12.147146875867925"><ele>210.0</ele><time>2026-04-02T20:19:11.999Z</time></trkpt><trkpt lat="45.809656474277105" lon="12.147059715701802"><ele>210.33333333333331</ele><time>2026-04-02T20:19:12.999Z</time></trkpt><trkpt lat="45.80963319188557" lon="12.146972374027746"><ele>210.66666666666666</ele><time>2026-04-02T20:19:13.999Z</time></trkpt><trkpt lat="45.80961380563539" lon="12.146886294318618"><ele>211.0</ele><time>2026-04-02T20:19:14.999Z</time></trkpt><trkpt lat="45.80959257553054" lon="12.146788615175462"><ele>210.99999999999997</ele><time>2026-04-02T20:19:15.999Z</time></trkpt><trkpt lat="45.80957332365388" lon="12.146693882648893"><ele>211.0</ele><time>2026-04-02T20:19:16.999Z</time></trkpt><trkpt lat="45.80955327983925" lon="12.146593285509638"><ele>211.0</ele><time>2026-04-02T20:19:17.999Z</time></trkpt><trkpt lat="45.8095401716786" lon="12.146503161283396"><ele>211.0</ele><time>2026-04-02T20:19:18.999Z</time></trkpt><trkpt lat="45.80952839305307" lon="12.146408537885277"><ele>210.99999999999997</ele><time>2026-04-02T20:19:19.999Z</time></trkpt><trkpt lat="45.80952518926601" lon="12.146233898282164"><ele>211.0</ele><time>2026-04-02T20:19:21.999Z</time></trkpt><trkpt lat="45.809539777233866" lon="12.146144404600651"><ele>211.49999999999997</ele><time>2026-04-02T20:19:22.999Z</time></trkpt><trkpt lat="45.809558682042166" lon="12.146053002685084"><ele>212.0</ele><time>2026-04-02T20:19:23.999Z</time></trkpt><trkpt lat="45.80957871511562" lon="12.14594744384892"><ele>212.5</ele><time>2026-04-02T20:19:24.999Z</time></trkpt><trkpt lat="45.80959764341842" lon="12.145836164800132"><ele>213.0</ele><time>2026-04-02T20:19:25.999Z</time></trkpt><trkpt lat="45.809587407203566" lon="12.14572578781157"><ele>213.49999999999997</ele><time>2026-04-02T20:19:26.999Z</time></trkpt><trkpt lat="45.809590745945535" lon="12.145613729870838"><ele>214.0</ele><time>2026-04-02T20:19:27.999Z</time></trkpt><trkpt lat="45.80955985135733" lon="12.145508564643302"><ele>213.6</ele><time>2026-04-02T20:19:28.999Z</time></trkpt><trkpt lat="45.80949820331233" lon="12.145425182740162"><ele>213.2</ele><time>2026-04-02T20:19:29.999Z</time></trkpt><trkpt lat="45.80941639489118" lon="12.145376830046466"><ele>212.79999999999998</ele><time>2026-04-02T20:19:30.999Z</time></trkpt><trkpt lat="45.80931906444196" lon="12.14535003452746"><ele>212.39999999999998</ele><time>2026-04-02T20:19:31.999Z</time></trkpt><trkpt lat="45.80921797174994" lon="12.145338283595645"><ele>212.0</ele><time>2026-04-02T20:19:32.999Z</time></trkpt><trkpt lat="45.80912879198603" lon="12.145325279039271"><ele>212.00000000000003</ele><time>2026-04-02T20:19:33.999Z</time></trkpt><trkpt lat="45.80903688911457" lon="12.145316475699904"><ele>212.0</ele><time>2026-04-02T20:19:34.999Z</time></trkpt><trkpt lat="45.808953401120725" lon="12.145317266550617"><ele>212.0</ele><time>2026-04-02T20:19:35.999Z</time></trkpt><trkpt lat="45.808869656477285" lon="12.145322861784864"><ele>212.0</ele><time>2026-04-02T20:19:37Z</time></trkpt><trkpt lat="45.808793928119535" lon="12.145334953499603"><ele>212.00000000000003</ele><time>2026-04-02T20:19:38Z</time></trkpt><trkpt lat="45.808725258645524" lon="12.14534902603991"><ele>212.0</ele><time>2026-04-02T20:19:39Z</time></trkpt><trkpt lat="45.80864918169429" lon="12.145359711600447"><ele>212.00000000000003</ele><time>2026-04-02T20:19:40Z</time></trkpt><trkpt lat="45.80857861182998" lon="12.145324190445548"><ele>212.0</ele><time>2026-04-02T20:19:41Z</time></trkpt><trkpt lat="45.808501377221255" lon="12.145305534262958"><ele>212.0</ele><time>2026-04-02T20:19:42Z</time></trkpt><trkpt lat="45.808445548498554" lon="12.145255099116259"><ele>212.0</ele><time>2026-04-02T20:19:43Z</time></trkpt><trkpt lat="45.808385614153956" lon="12.14520561550124"><ele>212.00000000000003</ele><time>2026-04-02T20:19:44Z</time></trkpt><trkpt lat="45.8083183743613" lon="12.145148422984088"><ele>212.0</ele><time>2026-04-02T20:19:45Z</time></trkpt><trkpt lat="45.808244446147256" lon="12.145083553467282"><ele>211.66666666666669</ele><time>2026-04-02T20:19:46Z</time></trkpt><trkpt lat="45.80816969054142" lon="12.145017957945626"><ele>211.33333333333334</ele><time>2026-04-02T20:19:47Z</time></trkpt><trkpt lat="45.80809491189823" lon="12.144955490169911"><ele>211.0</ele><time>2026-04-02T20:19:48Z</time></trkpt><trkpt lat="45.808026053402024" lon="12.144903088998664"><ele>210.66666666666669</ele><time>2026-04-02T20:19:49Z</time></trkpt><trkpt lat="45.80795860939651" lon="12.144862710052188"><ele>210.33333333333334</ele><time>2026-04-02T20:19:50Z</time></trkpt><trkpt lat="45.807897789085395" lon="12.14481312880102"><ele>210.0</ele><time>2026-04-02T20:19:51Z</time></trkpt><trkpt lat="45.807833515563914" lon="12.144779716776085"><ele>211.2</ele><time>2026-04-02T20:19:52Z</time></trkpt><trkpt lat="45.80776405670786" lon="12.14481447618578"><ele>212.4</ele><time>2026-04-02T20:19:53Z</time></trkpt><trkpt lat="45.80768562337842" lon="12.14486266290771"><ele>213.60000000000002</ele><time>2026-04-02T20:19:54Z</time></trkpt><trkpt lat="45.80759658096076" lon="12.144919074083097"><ele>214.8</ele><time>2026-04-02T20:19:55Z</time></trkpt><trkpt lat="45.80750350268389" lon="12.14496124586322"><ele>216.0</ele><time>2026-04-02T20:19:56Z</time></trkpt><trkpt lat="45.807421550627105" lon="12.145033814145695"><ele>213.83333333333334</ele><time>2026-04-02T20:19:57Z</time></trkpt><trkpt lat="45.80734696130826" lon="12.145101814007395"><ele>211.66666666666669</ele><time>2026-04-02T20:19:58Z</time></trkpt><trkpt lat="45.80726989662115" lon="12.1451695001043"><ele>209.5</ele><time>2026-04-02T20:19:59Z</time></trkpt><trkpt lat="45.80720477253296" lon="12.145227901679624"><ele>207.33333333333334</ele><time>2026-04-02T20:20:00Z</time></trkpt><trkpt lat="45.8071379235754" lon="12.145279937853603"><ele>205.16666666666669</ele><time>2026-04-02T20:20:01Z</time></trkpt><trkpt lat="45.80706655570626" lon="12.145339446231652"><ele>203.0</ele><time>2026-04-02T20:20:02Z</time></trkpt><trkpt lat="45.80698883375658" lon="12.145398278256211"><ele>203.00000000000003</ele><time>2026-04-02T20:20:03Z</time></trkpt><trkpt lat="45.80690900730411" lon="12.14545762079648"><ele>203.0</ele><time>2026-04-02T20:20:04Z</time></trkpt><trkpt lat="45.806835618765284" lon="12.145511660098672"><ele>203.0</ele><time>2026-04-02T20:20:05Z</time></trkpt><trkpt lat="45.806762329190455" lon="12.145568577575547"><ele>203.0</ele><time>2026-04-02T20:20:06Z</time></trkpt><trkpt lat="45.80671187362235" lon="12.145659880466225"><ele>203.00000000000003</ele><time>2026-04-02T20:20:07Z</time></trkpt><trkpt lat="45.80666970326253" lon="12.14575006375283"><ele>203.0</ele><time>2026-04-02T20:20:08Z</time></trkpt><trkpt lat="45.80662766427526" lon="12.145841583025344"><ele>202.33333333333334</ele><time>2026-04-02T20:20:09Z</time></trkpt><trkpt lat="45.80658206618921" lon="12.145945263792935"><ele>201.66666666666669</ele><time>2026-04-02T20:20:10Z</time></trkpt><trkpt lat="45.80653395484231" lon="12.14605556863021"><ele>201.0</ele><time>2026-04-02T20:20:11Z</time></trkpt><trkpt lat="45.80651135639184" lon="12.146175947113038"><ele>200.33333333333331</ele><time>2026-04-02T20:20:12Z</time></trkpt><trkpt lat="45.80645652022746" lon="12.146277888880206"><ele>199.66666666666666</ele><time>2026-04-02T20:20:13Z</time></trkpt><trkpt lat="45.806421052146575" lon="12.146367811370894"><ele>199.0</ele><time>2026-04-02T20:20:14Z</time></trkpt><trkpt lat="45.806361606329176" lon="12.146464172507782"><ele>198.99999999999997</ele><time>2026-04-02T20:20:16Z</time></trkpt><trkpt lat="45.80629713897622" lon="12.146415302848027"><ele>199.0</ele><time>2026-04-02T20:20:26Z</time></trkpt><trkpt lat="45.806209807981745" lon="12.146420681123164"><ele>199.0</ele><time>2026-04-02T20:20:29Z</time></trkpt><trkpt lat="45.80612269450103" lon="12.146353152360984"><ele>199.0</ele><time>2026-04-02T20:20:31Z</time></trkpt><trkpt lat="45.80606398286507" lon="12.146312708288653"><ele>198.99999999999997</ele><time>2026-04-02T20:20:32Z</time></trkpt><trkpt lat="45.80599734659259" lon="12.146286656638216"><ele>199.0</ele><time>2026-04-02T20:20:33Z</time></trkpt><trkpt lat="45.805917223649516" lon="12.146256985438896"><ele>198.16666666666666</ele><time>2026-04-02T20:20:34Z</time></trkpt><trkpt lat="45.805839845419364" lon="12.146314577503576"><ele>197.33333333333331</ele><time>2026-04-02T20:20:35Z</time></trkpt><trkpt lat="45.805762678911925" lon="12.146353226865129"><ele>196.5</ele><time>2026-04-02T20:20:36Z</time></trkpt><trkpt lat="45.805687958970566" lon="12.14639597428765"><ele>195.66666666666669</ele><time>2026-04-02T20:20:37Z</time></trkpt><trkpt lat="45.80561814644276" lon="12.146445501917823"><ele>194.83333333333334</ele><time>2026-04-02T20:20:38Z</time></trkpt><trkpt lat="45.8055483812657" lon="12.146446286572584"><ele>194.0</ele><time>2026-04-02T20:20:39Z</time></trkpt><trkpt lat="45.805443159722735" lon="12.146375833277373"><ele>194.0</ele><time>2026-04-02T20:20:41Z</time></trkpt><trkpt lat="45.8053674866692" lon="12.14625362185923"><ele>194.0</ele><time>2026-04-02T20:20:43Z</time></trkpt><trkpt lat="45.80533973106813" lon="12.146083568898366"><ele>194.0</ele><time>2026-04-02T20:20:45Z</time></trkpt><trkpt lat="45.80532033316041" lon="12.14590484279356"><ele>194.0</ele><time>2026-04-02T20:20:47Z</time></trkpt><trkpt lat="45.80529388966506" lon="12.145735932158836"><ele>194.33333333333334</ele><time>2026-04-02T20:20:49Z</time></trkpt><trkpt lat="45.80522129536469" lon="12.14567183733571"><ele>194.66666666666669</ele><time>2026-04-02T20:20:50Z</time></trkpt><trkpt lat="45.80513059593682" lon="12.145744106358366"><ele>195.0</ele><time>2026-04-02T20:20:51Z</time></trkpt><trkpt lat="45.80507345875434" lon="12.145816733315865"><ele>195.33333333333331</ele><time>2026-04-02T20:20:52Z</time></trkpt><trkpt lat="45.80501086210567" lon="12.145877352340053"><ele>195.66666666666666</ele><time>2026-04-02T20:20:53Z</time></trkpt><trkpt lat="45.804951117991465" lon="12.145922620926642"><ele>196.0</ele><time>2026-04-02T20:20:54Z</time></trkpt><trkpt lat="45.80483867398637" lon="12.145934309288121"><ele>195.49999999999997</ele><time>2026-04-02T20:20:56Z</time></trkpt><trkpt lat="45.80480200584657" lon="12.145860435338127"><ele>195.0</ele><time>2026-04-02T20:20:57Z</time></trkpt><trkpt lat="45.804763339138425" lon="12.145788113429152"><ele>194.5</ele><time>2026-04-02T20:20:57.999Z</time></trkpt><trkpt lat="45.80469873271442" lon="12.145709297224537"><ele>194.0</ele><time>2026-04-02T20:20:58.999Z</time></trkpt><trkpt lat="45.8046292223447" lon="12.145637595049593"><ele>193.49999999999997</ele><time>2026-04-02T20:20:59.999Z</time></trkpt><trkpt lat="45.804571491527454" lon="12.145551865579211"><ele>193.0</ele><time>2026-04-02T20:21:00.999Z</time></trkpt><trkpt lat="45.80451114689119" lon="12.145495189245649"><ele>192.99999999999997</ele><time>2026-04-02T20:21:01.999Z</time></trkpt><trkpt lat="45.80443988441869" lon="12.14552332603464"><ele>193.0</ele><time>2026-04-02T20:21:02.999Z</time></trkpt><trkpt lat="45.80435852381925" lon="12.145647972334258"><ele>193.0</ele><time>2026-04-02T20:21:04.999Z</time></trkpt><trkpt lat="45.80436980018303" lon="12.145754568374873"><ele>193.0</ele><time>2026-04-02T20:21:05.998Z</time></trkpt><trkpt lat="45.8043944228928" lon="12.14584963043694"><ele>192.99999999999997</ele><time>2026-04-02T20:21:06.998Z</time></trkpt><trkpt lat="45.80439131164988" lon="12.145946254056417"><ele>193.0</ele><time>2026-04-02T20:21:07.998Z</time></trkpt><trkpt lat="45.804386338643866" lon="12.146099408484075"><ele>192.0</ele><time>2026-04-02T20:21:09.998Z</time></trkpt><trkpt lat="45.804303004647984" lon="12.146137075241187"><ele>191.0</ele><time>2026-04-02T20:21:11.998Z</time></trkpt><trkpt lat="45.804209582623905" lon="12.14613703669839"><ele>190.0</ele><time>2026-04-02T20:21:13.998Z</time></trkpt><trkpt lat="45.804113636339245" lon="12.146206780814618"><ele>189.0</ele><time>2026-04-02T20:21:15.998Z</time></trkpt><trkpt lat="45.80402187087381" lon="12.146314331475978"><ele>188.0</ele><time>2026-04-02T20:21:17.998Z</time></trkpt><trkpt lat="45.80397220079582" lon="12.146458339971453"><ele>188.0</ele><time>2026-04-02T20:21:19.998Z</time></trkpt><trkpt lat="45.80387949512896" lon="12.146486681840752"><ele>188.0</ele><time>2026-04-02T20:21:21.998Z</time></trkpt><trkpt lat="45.8038023665314" lon="12.146430598049541"><ele>188.0</ele><time>2026-04-02T20:21:23.998Z</time></trkpt><trkpt lat="45.80369321833327" lon="12.146369242278505"><ele>188.0</ele><time>2026-04-02T20:21:25.998Z</time></trkpt><trkpt lat="45.80361571319013" lon="12.146344031309406"><ele>188.0</ele><time>2026-04-02T20:21:26.998Z</time></trkpt><trkpt lat="45.803551792910895" lon="12.14628992328215"><ele>187.5</ele><time>2026-04-02T20:21:27.998Z</time></trkpt><trkpt lat="45.80348884759519" lon="12.146252400637668"><ele>187.0</ele><time>2026-04-02T20:21:28.998Z</time></trkpt><trkpt lat="45.80341978921428" lon="12.146235756209045"><ele>186.5</ele><time>2026-04-02T20:21:29.998Z</time></trkpt><trkpt lat="45.80334261598313" lon="12.14623718809881"><ele>186.0</ele><time>2026-04-02T20:21:30.998Z</time></trkpt><trkpt lat="45.80326896164981" lon="12.146246758307878"><ele>185.5</ele><time>2026-04-02T20:21:31.998Z</time></trkpt><trkpt lat="45.80319387652769" lon="12.146272376073819"><ele>185.0</ele><time>2026-04-02T20:21:32.998Z</time></trkpt><trkpt lat="45.80311025010058" lon="12.146291696662281"><ele>185.0</ele><time>2026-04-02T20:21:33.998Z</time></trkpt><trkpt lat="45.803028895163756" lon="12.146317646898462"><ele>185.0</ele><time>2026-04-02T20:21:34.998Z</time></trkpt><trkpt lat="45.802949388053165" lon="12.146351358475748"><ele>185.0</ele><time>2026-04-02T20:21:35.998Z</time></trkpt><trkpt lat="45.80286640657713" lon="12.146398801319144"><ele>185.0</ele><time>2026-04-02T20:21:36.998Z</time></trkpt><trkpt lat="45.80279929800641" lon="12.146452752251509"><ele>185.0</ele><time>2026-04-02T20:21:37.998Z</time></trkpt><trkpt lat="45.802704540671705" lon="12.146482397954191"><ele>185.0</ele><time>2026-04-02T20:21:39.998Z</time></trkpt><trkpt lat="45.80260945344022" lon="12.146415584461664"><ele>183.66666666666666</ele><time>2026-04-02T20:21:41.998Z</time></trkpt><trkpt lat="45.80256077039643" lon="12.146300885821349"><ele>182.33333333333331</ele><time>2026-04-02T20:21:43.999Z</time></trkpt><trkpt lat="45.80250268342552" lon="12.146214017617504"><ele>181.0</ele><time>2026-04-02T20:21:44.999Z</time></trkpt><trkpt lat="45.80243964679652" lon="12.146139943085592"><ele>179.66666666666666</ele><time>2026-04-02T20:21:45.999Z</time></trkpt><trkpt lat="45.80238531645072" lon="12.146074121541513"><ele>178.33333333333334</ele><time>2026-04-02T20:21:46.999Z</time></trkpt><trkpt lat="45.802335817778186" lon="12.146011102904577"><ele>177.0</ele><time>2026-04-02T20:21:47.999Z</time></trkpt><trkpt lat="45.802278745604795" lon="12.145940203032566"><ele>177.0</ele><time>2026-04-02T20:21:48.999Z</time></trkpt><trkpt lat="45.80216633344081" lon="12.145805902392643"><ele>177.0</ele><time>2026-04-02T20:21:50.999Z</time></trkpt><trkpt lat="45.80211193062455" lon="12.145743413254726"><ele>177.0</ele><time>2026-04-02T20:21:51.999Z</time></trkpt><trkpt lat="45.80204602956475" lon="12.145668409838287"><ele>177.0</ele><time>2026-04-02T20:21:52.999Z</time></trkpt><trkpt lat="45.8019800758776" lon="12.14559334652311"><ele>177.0</ele><time>2026-04-02T20:21:53.999Z</time></trkpt><trkpt lat="45.801925738618635" lon="12.14553123800156"><ele>177.33333333333334</ele><time>2026-04-02T20:21:54.999Z</time></trkpt><trkpt lat="45.80185232249833" lon="12.145446852207748"><ele>177.66666666666666</ele><time>2026-04-02T20:21:55.999Z</time></trkpt><trkpt lat="45.80178918773895" lon="12.14537473767041"><ele>178.0</ele><time>2026-04-02T20:21:56.999Z</time></trkpt><trkpt lat="45.801723005987235" lon="12.145300788759686"><ele>178.33333333333331</ele><time>2026-04-02T20:21:57.999Z</time></trkpt><trkpt lat="45.801670541114056" lon="12.145242166540692"><ele>178.66666666666666</ele><time>2026-04-02T20:21:58.999Z</time></trkpt><trkpt lat="45.80160450262318" lon="12.145162704387527"><ele>179.0</ele><time>2026-04-02T20:21:59.999Z</time></trkpt><trkpt lat="45.80153601787905" lon="12.14505488010785"><ele>176.5</ele><time>2026-04-02T20:22:00.999Z</time></trkpt><trkpt lat="45.801487792451006" lon="12.144950575141301"><ele>174.0</ele><time>2026-04-02T20:22:01.999Z</time></trkpt><trkpt lat="45.80146234500144" lon="12.144849965306944"><ele>171.5</ele><time>2026-04-02T20:22:02.999Z</time></trkpt><trkpt lat="45.80144671310477" lon="12.144742178159865"><ele>169.0</ele><time>2026-04-02T20:22:03.999Z</time></trkpt><trkpt lat="45.80143515861164" lon="12.144633244324929"><ele>166.5</ele><time>2026-04-02T20:22:04.999Z</time></trkpt><trkpt lat="45.80143284415309" lon="12.144517156068208"><ele>164.0</ele><time>2026-04-02T20:22:05.999Z</time></trkpt><trkpt lat="45.80143611788236" lon="12.144391739289384"><ele>164.0</ele><time>2026-04-02T20:22:06.999Z</time></trkpt><trkpt lat="45.801438992296596" lon="12.144270603136276"><ele>164.0</ele><time>2026-04-02T20:22:07.999Z</time></trkpt><trkpt lat="45.801421939021864" lon="12.144159660836813"><ele>164.0</ele><time>2026-04-02T20:22:08.999Z</time></trkpt><trkpt lat="45.80139840834686" lon="12.144061680757932"><ele>164.0</ele><time>2026-04-02T20:22:09.999Z</time></trkpt><trkpt lat="45.80131833705038" lon="12.143974032159008"><ele>164.0</ele><time>2026-04-02T20:22:11.999Z</time></trkpt><trkpt lat="45.80123422494732" lon="12.14397579289227"><ele>164.0</ele><time>2026-04-02T20:22:13.999Z</time></trkpt><trkpt lat="45.80110825571013" lon="12.143974389485125"><ele>165.0</ele><time>2026-04-02T20:22:15.999Z</time></trkpt><trkpt lat="45.8010397889006" lon="12.143967156558698"><ele>166.0</ele><time>2026-04-02T20:22:16.999Z</time></trkpt><trkpt lat="45.80093850990156" lon="12.1439457655001"><ele>167.0</ele><time>2026-04-02T20:22:18.999Z</time></trkpt><trkpt lat="45.80081122464865" lon="12.143914554375694"><ele>168.0</ele><time>2026-04-02T20:22:20.999Z</time></trkpt><trkpt lat="45.80074956274437" lon="12.143872588199546"><ele>169.0</ele><time>2026-04-02T20:22:21.999Z</time></trkpt><trkpt lat="45.80068964704843" lon="12.143818367389132"><ele>170.0</ele><time>2026-04-02T20:22:22.999Z</time></trkpt><trkpt lat="45.800627079849995" lon="12.143757742705832"><ele>170.0</ele><time>2026-04-02T20:22:23.999Z</time></trkpt><trkpt lat="45.80056535680946" lon="12.143685723914109"><ele>170.0</ele><time>2026-04-02T20:22:24.999Z</time></trkpt><trkpt lat="45.80049619444433" lon="12.143612659516718"><ele>170.0</ele><time>2026-04-02T20:22:25.999Z</time></trkpt><trkpt lat="45.80044479377308" lon="12.143516020330978"><ele>170.0</ele><time>2026-04-02T20:22:26.999Z</time></trkpt><trkpt lat="45.800390857780705" lon="12.143432457165547"><ele>170.0</ele><time>2026-04-02T20:22:27.999Z</time></trkpt><trkpt lat="45.80033982487059" lon="12.143352039821416"><ele>170.0</ele><time>2026-04-02T20:22:28.999Z</time></trkpt><trkpt lat="45.80029573395337" lon="12.14327389159751"><ele>170.83333333333331</ele><time>2026-04-02T20:22:29.999Z</time></trkpt><trkpt lat="45.80025709498227" lon="12.143187015623115"><ele>171.66666666666666</ele><time>2026-04-02T20:22:30.999Z</time></trkpt><trkpt lat="45.800222421413224" lon="12.1430941929733"><ele>172.5</ele><time>2026-04-02T20:22:31.999Z</time></trkpt><trkpt lat="45.800178586943446" lon="12.143000901395945"><ele>173.33333333333334</ele><time>2026-04-02T20:22:32.999Z</time></trkpt><trkpt lat="45.800136150052204" lon="12.142916224416885"><ele>174.16666666666669</ele><time>2026-04-02T20:22:33.999Z</time></trkpt><trkpt lat="45.80006406095183" lon="12.14286048388815"><ele>175.0</ele><time>2026-04-02T20:22:34.999Z</time></trkpt><trkpt lat="45.7999785656255" lon="12.14286861942655"><ele>172.33333333333334</ele><time>2026-04-02T20:22:35.999Z</time></trkpt><trkpt lat="45.79990734196761" lon="12.142897047903972"><ele>169.66666666666669</ele><time>2026-04-02T20:22:36.999Z</time></trkpt><trkpt lat="45.79982353842686" lon="12.143031232049895"><ele>167.0</ele><time>2026-04-02T20:22:38.999Z</time></trkpt><trkpt lat="45.79980029932456" lon="12.143118906950324"><ele>164.33333333333334</ele><time>2026-04-02T20:22:39.999Z</time></trkpt><trkpt lat="45.79977455109924" lon="12.143223853401814"><ele>161.66666666666666</ele><time>2026-04-02T20:22:40.999Z</time></trkpt><trkpt lat="45.799758592845215" lon="12.143327278616653"><ele>159.0</ele><time>2026-04-02T20:22:41.999Z</time></trkpt><trkpt lat="45.7997480655402" lon="12.143423777888355"><ele>159.0</ele><time>2026-04-02T20:22:42.999Z</time></trkpt><trkpt lat="45.799738156200604" lon="12.14351534819718"><ele>159.0</ele><time>2026-04-02T20:22:43.999Z</time></trkpt><trkpt lat="45.79972168806319" lon="12.143663282776153"><ele>159.0</ele><time>2026-04-02T20:22:45.999Z</time></trkpt><trkpt lat="45.79970476819063" lon="12.143780500953438"><ele>159.0</ele><time>2026-04-02T20:22:47.999Z</time></trkpt><trkpt lat="45.79968120007176" lon="12.14391031919036"><ele>159.0</ele><time>2026-04-02T20:22:49.999Z</time></trkpt><trkpt lat="45.799652472515696" lon="12.144050519765395"><ele>159.0</ele><time>2026-04-02T20:22:51.999Z</time></trkpt><trkpt lat="45.79959923959479" lon="12.14417710482175"><ele>160.2</ele><time>2026-04-02T20:22:53.999Z</time></trkpt><trkpt lat="45.79954093235035" lon="12.144315248690576"><ele>161.4</ele><time>2026-04-02T20:22:55.999Z</time></trkpt><trkpt lat="45.79943225221593" lon="12.14442916716164"><ele>162.6</ele><time>2026-04-02T20:22:57.999Z</time></trkpt><trkpt lat="45.799367756958915" lon="12.144474608065954"><ele>163.8</ele><time>2026-04-02T20:22:58.999Z</time></trkpt><trkpt lat="45.79930540968524" lon="12.144507693781"><ele>165.0</ele><time>2026-04-02T20:22:59.999Z</time></trkpt><trkpt lat="45.799178057422516" lon="12.144543302373004"><ele>166.33333333333334</ele><time>2026-04-02T20:23:01.999Z</time></trkpt><trkpt lat="45.79911280288839" lon="12.144555313915168"><ele>167.66666666666666</ele><time>2026-04-02T20:23:02.999Z</time></trkpt><trkpt lat="45.79904929652571" lon="12.144568685372294"><ele>169.0</ele><time>2026-04-02T20:23:03.999Z</time></trkpt><trkpt lat="45.79898649620543" lon="12.144580215605993"><ele>170.33333333333331</ele><time>2026-04-02T20:23:04.999Z</time></trkpt><trkpt lat="45.798890670567005" lon="12.144634720671146"><ele>171.66666666666666</ele><time>2026-04-02T20:23:06.999Z</time></trkpt><trkpt lat="45.7988255053915" lon="12.144691919092253"><ele>173.0</ele><time>2026-04-02T20:23:08.999Z</time></trkpt><trkpt lat="45.79872582906746" lon="12.144749399083539"><ele>173.0</ele><time>2026-04-02T20:23:10.999Z</time></trkpt><trkpt lat="45.798605429998815" lon="12.144754979077403"><ele>173.0</ele><time>2026-04-02T20:23:12.999Z</time></trkpt><trkpt lat="45.79849444206071" lon="12.144733067145973"><ele>173.0</ele><time>2026-04-02T20:23:14.999Z</time></trkpt><trkpt lat="45.798431095065595" lon="12.14471958295148"><ele>173.0</ele><time>2026-04-02T20:23:15.999Z</time></trkpt><trkpt lat="45.798312825839055" lon="12.14471799606523"><ele>173.0</ele><time>2026-04-02T20:23:17.999Z</time></trkpt><trkpt lat="45.798204776839135" lon="12.144747738646538"><ele>171.2</ele><time>2026-04-02T20:23:19.999Z</time></trkpt><trkpt lat="45.79810098983603" lon="12.144817462522635"><ele>169.4</ele><time>2026-04-02T20:23:21.999Z</time></trkpt><trkpt lat="45.79798758356488" lon="12.14489826260984"><ele>167.6</ele><time>2026-04-02T20:23:23.999Z</time></trkpt><trkpt lat="45.79792038356613" lon="12.144949912070384"><ele>165.79999999999998</ele><time>2026-04-02T20:23:24.999Z</time></trkpt><trkpt lat="45.79786408523719" lon="12.145004691217538"><ele>164.0</ele><time>2026-04-02T20:23:25.999Z</time></trkpt><trkpt lat="45.797794172919915" lon="12.145037283653549"><ele>162.66666666666666</ele><time>2026-04-02T20:23:26.999Z</time></trkpt><trkpt lat="45.79772882042641" lon="12.145085357316754"><ele>161.33333333333331</ele><time>2026-04-02T20:23:27.999Z</time></trkpt><trkpt lat="45.79767350560652" lon="12.145152704393862"><ele>160.0</ele><time>2026-04-02T20:23:28.999Z</time></trkpt><trkpt lat="45.797616877227945" lon="12.14522152634878"><ele>158.66666666666666</ele><time>2026-04-02T20:23:29.998Z</time></trkpt><trkpt lat="45.797564887767365" lon="12.145288646393054"><ele>157.33333333333334</ele><time>2026-04-02T20:23:30.998Z</time></trkpt><trkpt lat="45.7974667377127" lon="12.14538219655656"><ele>156.0</ele><time>2026-04-02T20:23:32.998Z</time></trkpt><trkpt lat="45.79734947984106" lon="12.14545570602658"><ele>153.66666666666666</ele><time>2026-04-02T20:23:34.998Z</time></trkpt><trkpt lat="45.79729011122" lon="12.14550205053262"><ele>151.33333333333334</ele><time>2026-04-02T20:23:35.998Z</time></trkpt><trkpt lat="45.79722516421395" lon="12.14552834485941"><ele>149.0</ele><time>2026-04-02T20:23:36.998Z</time></trkpt><trkpt lat="45.79712257719179" lon="12.145546527749515"><ele>146.66666666666669</ele><time>2026-04-02T20:23:38.998Z</time></trkpt><trkpt lat="45.797067873286075" lon="12.14548650233297"><ele>144.33333333333334</ele><time>2026-04-02T20:23:40.998Z</time></trkpt><trkpt lat="45.797031594155" lon="12.145382198159767"><ele>142.0</ele><time>2026-04-02T20:23:42.998Z</time></trkpt><trkpt lat="45.79699287413377" lon="12.14529202382143"><ele>142.0</ele><time>2026-04-02T20:23:43.998Z</time></trkpt><trkpt lat="45.796939739170504" lon="12.145214661359645"><ele>142.0</ele><time>2026-04-02T20:23:44.998Z</time></trkpt><trkpt lat="45.796893979404295" lon="12.145115317949974"><ele>142.0</ele><time>2026-04-02T20:23:45.998Z</time></trkpt><trkpt lat="45.79683784162049" lon="12.145023094607632"><ele>142.0</ele><time>2026-04-02T20:23:46.998Z</time></trkpt><trkpt lat="45.79677979303649" lon="12.144943329347038"><ele>142.0</ele><time>2026-04-02T20:23:47.998Z</time></trkpt><trkpt lat="45.79671676064708" lon="12.144888723518715"><ele>142.0</ele><time>2026-04-02T20:23:49Z</time></trkpt><trkpt lat="45.79664616537502" lon="12.14487897122768"><ele>139.79999999999998</ele><time>2026-04-02T20:23:50Z</time></trkpt><trkpt lat="45.7965480452486" lon="12.14495536542313"><ele>137.6</ele><time>2026-04-02T20:23:52Z</time></trkpt><trkpt lat="45.79648564829155" lon="12.144986223010333"><ele>135.39999999999998</ele><time>2026-04-02T20:23:57Z</time></trkpt><trkpt lat="45.79653299629186" lon="12.144862386915142"><ele>133.2</ele><time>2026-04-02T20:24:07Z</time></trkpt><trkpt lat="45.79658044430966" lon="12.144760378860642"><ele>131.0</ele><time>2026-04-02T20:24:09Z</time></trkpt><trkpt lat="45.79663849858275" lon="12.14463260849265"><ele>131.0</ele><time>2026-04-02T20:24:11Z</time></trkpt><trkpt lat="45.796677899669916" lon="12.14454756974234"><ele>131.0</ele><time>2026-04-02T20:24:12Z</time></trkpt><trkpt lat="45.79671749832121" lon="12.144453943317346"><ele>131.0</ele><time>2026-04-02T20:24:13Z</time></trkpt><trkpt lat="45.79678032036007" lon="12.144382829961643"><ele>131.0</ele><time>2026-04-02T20:24:14Z</time></trkpt><trkpt lat="45.79682206673596" lon="12.144287416672443"><ele>131.0</ele><time>2026-04-02T20:24:15Z</time></trkpt><trkpt lat="45.796859179330184" lon="12.14420395666385"><ele>131.0</ele><time>2026-04-02T20:24:16Z</time></trkpt><trkpt lat="45.79689728567249" lon="12.144120381920555"><ele>131.0</ele><time>2026-04-02T20:24:17Z</time></trkpt><trkpt lat="45.79697952887063" lon="12.143983036946892"><ele>133.5</ele><time>2026-04-02T20:24:19Z</time></trkpt><trkpt lat="45.79702396882526" lon="12.14391032979249"><ele>136.0</ele><time>2026-04-02T20:24:20Z</time></trkpt><trkpt lat="45.79706699166716" lon="12.143822470037511"><ele>138.5</ele><time>2026-04-02T20:24:21Z</time></trkpt><trkpt lat="45.79708237717867" lon="12.143719469650886"><ele>141.0</ele><time>2026-04-02T20:24:22Z</time></trkpt><trkpt lat="45.797109505882304" lon="12.143515143521515"><ele>143.5</ele><time>2026-04-02T20:24:23.999Z</time></trkpt><trkpt lat="45.79711905913815" lon="12.143410240695024"><ele>146.0</ele><time>2026-04-02T20:24:24.999Z</time></trkpt><trkpt lat="45.79713488182543" lon="12.14330920297088"><ele>146.0</ele><time>2026-04-02T20:24:25.999Z</time></trkpt><trkpt lat="45.79714926230408" lon="12.143217130535673"><ele>146.0</ele><time>2026-04-02T20:24:26.999Z</time></trkpt><trkpt lat="45.79718950188719" lon="12.14307130640335"><ele>146.0</ele><time>2026-04-02T20:24:28.999Z</time></trkpt><trkpt lat="45.797250197449586" lon="12.14296294342623"><ele>146.0</ele><time>2026-04-02T20:24:30.999Z</time></trkpt><trkpt lat="45.797340364482686" lon="12.142850991420344"><ele>146.0</ele><time>2026-04-02T20:24:32.999Z</time></trkpt><trkpt lat="45.79742929699287" lon="12.142729114257556"><ele>147.0</ele><time>2026-04-02T20:24:34.999Z</time></trkpt><trkpt lat="45.79753388262649" lon="12.142649286496756"><ele>148.0</ele><time>2026-04-02T20:24:36.999Z</time></trkpt><trkpt lat="45.79764596557054" lon="12.142571870198468"><ele>149.0</ele><time>2026-04-02T20:24:38.999Z</time></trkpt><trkpt lat="45.79775156377086" lon="12.142498678429195"><ele>150.0</ele><time>2026-04-02T20:24:40.999Z</time></trkpt><trkpt lat="45.797807350626684" lon="12.142451066129748"><ele>151.0</ele><time>2026-04-02T20:24:41.999Z</time></trkpt><trkpt lat="45.79789439663468" lon="12.142343463756788"><ele>155.0</ele><time>2026-04-02T20:24:43.999Z</time></trkpt><trkpt lat="45.797916873710484" lon="12.142250034440792"><ele>159.0</ele><time>2026-04-02T20:24:44.999Z</time></trkpt><trkpt lat="45.79791307953681" lon="12.14214839701557"><ele>163.0</ele><time>2026-04-02T20:24:45.999Z</time></trkpt><trkpt lat="45.79792392721532" lon="12.141979383241589"><ele>167.0</ele><time>2026-04-02T20:24:47.999Z</time></trkpt><trkpt lat="45.7979421460163" lon="12.141817541696899"><ele>171.0</ele><time>2026-04-02T20:24:49.999Z</time></trkpt><trkpt lat="45.79797040880947" lon="12.141660197321887"><ele>170.66666666666666</ele><time>2026-04-02T20:24:51.999Z</time></trkpt><trkpt lat="45.79802963312363" lon="12.141521133807847"><ele>170.33333333333334</ele><time>2026-04-02T20:24:53.999Z</time></trkpt><trkpt lat="45.7980649441448" lon="12.14144072736848"><ele>170.0</ele><time>2026-04-02T20:24:54.999Z</time></trkpt><trkpt lat="45.79809633740024" lon="12.141356500850955"><ele>169.66666666666669</ele><time>2026-04-02T20:24:55.999Z</time></trkpt><trkpt lat="45.79810274648453" lon="12.141257209809787"><ele>169.33333333333334</ele><time>2026-04-02T20:24:56.999Z</time></trkpt><trkpt lat="45.79812264358297" lon="12.141159037085346"><ele>169.0</ele><time>2026-04-02T20:24:57.999Z</time></trkpt><trkpt lat="45.7981186978877" lon="12.141049257916125"><ele>169.0</ele><time>2026-04-02T20:24:58.999Z</time></trkpt><trkpt lat="45.79809879834328" lon="12.140954133743092"><ele>169.0</ele><time>2026-04-02T20:24:59.999Z</time></trkpt><trkpt lat="45.7980763977343" lon="12.140856624396386"><ele>169.0</ele><time>2026-04-02T20:25:00.999Z</time></trkpt><trkpt lat="45.79806288918451" lon="12.140767376619058"><ele>169.0</ele><time>2026-04-02T20:25:01.999Z</time></trkpt><trkpt lat="45.79804439402208" lon="12.140598201813292"><ele>169.0</ele><time>2026-04-02T20:25:03.999Z</time></trkpt><trkpt lat="45.798083554884705" lon="12.140524421835638"><ele>169.0</ele><time>2026-04-02T20:25:04.999Z</time></trkpt><trkpt lat="45.79815587508875" lon="12.140408417526796"><ele>169.16666666666669</ele><time>2026-04-02T20:25:06.999Z</time></trkpt><trkpt lat="45.79827042251327" lon="12.140321621566745"><ele>169.33333333333334</ele><time>2026-04-02T20:25:08.999Z</time></trkpt><trkpt lat="45.79833666108628" lon="12.140252632367561"><ele>169.5</ele><time>2026-04-02T20:25:09.999Z</time></trkpt><trkpt lat="45.79841500587628" lon="12.140204609665645"><ele>169.66666666666666</ele><time>2026-04-02T20:25:10.999Z</time></trkpt><trkpt lat="45.79846546792322" lon="12.14013078569935"><ele>169.83333333333331</ele><time>2026-04-02T20:25:11.999Z</time></trkpt><trkpt lat="45.79851170146164" lon="12.140057739569809"><ele>170.0</ele><time>2026-04-02T20:25:12.999Z</time></trkpt><trkpt lat="45.79855401349548" lon="12.139963732540693"><ele>171.33333333333331</ele><time>2026-04-02T20:25:13.999Z</time></trkpt><trkpt lat="45.79857952519778" lon="12.139870648067252"><ele>172.66666666666666</ele><time>2026-04-02T20:25:14.999Z</time></trkpt><trkpt lat="45.79855967631539" lon="12.139743259309164"><ele>174.0</ele><time>2026-04-02T20:25:15.999Z</time></trkpt><trkpt lat="45.79858764533589" lon="12.139651025377052"><ele>175.33333333333334</ele><time>2026-04-02T20:25:16.999Z</time></trkpt><trkpt lat="45.798617895734424" lon="12.139501242974275"><ele>176.66666666666669</ele><time>2026-04-02T20:25:18.999Z</time></trkpt><trkpt lat="45.798680724718295" lon="12.13940790293429"><ele>178.0</ele><time>2026-04-02T20:25:20.999Z</time></trkpt><trkpt lat="45.7987716793406" lon="12.139426104861085"><ele>178.0</ele><time>2026-04-02T20:25:22.999Z</time></trkpt><trkpt lat="45.79888233700034" lon="12.139454836771767"><ele>178.0</ele><time>2026-04-02T20:25:24.999Z</time></trkpt><trkpt lat="45.79899120158245" lon="12.139456831102088"><ele>178.0</ele><time>2026-04-02T20:25:26.999Z</time></trkpt><trkpt lat="45.799107956567596" lon="12.139441006299496"><ele>178.0</ele><time>2026-04-02T20:25:28.999Z</time></trkpt><trkpt lat="45.799207836447934" lon="12.139470954501563"><ele>178.0</ele><time>2026-04-02T20:25:30.999Z</time></trkpt><trkpt lat="45.79928749337551" lon="12.139476394988638"><ele>179.8</ele><time>2026-04-02T20:25:32.999Z</time></trkpt><trkpt lat="45.7993613447901" lon="12.139453019166986"><ele>181.60000000000002</ele><time>2026-04-02T20:25:34.999Z</time></trkpt><trkpt lat="45.799439503146864" lon="12.139451169888925"><ele>183.39999999999998</ele><time>2026-04-02T20:25:36.999Z</time></trkpt><trkpt lat="45.79952448743206" lon="12.139443982188117"><ele>185.2</ele><time>2026-04-02T20:25:38.999Z</time></trkpt><trkpt lat="45.79960728056714" lon="12.13934573586637"><ele>187.0</ele><time>2026-04-02T20:25:40.999Z</time></trkpt><trkpt lat="45.79969367657555" lon="12.139217594733168"><ele>187.0</ele><time>2026-04-02T20:25:42.999Z</time></trkpt><trkpt lat="45.79972646252127" lon="12.139134444577667"><ele>187.0</ele><time>2026-04-02T20:25:43.999Z</time></trkpt><trkpt lat="45.79976816476627" lon="12.139047408744439"><ele>187.0</ele><time>2026-04-02T20:25:44.999Z</time></trkpt><trkpt lat="45.79979941254986" lon="12.138941393770404"><ele>187.0</ele><time>2026-04-02T20:25:45.999Z</time></trkpt><trkpt lat="45.79982642443623" lon="12.138850660139733"><ele>187.0</ele><time>2026-04-02T20:25:46.999Z</time></trkpt><trkpt lat="45.799859645321426" lon="12.138759174859594"><ele>187.0</ele><time>2026-04-02T20:25:47.999Z</time></trkpt><trkpt lat="45.79990078439781" lon="12.138685619877805"><ele>187.0</ele><time>2026-04-02T20:25:48.999Z</time></trkpt><trkpt lat="45.79998938554319" lon="12.138595668756547"><ele>187.7142857142857</ele><time>2026-04-02T20:25:50.999Z</time></trkpt><trkpt lat="45.80004960899509" lon="12.138554417799455"><ele>188.42857142857144</ele><time>2026-04-02T20:25:51.999Z</time></trkpt><trkpt lat="45.800112245522584" lon="12.138523173347645"><ele>189.14285714285714</ele><time>2026-04-02T20:25:52.999Z</time></trkpt><trkpt lat="45.80017706917901" lon="12.138497208287612"><ele>189.85714285714283</ele><time>2026-04-02T20:25:53.999Z</time></trkpt><trkpt lat="45.80024326188611" lon="12.138472240597062"><ele>190.57142857142856</ele><time>2026-04-02T20:25:55Z</time></trkpt><trkpt lat="45.8003163924542" lon="12.138466918897674"><ele>191.28571428571428</ele><time>2026-04-02T20:25:56Z</time></trkpt><trkpt lat="45.80038440827725" lon="12.138477449327612"><ele>192.0</ele><time>2026-04-02T20:25:57Z</time></trkpt><trkpt lat="45.80044719446613" lon="12.138523515061385"><ele>193.33333333333334</ele><time>2026-04-02T20:25:58Z</time></trkpt><trkpt lat="45.80051346189356" lon="12.138575691230734"><ele>194.66666666666669</ele><time>2026-04-02T20:25:59Z</time></trkpt><trkpt lat="45.80056674000115" lon="12.138630098371326"><ele>196.0</ele><time>2026-04-02T20:26:00Z</time></trkpt><trkpt lat="45.80062430765416" lon="12.138690438226604"><ele>197.33333333333334</ele><time>2026-04-02T20:26:01Z</time></trkpt><trkpt lat="45.800687385606665" lon="12.138734654605107"><ele>198.66666666666669</ele><time>2026-04-02T20:26:02Z</time></trkpt><trkpt lat="45.800728807722784" lon="12.138802835221666"><ele>200.0</ele><time>2026-04-02T20:26:03Z</time></trkpt><trkpt lat="45.80080907866658" lon="12.138916067911065"><ele>200.0</ele><time>2026-04-02T20:26:05Z</time></trkpt><trkpt lat="45.80088305936879" lon="12.13896584519771"><ele>200.0</ele><time>2026-04-02T20:26:09Z</time></trkpt><trkpt lat="45.800955986841956" lon="12.139009159685735"><ele>200.0</ele><time>2026-04-02T20:26:11Z</time></trkpt><trkpt lat="45.80105149854196" lon="12.13903139788445"><ele>200.0</ele><time>2026-04-02T20:26:13Z</time></trkpt><trkpt lat="45.80115218280328" lon="12.139032393566074"><ele>200.0</ele><time>2026-04-02T20:26:15Z</time></trkpt><trkpt lat="45.80126777792395" lon="12.138995526955856"><ele>202.0</ele><time>2026-04-02T20:26:17Z</time></trkpt><trkpt lat="45.80139959145526" lon="12.138943511735972"><ele>204.0</ele><time>2026-04-02T20:26:19Z</time></trkpt><trkpt lat="45.80146248343023" lon="12.138918359738744"><ele>206.0</ele><time>2026-04-02T20:26:20Z</time></trkpt><trkpt lat="45.80157099031351" lon="12.13886698167121"><ele>208.0</ele><time>2026-04-02T20:26:22Z</time></trkpt><trkpt lat="45.80167948140858" lon="12.138837680296726"><ele>210.0</ele><time>2026-04-02T20:26:24Z</time></trkpt><trkpt lat="45.80179567571348" lon="12.138749939335712"><ele>210.16666666666666</ele><time>2026-04-02T20:26:26Z</time></trkpt><trkpt lat="45.801857802336876" lon="12.138676236708186"><ele>210.33333333333331</ele><time>2026-04-02T20:26:27Z</time></trkpt><trkpt lat="45.80191719016264" lon="12.138591531303707"><ele>210.5</ele><time>2026-04-02T20:26:28Z</time></trkpt><trkpt lat="45.80198379195547" lon="12.138500715246467"><ele>210.66666666666666</ele><time>2026-04-02T20:26:29Z</time></trkpt><trkpt lat="45.802051020663875" lon="12.138402209389056"><ele>210.83333333333331</ele><time>2026-04-02T20:26:30Z</time></trkpt><trkpt lat="45.802126406039065" lon="12.13834237494257"><ele>211.0</ele><time>2026-04-02T20:26:31Z</time></trkpt><trkpt lat="45.80219484715608" lon="12.138271563357254"><ele>212.16666666666666</ele><time>2026-04-02T20:26:32Z</time></trkpt><trkpt lat="45.80225873429872" lon="12.138194769944098"><ele>213.33333333333331</ele><time>2026-04-02T20:26:33Z</time></trkpt><trkpt lat="45.8023304310781" lon="12.138170529497225"><ele>214.5</ele><time>2026-04-02T20:26:34Z</time></trkpt><trkpt lat="45.802405609139264" lon="12.138146700607253"><ele>215.66666666666669</ele><time>2026-04-02T20:26:35Z</time></trkpt><trkpt lat="45.802484525625495" lon="12.13813363453081"><ele>216.83333333333334</ele><time>2026-04-02T20:26:36Z</time></trkpt><trkpt lat="45.8025845505438" lon="12.13810052092462"><ele>218.0</ele><time>2026-04-02T20:26:37Z</time></trkpt><trkpt lat="45.80268469496546" lon="12.138064429753298"><ele>218.0</ele><time>2026-04-02T20:26:38Z</time></trkpt><trkpt lat="45.802788338629796" lon="12.138028838239151"><ele>218.0</ele><time>2026-04-02T20:26:39Z</time></trkpt><trkpt lat="45.80288579493447" lon="12.137996003723796"><ele>218.0</ele><time>2026-04-02T20:26:40Z</time></trkpt><trkpt lat="45.80297898989772" lon="12.137958044937793"><ele>218.0</ele><time>2026-04-02T20:26:41Z</time></trkpt><trkpt lat="45.80306292727328" lon="12.137902758057347"><ele>218.0</ele><time>2026-04-02T20:26:42Z</time></trkpt><trkpt lat="45.80313192093595" lon="12.137818786499283"><ele>218.00000000000003</ele><time>2026-04-02T20:26:43Z</time></trkpt><trkpt lat="45.80319240499743" lon="12.137729371282848"><ele>218.0</ele><time>2026-04-02T20:26:44Z</time></trkpt><trkpt lat="45.80326818361051" lon="12.137678848725617"><ele>218.0</ele><time>2026-04-02T20:26:45Z</time></trkpt><trkpt lat="45.803334321541094" lon="12.137633763336042"><ele>218.0</ele><time>2026-04-02T20:26:46Z</time></trkpt><trkpt lat="45.80340090327088" lon="12.137611483431137"><ele>218.00000000000003</ele><time>2026-04-02T20:26:47Z</time></trkpt><trkpt lat="45.80347247123611" lon="12.137601716977521"><ele>218.0</ele><time>2026-04-02T20:26:48Z</time></trkpt><trkpt lat="45.803544814496604" lon="12.137603640197607"><ele>219.50000000000003</ele><time>2026-04-02T20:26:49Z</time></trkpt><trkpt lat="45.803608740652216" lon="12.13758938743129"><ele>221.0</ele><time>2026-04-02T20:26:49.999Z</time></trkpt><trkpt lat="45.80370485179479" lon="12.137584478880605"><ele>222.5</ele><time>2026-04-02T20:26:50.999Z</time></trkpt><trkpt lat="45.80379933802504" lon="12.13760196081441"><ele>224.0</ele><time>2026-04-02T20:26:51.999Z</time></trkpt><trkpt lat="45.8038930741734" lon="12.13759524628963"><ele>225.50000000000003</ele><time>2026-04-02T20:26:52.999Z</time></trkpt><trkpt lat="45.80398742444977" lon="12.137559964209952"><ele>227.0</ele><time>2026-04-02T20:26:53.999Z</time></trkpt><trkpt lat="45.80408349201995" lon="12.137546846904323"><ele>227.0</ele><time>2026-04-02T20:26:54.999Z</time></trkpt><trkpt lat="45.80417672448492" lon="12.137576470402939"><ele>227.0</ele><time>2026-04-02T20:26:55.999Z</time></trkpt><trkpt lat="45.80427623468737" lon="12.137571621932224"><ele>227.0</ele><time>2026-04-02T20:26:56.999Z</time></trkpt><trkpt lat="45.80436914446613" lon="12.137604758125226"><ele>227.0</ele><time>2026-04-02T20:26:57.999Z</time></trkpt><trkpt lat="45.80446679273022" lon="12.137645148851211"><ele>227.0</ele><time>2026-04-02T20:26:58.999Z</time></trkpt><trkpt lat="45.80456376608357" lon="12.137678268833222"><ele>227.8</ele><time>2026-04-02T20:26:59.999Z</time></trkpt><trkpt lat="45.804658616713475" lon="12.137672759184012"><ele>228.6</ele><time>2026-04-02T20:27:00.999Z</time></trkpt><trkpt lat="45.804747220900445" lon="12.137647300474741"><ele>229.40000000000003</ele><time>2026-04-02T20:27:01.999Z</time></trkpt><trkpt lat="45.80483106833141" lon="12.137612873857996"><ele>230.20000000000002</ele><time>2026-04-02T20:27:02.999Z</time></trkpt><trkpt lat="45.80492606336333" lon="12.13757613799076"><ele>231.0</ele><time>2026-04-02T20:27:03.999Z</time></trkpt><trkpt lat="45.80501861807615" lon="12.137597794416049"><ele>231.0</ele><time>2026-04-02T20:27:04.999Z</time></trkpt><trkpt lat="45.80510967347991" lon="12.137598771070326"><ele>231.0</ele><time>2026-04-02T20:27:05.999Z</time></trkpt><trkpt lat="45.805199540572744" lon="12.137633477251308"><ele>231.0</ele><time>2026-04-02T20:27:06.999Z</time></trkpt><trkpt lat="45.805278918399566" lon="12.137673543684441"><ele>231.0</ele><time>2026-04-02T20:27:07.999Z</time></trkpt><trkpt lat="45.805349931764326" lon="12.137739982345725"><ele>231.0</ele><time>2026-04-02T20:27:08.999Z</time></trkpt><trkpt lat="45.805410109611714" lon="12.137829229995072"><ele>231.0</ele><time>2026-04-02T20:27:09.999Z</time></trkpt><trkpt lat="45.805465932574684" lon="12.137895102885892"><ele>230.83333333333334</ele><time>2026-04-02T20:27:10.999Z</time></trkpt><trkpt lat="45.805528697496314" lon="12.137932037808147"><ele>230.66666666666669</ele><time>2026-04-02T20:27:11.999Z</time></trkpt><trkpt lat="45.80559663415248" lon="12.137938604674359"><ele>230.5</ele><time>2026-04-02T20:27:12.999Z</time></trkpt><trkpt lat="45.80566131850184" lon="12.137909086003814"><ele>230.33333333333334</ele><time>2026-04-02T20:27:13.999Z</time></trkpt><trkpt lat="45.80573490307916" lon="12.137868307235346"><ele>230.16666666666669</ele><time>2026-04-02T20:27:14.999Z</time></trkpt><trkpt lat="45.80581347040143" lon="12.13779557958202"><ele>230.0</ele><time>2026-04-02T20:27:15.999Z</time></trkpt><trkpt lat="45.80588914152503" lon="12.13772341696073"><ele>230.00000000000003</ele><time>2026-04-02T20:27:16.999Z</time></trkpt><trkpt lat="45.80595711064399" lon="12.137653580272064"><ele>230.0</ele><time>2026-04-02T20:27:17.999Z</time></trkpt><trkpt lat="45.806012930714395" lon="12.137564389609636"><ele>230.0</ele><time>2026-04-02T20:27:18.999Z</time></trkpt><trkpt lat="45.80606121308967" lon="12.13746828430912"><ele>230.0</ele><time>2026-04-02T20:27:19.999Z</time></trkpt><trkpt lat="45.80610000225591" lon="12.137374038394663"><ele>230.00000000000003</ele><time>2026-04-02T20:27:20.999Z</time></trkpt><trkpt lat="45.806161448031055" lon="12.137290389046068"><ele>230.0</ele><time>2026-04-02T20:27:21.999Z</time></trkpt><trkpt lat="45.806196310574165" lon="12.137202326960047"><ele>231.16666666666669</ele><time>2026-04-02T20:27:22.999Z</time></trkpt><trkpt lat="45.80625700344649" lon="12.137098844792467"><ele>232.33333333333334</ele><time>2026-04-02T20:27:24.999Z</time></trkpt><trkpt lat="45.80632720629901" lon="12.13709439826352"><ele>233.5</ele><time>2026-04-02T20:27:26.999Z</time></trkpt><trkpt lat="45.806416981382675" lon="12.1371047555484"><ele>234.66666666666669</ele><time>2026-04-02T20:27:28.999Z</time></trkpt><trkpt lat="45.80648238337221" lon="12.137106651133143"><ele>235.83333333333334</ele><time>2026-04-02T20:27:29.999Z</time></trkpt><trkpt lat="45.80655281389241" lon="12.137098135508452"><ele>237.0</ele><time>2026-04-02T20:27:30.999Z</time></trkpt><trkpt lat="45.80663853358176" lon="12.13706434821502"><ele>237.0</ele><time>2026-04-02T20:27:32.999Z</time></trkpt><trkpt lat="45.806707156465585" lon="12.137028317063773"><ele>237.0</ele><time>2026-04-02T20:27:34.999Z</time></trkpt><trkpt lat="45.806805302408236" lon="12.136983691670217"><ele>237.0</ele><time>2026-04-02T20:27:36.999Z</time></trkpt><trkpt lat="45.806939754321405" lon="12.136965312678116"><ele>237.0</ele><time>2026-04-02T20:27:38.999Z</time></trkpt><trkpt lat="45.80699847565335" lon="12.136998716697692"><ele>237.0</ele><time>2026-04-02T20:27:39.999Z</time></trkpt><trkpt lat="45.80709376453279" lon="12.137091730474143"><ele>236.66666666666666</ele><time>2026-04-02T20:27:41.999Z</time></trkpt><trkpt lat="45.80714425067106" lon="12.137159856658922"><ele>236.33333333333331</ele><time>2026-04-02T20:27:42.999Z</time></trkpt><trkpt lat="45.80719929328575" lon="12.137205244144972"><ele>236.0</ele><time>2026-04-02T20:27:43.999Z</time></trkpt><trkpt lat="45.807207281584446" lon="12.1373007179675"><ele>235.66666666666666</ele><time>2026-04-02T20:27:44.999Z</time></trkpt><trkpt lat="45.80721198830267" lon="12.13739541019469"><ele>235.33333333333331</ele><time>2026-04-02T20:27:45.999Z</time></trkpt><trkpt lat="45.807235642341126" lon="12.137570053068861"><ele>235.0</ele><time>2026-04-02T20:27:47.999Z</time></trkpt><trkpt lat="45.807346515984264" lon="12.137665765934827"><ele>234.99999999999997</ele><time>2026-04-02T20:27:49.999Z</time></trkpt><trkpt lat="45.80738365901699" lon="12.137761734555141"><ele>235.0</ele><time>2026-04-02T20:27:51.999Z</time></trkpt><trkpt lat="45.80743268474847" lon="12.137854417608823"><ele>235.0</ele><time>2026-04-02T20:27:53.999Z</time></trkpt><trkpt lat="45.807493107091325" lon="12.137933424678582"><ele>235.0</ele><time>2026-04-02T20:27:55.999Z</time></trkpt><trkpt lat="45.80758087125132" lon="12.137996521807707"><ele>234.99999999999997</ele><time>2026-04-02T20:27:57.999Z</time></trkpt><trkpt lat="45.80766406224715" lon="12.13802307777259"><ele>235.0</ele><time>2026-04-02T20:27:59.999Z</time></trkpt><trkpt lat="45.80774551469584" lon="12.137996213438907"><ele>236.33333333333331</ele><time>2026-04-02T20:28:02Z</time></trkpt><trkpt lat="45.80784891680183" lon="12.137985444592514"><ele>237.66666666666666</ele><time>2026-04-02T20:28:04Z</time></trkpt><trkpt lat="45.80794406035622" lon="12.137962210711363"><ele>239.0</ele><time>2026-04-02T20:28:06Z</time></trkpt><trkpt lat="45.80803760759288" lon="12.137972668612147"><ele>240.33333333333331</ele><time>2026-04-02T20:28:08Z</time></trkpt><trkpt lat="45.808066978289496" lon="12.138056950535587"><ele>241.66666666666666</ele><time>2026-04-02T20:28:09Z</time></trkpt><trkpt lat="45.80808211370063" lon="12.138149141844154"><ele>243.0</ele><time>2026-04-02T20:28:10Z</time></trkpt><trkpt lat="45.80808027722652" lon="12.138247596181019"><ele>243.0</ele><time>2026-04-02T20:28:11Z</time></trkpt><trkpt lat="45.808079436144716" lon="12.138341660769283"><ele>243.0</ele><time>2026-04-02T20:28:12Z</time></trkpt><trkpt lat="45.808073277152104" lon="12.138434616975196"><ele>243.0</ele><time>2026-04-02T20:28:13Z</time></trkpt><trkpt lat="45.808069280237255" lon="12.138533775765701"><ele>243.0</ele><time>2026-04-02T20:28:14Z</time></trkpt><trkpt lat="45.808083028298775" lon="12.138623323116075"><ele>243.0</ele><time>2026-04-02T20:28:15Z</time></trkpt><trkpt lat="45.80813382631786" lon="12.138780697224602"><ele>243.0</ele><time>2026-04-02T20:28:17Z</time></trkpt><trkpt lat="45.80817792769632" lon="12.138868925327733"><ele>243.0</ele><time>2026-04-02T20:28:18Z</time></trkpt><trkpt lat="45.808216895390785" lon="12.138955419526823"><ele>243.0</ele><time>2026-04-02T20:28:19Z</time></trkpt><trkpt lat="45.80825057815462" lon="12.139050646412588"><ele>243.0</ele><time>2026-04-02T20:28:20Z</time></trkpt><trkpt lat="45.808286350592596" lon="12.139153416693176"><ele>243.0</ele><time>2026-04-02T20:28:21Z</time></trkpt><trkpt lat="45.80831507093813" lon="12.139255539587714"><ele>243.0</ele><time>2026-04-02T20:28:22Z</time></trkpt><trkpt lat="45.80831406924557" lon="12.139371512118505"><ele>243.0</ele><time>2026-04-02T20:28:23Z</time></trkpt><trkpt lat="45.80834009366554" lon="12.139465589353154"><ele>241.83333333333334</ele><time>2026-04-02T20:28:24Z</time></trkpt><trkpt lat="45.808334504238374" lon="12.139602723314681"><ele>240.66666666666669</ele><time>2026-04-02T20:28:25Z</time></trkpt><trkpt lat="45.80834230114903" lon="12.139723295862499"><ele>239.5</ele><time>2026-04-02T20:28:26Z</time></trkpt><trkpt lat="45.80836273744328" lon="12.139838766524496"><ele>238.33333333333334</ele><time>2026-04-02T20:28:27Z</time></trkpt><trkpt lat="45.80840406911165" lon="12.139938889430534"><ele>237.16666666666669</ele><time>2026-04-02T20:28:28Z</time></trkpt><trkpt lat="45.80842178998771" lon="12.140037962460404"><ele>236.0</ele><time>2026-04-02T20:28:29Z</time></trkpt><trkpt lat="45.80847107884589" lon="12.140122963002765"><ele>234.83333333333334</ele><time>2026-04-02T20:28:30Z</time></trkpt><trkpt lat="45.80853194172886" lon="12.140197699264439"><ele>233.66666666666669</ele><time>2026-04-02T20:28:31Z</time></trkpt><trkpt lat="45.80860754102187" lon="12.14026409302868"><ele>232.5</ele><time>2026-04-02T20:28:32Z</time></trkpt><trkpt lat="45.80868945761765" lon="12.140301688294072"><ele>231.33333333333331</ele><time>2026-04-02T20:28:33Z</time></trkpt><trkpt lat="45.8087823295156" lon="12.140327446709213"><ele>230.16666666666666</ele><time>2026-04-02T20:28:34Z</time></trkpt><trkpt lat="45.80887471825679" lon="12.140349006690908"><ele>229.0</ele><time>2026-04-02T20:28:35Z</time></trkpt><trkpt lat="45.80896872770063" lon="12.140359756073522"><ele>229.0</ele><time>2026-04-02T20:28:36Z</time></trkpt><trkpt lat="45.80906298833568" lon="12.140365667086643"><ele>228.99999999999997</ele><time>2026-04-02T20:28:37Z</time></trkpt><trkpt lat="45.809161150647036" lon="12.140370883031318"><ele>228.99999999999997</ele><time>2026-04-02T20:28:38Z</time></trkpt><trkpt lat="45.80926504234408" lon="12.140360756342314"><ele>229.0</ele><time>2026-04-02T20:28:39Z</time></trkpt><trkpt lat="45.8093692855434" lon="12.140345787715937"><ele>229.0</ele><time>2026-04-02T20:28:40Z</time></trkpt><trkpt lat="45.80947625817128" lon="12.140329043276715"><ele>229.6</ele><time>2026-04-02T20:28:41Z</time></trkpt><trkpt lat="45.80958422636758" lon="12.140311132948407"><ele>230.2</ele><time>2026-04-02T20:28:42Z</time></trkpt><trkpt lat="45.80968771826615" lon="12.140287067703962"><ele>230.79999999999998</ele><time>2026-04-02T20:28:43Z</time></trkpt><trkpt lat="45.80978935556709" lon="12.140264780565358"><ele>231.39999999999998</ele><time>2026-04-02T20:28:44Z</time></trkpt><trkpt lat="45.80989323906397" lon="12.140271719616592"><ele>232.0</ele><time>2026-04-02T20:28:45Z</time></trkpt><trkpt lat="45.80998194193297" lon="12.14031125880709"><ele>231.99999999999997</ele><time>2026-04-02T20:28:46Z</time></trkpt><trkpt lat="45.810064588498456" lon="12.140367998728971"><ele>232.0</ele><time>2026-04-02T20:28:47Z</time></trkpt><trkpt lat="45.810141151949786" lon="12.140384819115093"><ele>232.0</ele><time>2026-04-02T20:28:48Z</time></trkpt><trkpt lat="45.81020813744083" lon="12.140427657930644"><ele>232.0</ele><time>2026-04-02T20:28:49Z</time></trkpt><trkpt lat="45.81029269047163" lon="12.140405983125325"><ele>231.99999999999997</ele><time>2026-04-02T20:28:50Z</time></trkpt><trkpt lat="45.81037155794134" lon="12.140362764358231"><ele>232.0</ele><time>2026-04-02T20:28:51Z</time></trkpt><trkpt lat="45.81046220725117" lon="12.140331492825611"><ele>233.16666666666666</ele><time>2026-04-02T20:28:52Z</time></trkpt><trkpt lat="45.810543826826134" lon="12.140267756528418"><ele>234.33333333333331</ele><time>2026-04-02T20:28:53Z</time></trkpt><trkpt lat="45.81062534741411" lon="12.140214247015365"><ele>235.5</ele><time>2026-04-02T20:28:54Z</time></trkpt><trkpt lat="45.81070177598554" lon="12.140167613092895"><ele>236.66666666666669</ele><time>2026-04-02T20:28:55Z</time></trkpt><trkpt lat="45.81077071283625" lon="12.14012555034327"><ele>237.83333333333334</ele><time>2026-04-02T20:28:56Z</time></trkpt><trkpt lat="45.8108327707689" lon="12.140087684858198"><ele>239.0</ele><time>2026-04-02T20:28:57Z</time></trkpt><trkpt lat="45.81092416460716" lon="12.140029951759479"><ele>238.66666666666669</ele><time>2026-04-02T20:28:59Z</time></trkpt><trkpt lat="45.81093943162458" lon="12.139836195614002"><ele>238.33333333333334</ele><time>2026-04-02T20:29:02Z</time></trkpt><trkpt lat="45.8109483709049" lon="12.139743286571818"><ele>238.0</ele><time>2026-04-02T20:29:03Z</time></trkpt><trkpt lat="45.81094481958052" lon="12.139636112813122"><ele>237.66666666666669</ele><time>2026-04-02T20:29:04Z</time></trkpt><trkpt lat="45.81094706115096" lon="12.139512016961088"><ele>237.33333333333334</ele><time>2026-04-02T20:29:05Z</time></trkpt><trkpt lat="45.81094738604134" lon="12.13938901210786"><ele>237.0</ele><time>2026-04-02T20:29:06Z</time></trkpt><trkpt lat="45.81094255683067" lon="12.13928795245924"><ele>236.99999999999997</ele><time>2026-04-02T20:29:07Z</time></trkpt><trkpt lat="45.81093262081778" lon="12.139197218162684"><ele>237.0</ele><time>2026-04-02T20:29:08Z</time></trkpt><trkpt lat="45.81090183486054" lon="12.139103600392236"><ele>236.99999999999997</ele><time>2026-04-02T20:29:09Z</time></trkpt><trkpt lat="45.81084274421582" lon="12.139032676602797"><ele>236.99999999999997</ele><time>2026-04-02T20:29:10Z</time></trkpt><trkpt lat="45.810780438929136" lon="12.138976177921295"><ele>237.0</ele><time>2026-04-02T20:29:11Z</time></trkpt><trkpt lat="45.810704879549974" lon="12.138943777929667"><ele>236.99999999999997</ele><time>2026-04-02T20:29:12Z</time></trkpt><trkpt lat="45.81065323319427" lon="12.138875245474166"><ele>236.99999999999997</ele><time>2026-04-02T20:29:13Z</time></trkpt><trkpt lat="45.810548171664436" lon="12.138795991442546"><ele>237.39999999999998</ele><time>2026-04-02T20:29:14.999Z</time></trkpt><trkpt lat="45.810462264194854" lon="12.138710727563446"><ele>237.79999999999998</ele><time>2026-04-02T20:29:16.999Z</time></trkpt><trkpt lat="45.810408620980304" lon="12.138611678709163"><ele>238.2</ele><time>2026-04-02T20:29:18.999Z</time></trkpt><trkpt lat="45.81039779288067" lon="12.138480799486514"><ele>238.6</ele><time>2026-04-02T20:29:20.999Z</time></trkpt><trkpt lat="45.810423452051815" lon="12.138333744277935"><ele>239.0</ele><time>2026-04-02T20:29:22.999Z</time></trkpt><trkpt lat="45.81044142655338" lon="12.138236114646412"><ele>240.00000000000003</ele><time>2026-04-02T20:29:23.999Z</time></trkpt><trkpt lat="45.81046108858316" lon="12.138132500306366"><ele>241.0</ele><time>2026-04-02T20:29:24.999Z</time></trkpt><trkpt lat="45.81047997288609" lon="12.138017808962735"><ele>242.0</ele><time>2026-04-02T20:29:25.999Z</time></trkpt><trkpt lat="45.810491357601634" lon="12.137911523713115"><ele>243.0</ele><time>2026-04-02T20:29:26.999Z</time></trkpt><trkpt lat="45.81049548937756" lon="12.137812689369209"><ele>244.00000000000003</ele><time>2026-04-02T20:29:27.999Z</time></trkpt><trkpt lat="45.81050069393806" lon="12.137719193082027"><ele>245.0</ele><time>2026-04-02T20:29:28.999Z</time></trkpt><trkpt lat="45.81049293337481" lon="12.137538443914323"><ele>245.00000000000003</ele><time>2026-04-02T20:29:30.999Z</time></trkpt><trkpt lat="45.81047761131028" lon="12.137446317016574"><ele>245.0</ele><time>2026-04-02T20:29:31.999Z</time></trkpt><trkpt lat="45.810440231028565" lon="12.137364035494487"><ele>245.0</ele><time>2026-04-02T20:29:32.999Z</time></trkpt><trkpt lat="45.810385508560564" lon="12.137195498187051"><ele>245.0</ele><time>2026-04-02T20:29:34.999Z</time></trkpt><trkpt lat="45.81034179862267" lon="12.13711772931055"><ele>245.00000000000003</ele><time>2026-04-02T20:29:35.999Z</time></trkpt><trkpt lat="45.810292837755725" lon="12.137048283042288"><ele>245.0</ele><time>2026-04-02T20:29:36.999Z</time></trkpt><trkpt lat="45.810263937577766" lon="12.136951942410008"><ele>245.71428571428572</ele><time>2026-04-02T20:29:37.999Z</time></trkpt><trkpt lat="45.810226093374915" lon="12.136865069825342"><ele>246.42857142857144</ele><time>2026-04-02T20:29:38.999Z</time></trkpt><trkpt lat="45.81018474859757" lon="12.136778931837613"><ele>247.14285714285714</ele><time>2026-04-02T20:29:39.999Z</time></trkpt><trkpt lat="45.810171628982204" lon="12.136672635096431"><ele>247.85714285714286</ele><time>2026-04-02T20:29:40.999Z</time></trkpt><trkpt lat="45.8101784644244" lon="12.13657600568699"><ele>248.57142857142858</ele><time>2026-04-02T20:29:41.999Z</time></trkpt><trkpt lat="45.81020816294541" lon="12.136492412021013"><ele>249.28571428571428</ele><time>2026-04-02T20:29:42.999Z</time></trkpt><trkpt lat="45.81025693137285" lon="12.136416129176355"><ele>250.0</ele><time>2026-04-02T20:29:43.999Z</time></trkpt><trkpt lat="45.81031976745225" lon="12.13635613311557"><ele>250.83333333333331</ele><time>2026-04-02T20:29:44.999Z</time></trkpt><trkpt lat="45.81038938166485" lon="12.136308868674648"><ele>251.66666666666666</ele><time>2026-04-02T20:29:45.999Z</time></trkpt><trkpt lat="45.810448241922856" lon="12.136265445214999"><ele>252.5</ele><time>2026-04-02T20:29:46.999Z</time></trkpt><trkpt lat="45.810553033553234" lon="12.136163942755724"><ele>253.33333333333331</ele><time>2026-04-02T20:29:48.999Z</time></trkpt><trkpt lat="45.81059582997606" lon="12.136085751711029"><ele>254.16666666666666</ele><time>2026-04-02T20:29:49.999Z</time></trkpt><trkpt lat="45.81063324354674" lon="12.13599312956046"><ele>255.0</ele><time>2026-04-02T20:29:50.999Z</time></trkpt><trkpt lat="45.810665462531276" lon="12.13590082158513"><ele>255.0</ele><time>2026-04-02T20:29:51.999Z</time></trkpt><trkpt lat="45.81069749938595" lon="12.135806995964098"><ele>255.0</ele><time>2026-04-02T20:29:52.999Z</time></trkpt><trkpt lat="45.81072853148815" lon="12.135720587986947"><ele>255.0</ele><time>2026-04-02T20:29:53.999Z</time></trkpt><trkpt lat="45.81079339767981" lon="12.135557803068348"><ele>255.0</ele><time>2026-04-02T20:29:55.999Z</time></trkpt><trkpt lat="45.810825365183646" lon="12.135474592603483"><ele>255.0</ele><time>2026-04-02T20:29:56.999Z</time></trkpt><trkpt lat="45.81086058549697" lon="12.135382915173208"><ele>255.0</ele><time>2026-04-02T20:29:57.999Z</time></trkpt><trkpt lat="45.81089727470381" lon="12.135290986981724"><ele>255.5</ele><time>2026-04-02T20:29:58.999Z</time></trkpt><trkpt lat="45.81093873393855" lon="12.135194394223959"><ele>256.0</ele><time>2026-04-02T20:29:59.999Z</time></trkpt><trkpt lat="45.81098148758714" lon="12.135106813604853"><ele>256.5</ele><time>2026-04-02T20:30:00.999Z</time></trkpt><trkpt lat="45.811031080859095" lon="12.135020220013777"><ele>257.0</ele><time>2026-04-02T20:30:01.999Z</time></trkpt><trkpt lat="45.811085237524814" lon="12.134947999632665"><ele>257.5</ele><time>2026-04-02T20:30:02.999Z</time></trkpt><trkpt lat="45.811148610704414" lon="12.134879624425741"><ele>258.0</ele><time>2026-04-02T20:30:03.999Z</time></trkpt><trkpt lat="45.81121645784409" lon="12.134823967559393"><ele>258.8</ele><time>2026-04-02T20:30:04.999Z</time></trkpt><trkpt lat="45.81130131407078" lon="12.134766385026056"><ele>259.6</ele><time>2026-04-02T20:30:05.999Z</time></trkpt><trkpt lat="45.81139240203267" lon="12.134705721486489"><ele>260.4</ele><time>2026-04-02T20:30:07Z</time></trkpt><trkpt lat="45.81148390240706" lon="12.134644038004545"><ele>261.2</ele><time>2026-04-02T20:30:08Z</time></trkpt><trkpt lat="45.81157717505906" lon="12.134566873833855"><ele>262.0</ele><time>2026-04-02T20:30:09Z</time></trkpt><trkpt lat="45.811672243233076" lon="12.134510872141538"><ele>262.0</ele><time>2026-04-02T20:30:10Z</time></trkpt><trkpt lat="45.811769496167635" lon="12.13446101422209"><ele>262.0</ele><time>2026-04-02T20:30:11Z</time></trkpt><trkpt lat="45.81185472720358" lon="12.134413023476158"><ele>262.0</ele><time>2026-04-02T20:30:12Z</time></trkpt><trkpt lat="45.81193529605114" lon="12.134368051743936"><ele>262.0</ele><time>2026-04-02T20:30:13Z</time></trkpt><trkpt lat="45.81201511831185" lon="12.134325683358771"><ele>262.0</ele><time>2026-04-02T20:30:14Z</time></trkpt><trkpt lat="45.81209038784852" lon="12.134286081889536"><ele>262.0</ele><time>2026-04-02T20:30:15Z</time></trkpt><trkpt lat="45.812168726512155" lon="12.134244611714704"><ele>264.2</ele><time>2026-04-02T20:30:16Z</time></trkpt><trkpt lat="45.81225017469886" lon="12.134195824312867"><ele>266.4</ele><time>2026-04-02T20:30:17Z</time></trkpt><trkpt lat="45.812325843280505" lon="12.134151109518038"><ele>268.6</ele><time>2026-04-02T20:30:18Z</time></trkpt><trkpt lat="45.812395462311834" lon="12.134111145939066"><ele>270.8</ele><time>2026-04-02T20:30:19Z</time></trkpt><trkpt lat="45.812481845420464" lon="12.133984175441483"><ele>273.0</ele><time>2026-04-02T20:30:21Z</time></trkpt><trkpt lat="45.81252387342026" lon="12.13382643667165"><ele>273.0</ele><time>2026-04-02T20:30:23Z</time></trkpt><trkpt lat="45.812536268395405" lon="12.133737390143322"><ele>273.0</ele><time>2026-04-02T20:30:24Z</time></trkpt><trkpt lat="45.8126779750764" lon="12.133827051788705"><ele>273.0</ele><time>2026-04-02T20:30:33Z</time></trkpt><trkpt lat="45.81272933835376" lon="12.133899070384103"><ele>273.0</ele><time>2026-04-02T20:30:34Z</time></trkpt><trkpt lat="45.812773379847194" lon="12.133984152389766"><ele>273.0</ele><time>2026-04-02T20:30:35Z</time></trkpt><trkpt lat="45.8128241856419" lon="12.134072753918307"><ele>273.0</ele><time>2026-04-02T20:30:36Z</time></trkpt><trkpt lat="45.81287569151461" lon="12.134165011905374"><ele>272.3333333333333</ele><time>2026-04-02T20:30:37Z</time></trkpt><trkpt lat="45.81292571356919" lon="12.134260236603646"><ele>271.6666666666667</ele><time>2026-04-02T20:30:38Z</time></trkpt><trkpt lat="45.81299040055849" lon="12.134346519254596"><ele>271.0</ele><time>2026-04-02T20:30:39Z</time></trkpt><trkpt lat="45.813052178830446" lon="12.13443317369038"><ele>270.33333333333337</ele><time>2026-04-02T20:30:40Z</time></trkpt><trkpt lat="45.81311675220805" lon="12.134517905637772"><ele>269.6666666666667</ele><time>2026-04-02T20:30:41Z</time></trkpt><trkpt lat="45.81318491826776" lon="12.134617822078974"><ele>269.0</ele><time>2026-04-02T20:30:42Z</time></trkpt><trkpt lat="45.813261482436324" lon="12.134707097741657"><ele>269.0</ele><time>2026-04-02T20:30:43Z</time></trkpt><trkpt lat="45.81333636878277" lon="12.134794662292787"><ele>269.0</ele><time>2026-04-02T20:30:44Z</time></trkpt><trkpt lat="45.81341078989382" lon="12.134875747980837"><ele>269.0</ele><time>2026-04-02T20:30:45Z</time></trkpt><trkpt lat="45.813486334058375" lon="12.134949350760692"><ele>269.0</ele><time>2026-04-02T20:30:46Z</time></trkpt><trkpt lat="45.81355783790119" lon="12.1350115386279"><ele>269.0</ele><time>2026-04-02T20:30:47Z</time></trkpt><trkpt lat="45.813644485347076" lon="12.13500310441257"><ele>267.59999999999997</ele><time>2026-04-02T20:30:48Z</time></trkpt><trkpt lat="45.813719780957925" lon="12.134987903719638"><ele>266.2</ele><time>2026-04-02T20:30:49Z</time></trkpt><trkpt lat="45.81380234606096" lon="12.134932438414097"><ele>264.79999999999995</ele><time>2026-04-02T20:30:50Z</time></trkpt><trkpt lat="45.81389299212032" lon="12.134875173909142"><ele>263.4</ele><time>2026-04-02T20:30:51Z</time></trkpt><trkpt lat="45.81397032850332" lon="12.134783493617023"><ele>262.0</ele><time>2026-04-02T20:30:52Z</time></trkpt><trkpt lat="45.814042779778646" lon="12.134685396633605"><ele>262.0</ele><time>2026-04-02T20:30:53Z</time></trkpt><trkpt lat="45.81411859158514" lon="12.13458855312384"><ele>262.0</ele><time>2026-04-02T20:30:54Z</time></trkpt><trkpt lat="45.814191033251696" lon="12.134497458090044"><ele>262.0</ele><time>2026-04-02T20:30:55Z</time></trkpt><trkpt lat="45.81425484243361" lon="12.134403585096427"><ele>262.0</ele><time>2026-04-02T20:30:56Z</time></trkpt><trkpt lat="45.814327514943784" lon="12.134317686860095"><ele>262.0</ele><time>2026-04-02T20:30:57Z</time></trkpt><trkpt lat="45.81439665219835" lon="12.134225603001125"><ele>262.2</ele><time>2026-04-02T20:30:58Z</time></trkpt><trkpt lat="45.81447053138622" lon="12.134133559827667"><ele>262.4</ele><time>2026-04-02T20:30:59Z</time></trkpt><trkpt lat="45.814541753128644" lon="12.134037999275872"><ele>262.6</ele><time>2026-04-02T20:31:00Z</time></trkpt><trkpt lat="45.81461674391875" lon="12.133946527188705"><ele>262.8</ele><time>2026-04-02T20:31:01Z</time></trkpt><trkpt lat="45.81469306723866" lon="12.133858445819541"><ele>263.0</ele><time>2026-04-02T20:31:02Z</time></trkpt><trkpt lat="45.81476540316286" lon="12.133771818356722"><ele>264.2</ele><time>2026-04-02T20:31:03Z</time></trkpt><trkpt lat="45.814833899627864" lon="12.133683059390139"><ele>265.4</ele><time>2026-04-02T20:31:04Z</time></trkpt><trkpt lat="45.814905389736424" lon="12.133593152409137"><ele>266.59999999999997</ele><time>2026-04-02T20:31:05Z</time></trkpt><trkpt lat="45.814974178046604" lon="12.133507063026748"><ele>267.8</ele><time>2026-04-02T20:31:06Z</time></trkpt><trkpt lat="45.81504187923743" lon="12.133417666930379"><ele>269.0</ele><time>2026-04-02T20:31:07Z</time></trkpt><trkpt lat="45.81512464315372" lon="12.133344885675584"><ele>268.83333333333337</ele><time>2026-04-02T20:31:08Z</time></trkpt><trkpt lat="45.81521094790879" lon="12.133266370339909"><ele>268.6666666666667</ele><time>2026-04-02T20:31:09Z</time></trkpt><trkpt lat="45.81529617366809" lon="12.133186628094766"><ele>268.5</ele><time>2026-04-02T20:31:10Z</time></trkpt><trkpt lat="45.81537398749743" lon="12.133112967177812"><ele>268.3333333333333</ele><time>2026-04-02T20:31:11Z</time></trkpt><trkpt lat="45.815445126200956" lon="12.13306677566461"><ele>268.16666666666663</ele><time>2026-04-02T20:31:12Z</time></trkpt><trkpt lat="45.81550593797662" lon="12.133007994142966"><ele>268.0</ele><time>2026-04-02T20:31:13Z</time></trkpt><trkpt lat="45.81556772279342" lon="12.132942347017345"><ele>268.0</ele><time>2026-04-02T20:31:14Z</time></trkpt><trkpt lat="45.815619069631055" lon="12.132853308378"><ele>268.0</ele><time>2026-04-02T20:31:15Z</time></trkpt><trkpt lat="45.81568360745729" lon="12.132783978124886"><ele>268.0</ele><time>2026-04-02T20:31:16Z</time></trkpt><trkpt lat="45.81575330628187" lon="12.132712282964219"><ele>268.0</ele><time>2026-04-02T20:31:17Z</time></trkpt><trkpt lat="45.815815673558305" lon="12.132653297810911"><ele>268.0</ele><time>2026-04-02T20:31:18Z</time></trkpt><trkpt lat="45.81591560894842" lon="12.132591063167169"><ele>268.0</ele><time>2026-04-02T20:31:20Z</time></trkpt><trkpt lat="45.816010454794714" lon="12.132550947304646"><ele>267.8</ele><time>2026-04-02T20:31:22Z</time></trkpt><trkpt lat="45.816113792762486" lon="12.132516036927523"><ele>267.6</ele><time>2026-04-02T20:31:24Z</time></trkpt><trkpt lat="45.816158739821745" lon="12.132426160551327"><ele>267.4</ele><time>2026-04-02T20:31:28Z</time></trkpt><trkpt lat="45.81606999082926" lon="12.132310004856814"><ele>267.2</ele><time>2026-04-02T20:31:29Z</time></trkpt><trkpt lat="45.816011826768595" lon="12.13227281220037"><ele>267.0</ele><time>2026-04-02T20:31:30Z</time></trkpt><trkpt lat="45.81591159355538" lon="12.132198206687866"><ele>266.6666666666667</ele><time>2026-04-02T20:31:32Z</time></trkpt><trkpt lat="45.815847935372204" lon="12.132137111890406"><ele>266.3333333333333</ele><time>2026-04-02T20:31:33Z</time></trkpt><trkpt lat="45.8157757429219" lon="12.132058255592508"><ele>266.0</ele><time>2026-04-02T20:31:34Z</time></trkpt><trkpt lat="45.815696540778816" lon="12.131976176735941"><ele>265.66666666666663</ele><time>2026-04-02T20:31:35Z</time></trkpt><trkpt lat="45.815623930912516" lon="12.131909361922927"><ele>265.3333333333333</ele><time>2026-04-02T20:31:35.999Z</time></trkpt><trkpt lat="45.8155568858734" lon="12.131844142570886"><ele>265.0</ele><time>2026-04-02T20:31:36.999Z</time></trkpt><trkpt lat="45.81548417145308" lon="12.131768829434655"><ele>265.0</ele><time>2026-04-02T20:31:37.999Z</time></trkpt><trkpt lat="45.81540309410662" lon="12.131698643447843"><ele>265.0</ele><time>2026-04-02T20:31:38.999Z</time></trkpt><trkpt lat="45.81531588579104" lon="12.13161325925138"><ele>265.0</ele><time>2026-04-02T20:31:39.999Z</time></trkpt><trkpt lat="45.815223946223384" lon="12.131523274392656"><ele>265.0</ele><time>2026-04-02T20:31:40.999Z</time></trkpt><trkpt lat="45.815125809425055" lon="12.131425808190881"><ele>265.0</ele><time>2026-04-02T20:31:41.999Z</time></trkpt><trkpt lat="45.815018013697156" lon="12.131325221910565"><ele>267.0</ele><time>2026-04-02T20:31:42.999Z</time></trkpt><trkpt lat="45.8149128078352" lon="12.131207806025344"><ele>269.0</ele><time>2026-04-02T20:31:43.999Z</time></trkpt><trkpt lat="45.81481233674623" lon="12.13107455385759"><ele>271.0</ele><time>2026-04-02T20:31:44.999Z</time></trkpt><trkpt lat="45.814715733876405" lon="12.130933239030727"><ele>273.0</ele><time>2026-04-02T20:31:45.999Z</time></trkpt><trkpt lat="45.81462132512716" lon="12.130783688042104"><ele>275.5</ele><time>2026-04-02T20:31:46.999Z</time></trkpt><trkpt lat="45.81452789613759" lon="12.130636614742437"><ele>278.0</ele><time>2026-04-02T20:31:47.999Z</time></trkpt><trkpt lat="45.81443650001204" lon="12.13048679053853"><ele>280.5</ele><time>2026-04-02T20:31:48.999Z</time></trkpt><trkpt lat="45.814350319615514" lon="12.130344344588357"><ele>283.0</ele><time>2026-04-02T20:31:49.999Z</time></trkpt><trkpt lat="45.814269021153514" lon="12.130216516833903"><ele>284.4</ele><time>2026-04-02T20:31:50.998Z</time></trkpt><trkpt lat="45.81418817098613" lon="12.13010925714138"><ele>285.8</ele><time>2026-04-02T20:31:51.998Z</time></trkpt><trkpt lat="45.81411364012495" lon="12.130014388811487"><ele>287.2</ele><time>2026-04-02T20:31:52.998Z</time></trkpt><trkpt lat="45.81403586598868" lon="12.129930010027074"><ele>288.6</ele><time>2026-04-02T20:31:53.998Z</time></trkpt><trkpt lat="45.813952928774185" lon="12.129849640610194"><ele>290.0</ele><time>2026-04-02T20:31:54.998Z</time></trkpt><trkpt lat="45.81387786300139" lon="12.12976936493229"><ele>290.4</ele><time>2026-04-02T20:31:55.998Z</time></trkpt><trkpt lat="45.8138229685944" lon="12.129689100607674"><ele>290.8</ele><time>2026-04-02T20:31:56.998Z</time></trkpt><trkpt lat="45.813764544184714" lon="12.129562609553943"><ele>291.2</ele><time>2026-04-02T20:31:58.998Z</time></trkpt><trkpt lat="45.81366937249391" lon="12.12956541824168"><ele>291.6</ele><time>2026-04-02T20:32:01.998Z</time></trkpt><trkpt lat="45.81358057933238" lon="12.129670137183485"><ele>292.0</ele><time>2026-04-02T20:32:03.998Z</time></trkpt><trkpt lat="45.813533835926535" lon="12.129750920926936"><ele>292.16666666666663</ele><time>2026-04-02T20:32:04.998Z</time></trkpt><trkpt lat="45.81348877642457" lon="12.129843175997312"><ele>292.3333333333333</ele><time>2026-04-02T20:32:05.998Z</time></trkpt><trkpt lat="45.813447409969974" lon="12.129946272979664"><ele>292.5</ele><time>2026-04-02T20:32:06.998Z</time></trkpt><trkpt lat="45.813412273956764" lon="12.13006026307178"><ele>292.6666666666667</ele><time>2026-04-02T20:32:07.998Z</time></trkpt><trkpt lat="45.81338759021642" lon="12.130173691168558"><ele>292.83333333333337</ele><time>2026-04-02T20:32:08.998Z</time></trkpt><trkpt lat="45.81337328640405" lon="12.130317744999005"><ele>293.0</ele><time>2026-04-02T20:32:09.998Z</time></trkpt><trkpt lat="45.8133733744828" lon="12.130457373607326"><ele>292.2</ele><time>2026-04-02T20:32:10.998Z</time></trkpt><trkpt lat="45.813384243289256" lon="12.130617653851262"><ele>291.4</ele><time>2026-04-02T20:32:11.998Z</time></trkpt><trkpt lat="45.813361766468745" lon="12.130739293466524"><ele>290.59999999999997</ele><time>2026-04-02T20:32:12.999Z</time></trkpt><trkpt lat="45.813321620821384" lon="12.130863929276853"><ele>289.8</ele><time>2026-04-02T20:32:13.999Z</time></trkpt><trkpt lat="45.81326446552432" lon="12.131011750242637"><ele>289.0</ele><time>2026-04-02T20:32:14.999Z</time></trkpt><trkpt lat="45.81320602096785" lon="12.131142229064466"><ele>288.0</ele><time>2026-04-02T20:32:15.999Z</time></trkpt><trkpt lat="45.813139423888536" lon="12.131265390157134"><ele>287.0</ele><time>2026-04-02T20:32:16.999Z</time></trkpt><trkpt lat="45.81306815435449" lon="12.13137950120155"><ele>286.0</ele><time>2026-04-02T20:32:17.999Z</time></trkpt><trkpt lat="45.81299854904048" lon="12.131482886373439"><ele>285.0</ele><time>2026-04-02T20:32:18.999Z</time></trkpt><trkpt lat="45.81292772397341" lon="12.131585883475397"><ele>284.0</ele><time>2026-04-02T20:32:19.999Z</time></trkpt><trkpt lat="45.81286053976846" lon="12.131690082312105"><ele>283.59999999999997</ele><time>2026-04-02T20:32:20.999Z</time></trkpt><trkpt lat="45.812795117099974" lon="12.131799883618624"><ele>283.2</ele><time>2026-04-02T20:32:21.999Z</time></trkpt><trkpt lat="45.81273584538793" lon="12.131914976824202"><ele>282.79999999999995</ele><time>2026-04-02T20:32:22.999Z</time></trkpt><trkpt lat="45.8126807003283" lon="12.13202310169371"><ele>282.4</ele><time>2026-04-02T20:32:23.999Z</time></trkpt><trkpt lat="45.812641247400535" lon="12.132143986512098"><ele>282.0</ele><time>2026-04-02T20:32:24.999Z</time></trkpt><trkpt lat="45.81259012499483" lon="12.132249279333132"><ele>280.4</ele><time>2026-04-02T20:32:25.999Z</time></trkpt><trkpt lat="45.81254353039974" lon="12.132375217357739"><ele>278.79999999999995</ele><time>2026-04-02T20:32:26.999Z</time></trkpt><trkpt lat="45.8125090638367" lon="12.132505436156478"><ele>277.2</ele><time>2026-04-02T20:32:27.999Z</time></trkpt><trkpt lat="45.812483710002326" lon="12.132634516611269"><ele>275.59999999999997</ele><time>2026-04-02T20:32:28.999Z</time></trkpt><trkpt lat="45.81246868314502" lon="12.132770062874735"><ele>274.0</ele><time>2026-04-02T20:32:29.999Z</time></trkpt><trkpt lat="45.81246223489295" lon="12.132911096871961"><ele>274.0</ele><time>2026-04-02T20:32:30.999Z</time></trkpt><trkpt lat="45.81247573301965" lon="12.133052786919238"><ele>274.0</ele><time>2026-04-02T20:32:31.999Z</time></trkpt><trkpt lat="45.81248455342664" lon="12.133193272451225"><ele>274.0</ele><time>2026-04-02T20:32:32.999Z</time></trkpt><trkpt lat="45.812494392789866" lon="12.133315116270662"><ele>274.0</ele><time>2026-04-02T20:32:33.999Z</time></trkpt><trkpt lat="45.81250811066041" lon="12.13340403050783"><ele>274.0</ele><time>2026-04-02T20:32:34.999Z</time></trkpt><trkpt lat="45.81247134653685" lon="12.133486691277838"><ele>274.0</ele><time>2026-04-02T20:32:37.999Z</time></trkpt><trkpt lat="45.812487607238" lon="12.133374456733398"><ele>274.0</ele><time>2026-04-02T20:32:40.999Z</time></trkpt><trkpt lat="45.812417863232454" lon="12.133228922953222"><ele>274.0</ele><time>2026-04-02T20:32:42.999Z</time></trkpt><trkpt lat="45.812374346928024" lon="12.133040784519471"><ele>274.0</ele><time>2026-04-02T20:32:44.999Z</time></trkpt><trkpt lat="45.81235082890879" lon="12.132925779216682"><ele>274.0</ele><time>2026-04-02T20:32:45.999Z</time></trkpt><trkpt lat="45.812327939672045" lon="12.13281292427507"><ele>274.0</ele><time>2026-04-02T20:32:46.999Z</time></trkpt><trkpt lat="45.81230429837482" lon="12.1326963613165"><ele>274.0</ele><time>2026-04-02T20:32:47.999Z</time></trkpt><trkpt lat="45.812279400317486" lon="12.132578277854076"><ele>274.0</ele><time>2026-04-02T20:32:48.999Z</time></trkpt><trkpt lat="45.81225279793152" lon="12.132455329610798"><ele>274.0</ele><time>2026-04-02T20:32:49.999Z</time></trkpt><trkpt lat="45.81222590254484" lon="12.132330690783625"><ele>274.0</ele><time>2026-04-02T20:32:50.999Z</time></trkpt><trkpt lat="45.81220392108293" lon="12.132204540712857"><ele>274.0</ele><time>2026-04-02T20:32:51.999Z</time></trkpt><trkpt lat="45.81219057784016" lon="12.132075850312072"><ele>274.0</ele><time>2026-04-02T20:32:52.999Z</time></trkpt><trkpt lat="45.81220015805792" lon="12.13195533534155"><ele>273.8333333333333</ele><time>2026-04-02T20:32:53.999Z</time></trkpt><trkpt lat="45.8122137137057" lon="12.131827173060636"><ele>273.66666666666663</ele><time>2026-04-02T20:32:54.999Z</time></trkpt><trkpt lat="45.81221590696722" lon="12.131719216845227"><ele>273.5</ele><time>2026-04-02T20:32:55.999Z</time></trkpt><trkpt lat="45.812202788494275" lon="12.131626885726076"><ele>273.3333333333333</ele><time>2026-04-02T20:32:56.999Z</time></trkpt><trkpt lat="45.812177533126885" lon="12.131543534167657"><ele>273.1666666666667</ele><time>2026-04-02T20:32:57.999Z</time></trkpt><trkpt lat="45.81210183008646" lon="12.13148758119109"><ele>273.0</ele><time>2026-04-02T20:32:58.999Z</time></trkpt><trkpt lat="45.81201074703863" lon="12.131489734638302"><ele>273.0</ele><time>2026-04-02T20:32:59.999Z</time></trkpt><trkpt lat="45.811931821638716" lon="12.131547523317343"><ele>273.0</ele><time>2026-04-02T20:33:00.999Z</time></trkpt><trkpt lat="45.81185190349404" lon="12.131572411351774"><ele>273.0</ele><time>2026-04-02T20:33:01.999Z</time></trkpt><trkpt lat="45.81179087994505" lon="12.131601511461158"><ele>273.0</ele><time>2026-04-02T20:33:02.999Z</time></trkpt><trkpt lat="45.811735814128276" lon="12.131652404530788"><ele>273.0</ele><time>2026-04-02T20:33:03.999Z</time></trkpt><trkpt lat="45.811643500198706" lon="12.131757404988411"><ele>273.0</ele><time>2026-04-02T20:33:05.999Z</time></trkpt><trkpt lat="45.81161707598524" lon="12.131850919297804"><ele>272.1666666666667</ele><time>2026-04-02T20:33:06.999Z</time></trkpt><trkpt lat="45.8115993012588" lon="12.131955680735903"><ele>271.3333333333333</ele><time>2026-04-02T20:33:07.999Z</time></trkpt><trkpt lat="45.811586228732935" lon="12.132068072759276"><ele>270.5</ele><time>2026-04-02T20:33:08.999Z</time></trkpt><trkpt lat="45.8115420271399" lon="12.132163618478595"><ele>269.66666666666663</ele><time>2026-04-02T20:33:09.999Z</time></trkpt><trkpt lat="45.811507900618984" lon="12.13226424557925"><ele>268.8333333333333</ele><time>2026-04-02T20:33:10.999Z</time></trkpt><trkpt lat="45.81148426867792" lon="12.13237965744421"><ele>268.0</ele><time>2026-04-02T20:33:11.999Z</time></trkpt><trkpt lat="45.81143920541279" lon="12.13247696554012"><ele>267.0</ele><time>2026-04-02T20:33:12.999Z</time></trkpt><trkpt lat="45.81137991791909" lon="12.132544608198272"><ele>266.0</ele><time>2026-04-02T20:33:13.999Z</time></trkpt><trkpt lat="45.811328935447065" lon="12.13261076675408"><ele>265.0</ele><time>2026-04-02T20:33:14.999Z</time></trkpt><trkpt lat="45.81126529648383" lon="12.132652441441389"><ele>264.0</ele><time>2026-04-02T20:33:15.999Z</time></trkpt><trkpt lat="45.81119902360307" lon="12.132646959341274"><ele>263.0</ele><time>2026-04-02T20:33:16.999Z</time></trkpt><trkpt lat="45.811160358064114" lon="12.132574462318471"><ele>262.0</ele><time>2026-04-02T20:33:17.999Z</time></trkpt><trkpt lat="45.81107036040251" lon="12.13247824056535"><ele>262.0</ele><time>2026-04-02T20:33:19.999Z</time></trkpt><trkpt lat="45.81101618239684" lon="12.132416119043446"><ele>262.0</ele><time>2026-04-02T20:33:20.999Z</time></trkpt><trkpt lat="45.8109614350417" lon="12.132342323038975"><ele>262.0</ele><time>2026-04-02T20:33:21.999Z</time></trkpt><trkpt lat="45.81091130712443" lon="12.132277877501586"><ele>262.0</ele><time>2026-04-02T20:33:22.999Z</time></trkpt><trkpt lat="45.81080725706167" lon="12.1321763381438"><ele>262.0</ele><time>2026-04-02T20:33:24.999Z</time></trkpt><trkpt lat="45.81071535815153" lon="12.132166739466683"><ele>262.0</ele><time>2026-04-02T20:33:25.999Z</time></trkpt><trkpt lat="45.81063133121604" lon="12.132167469744134"><ele>264.6</ele><time>2026-04-02T20:33:26.999Z</time></trkpt><trkpt lat="45.81054972207514" lon="12.132171056163662"><ele>267.2</ele><time>2026-04-02T20:33:27.999Z</time></trkpt><trkpt lat="45.81043538362783" lon="12.132159301232209"><ele>269.8</ele><time>2026-04-02T20:33:29.999Z</time></trkpt><trkpt lat="45.81033982563196" lon="12.132083995814964"><ele>272.4</ele><time>2026-04-02T20:33:31.999Z</time></trkpt><trkpt lat="45.810277165143034" lon="12.132031074191879"><ele>275.0</ele><time>2026-04-02T20:33:32.999Z</time></trkpt><trkpt lat="45.81021089913652" lon="12.131974328134065"><ele>274.83333333333337</ele><time>2026-04-02T20:33:33.999Z</time></trkpt><trkpt lat="45.81013916351873" lon="12.131917247999942"><ele>274.6666666666667</ele><time>2026-04-02T20:33:34.999Z</time></trkpt><trkpt lat="45.81006186000504" lon="12.131875184379838"><ele>274.5</ele><time>2026-04-02T20:33:35.999Z</time></trkpt><trkpt lat="45.80998377696316" lon="12.13188642467663"><ele>274.3333333333333</ele><time>2026-04-02T20:33:36.999Z</time></trkpt><trkpt lat="45.80991634330195" lon="12.131877026925672"><ele>274.16666666666663</ele><time>2026-04-02T20:33:37.999Z</time></trkpt><trkpt lat="45.80985398891922" lon="12.131913668966103"><ele>274.0</ele><time>2026-04-02T20:33:38.999Z</time></trkpt><trkpt lat="45.80977467423251" lon="12.131934364002504"><ele>274.0</ele><time>2026-04-02T20:33:39.999Z</time></trkpt><trkpt lat="45.809701065711394" lon="12.131995216867764"><ele>274.0</ele><time>2026-04-02T20:33:40.999Z</time></trkpt><trkpt lat="45.80962242790526" lon="12.132054715437599"><ele>274.0</ele><time>2026-04-02T20:33:41.999Z</time></trkpt><trkpt lat="45.809540114309506" lon="12.132115048440774"><ele>274.0</ele><time>2026-04-02T20:33:42.999Z</time></trkpt><trkpt lat="45.80944900055969" lon="12.1321149227928"><ele>274.0</ele><time>2026-04-02T20:33:43.999Z</time></trkpt><trkpt lat="45.80935841925546" lon="12.132124993040776"><ele>274.0</ele><time>2026-04-02T20:33:44.999Z</time></trkpt><trkpt lat="45.809274964303036" lon="12.132130929837071"><ele>273.8333333333333</ele><time>2026-04-02T20:33:45.999Z</time></trkpt><trkpt lat="45.809192545710694" lon="12.132124586945269"><ele>273.66666666666663</ele><time>2026-04-02T20:33:46.999Z</time></trkpt><trkpt lat="45.80911599286169" lon="12.132106658367823"><ele>273.5</ele><time>2026-04-02T20:33:47.999Z</time></trkpt><trkpt lat="45.80905266517433" lon="12.13205654730859"><ele>273.3333333333333</ele><time>2026-04-02T20:33:48.999Z</time></trkpt><trkpt lat="45.808990141748254" lon="12.132004803517912"><ele>273.1666666666667</ele><time>2026-04-02T20:33:49.999Z</time></trkpt><trkpt lat="45.80891783562799" lon="12.131940976012324"><ele>273.0</ele><time>2026-04-02T20:33:51.999Z</time></trkpt><trkpt lat="45.80897043852357" lon="12.132008729410117"><ele>273.0</ele><time>2026-04-02T20:34:02.998Z</time></trkpt><trkpt lat="45.80891180438746" lon="12.131952143558449"><ele>273.0</ele><time>2026-04-02T20:34:07.998Z</time></trkpt><trkpt lat="45.80882300103545" lon="12.132024994810623"><ele>273.0</ele><time>2026-04-02T20:34:09.998Z</time></trkpt><trkpt lat="45.80874741106067" lon="12.13216049091708"><ele>273.0</ele><time>2026-04-02T20:34:11.998Z</time></trkpt><trkpt lat="45.808708342054565" lon="12.132246820991867"><ele>273.0</ele><time>2026-04-02T20:34:12.998Z</time></trkpt><trkpt lat="45.80864697574465" lon="12.13229155488861"><ele>273.0</ele><time>2026-04-02T20:34:13.998Z</time></trkpt><trkpt lat="45.808579091793966" lon="12.132304174793695"><ele>273.0</ele><time>2026-04-02T20:34:14.998Z</time></trkpt><trkpt lat="45.80850749816779" lon="12.13234102661692"><ele>273.0</ele><time>2026-04-02T20:34:15.998Z</time></trkpt><trkpt lat="45.808441694395505" lon="12.132375872214396"><ele>273.0</ele><time>2026-04-02T20:34:16.998Z</time></trkpt><trkpt lat="45.80833590138325" lon="12.13244323631948"><ele>273.0</ele><time>2026-04-02T20:34:18.999Z</time></trkpt><trkpt lat="45.8082683967714" lon="12.132480219716756"><ele>273.0</ele><time>2026-04-02T20:34:19.999Z</time></trkpt><trkpt lat="45.808191218667275" lon="12.132520040184476"><ele>273.0</ele><time>2026-04-02T20:34:20.999Z</time></trkpt><trkpt lat="45.808110185934495" lon="12.132560860843792"><ele>272.1666666666667</ele><time>2026-04-02T20:34:21.999Z</time></trkpt><trkpt lat="45.808032685945726" lon="12.132603725349233"><ele>271.3333333333333</ele><time>2026-04-02T20:34:22.999Z</time></trkpt><trkpt lat="45.80795796300354" lon="12.132647088677832"><ele>270.5</ele><time>2026-04-02T20:34:23.999Z</time></trkpt><trkpt lat="45.80788125554627" lon="12.132668629427746"><ele>269.66666666666663</ele><time>2026-04-02T20:34:24.999Z</time></trkpt><trkpt lat="45.80780892188293" lon="12.13270502741574"><ele>268.8333333333333</ele><time>2026-04-02T20:34:25.999Z</time></trkpt><trkpt lat="45.80773800081361" lon="12.132733234245213"><ele>268.0</ele><time>2026-04-02T20:34:26.999Z</time></trkpt><trkpt lat="45.8075826828203" lon="12.132783133891516"><ele>266.8333333333333</ele><time>2026-04-02T20:34:29Z</time></trkpt><trkpt lat="45.80749756404248" lon="12.132820029535411"><ele>265.66666666666663</ele><time>2026-04-02T20:34:30Z</time></trkpt><trkpt lat="45.807418393672044" lon="12.132867497715004"><ele>264.5</ele><time>2026-04-02T20:34:31Z</time></trkpt><trkpt lat="45.80734800545164" lon="12.132946454166195"><ele>263.3333333333333</ele><time>2026-04-02T20:34:32Z</time></trkpt><trkpt lat="45.80727663395873" lon="12.133014080761807"><ele>262.1666666666667</ele><time>2026-04-02T20:34:33Z</time></trkpt><trkpt lat="45.807215217111114" lon="12.133101323233655"><ele>261.0</ele><time>2026-04-02T20:34:34Z</time></trkpt><trkpt lat="45.807161805426375" lon="12.133194337903952"><ele>260.8333333333333</ele><time>2026-04-02T20:34:35Z</time></trkpt><trkpt lat="45.80709260551314" lon="12.133258571097727"><ele>260.6666666666667</ele><time>2026-04-02T20:34:36Z</time></trkpt><trkpt lat="45.80702268563242" lon="12.133331830608368"><ele>260.5</ele><time>2026-04-02T20:34:37Z</time></trkpt><trkpt lat="45.80695262337884" lon="12.133405239280846"><ele>260.33333333333337</ele><time>2026-04-02T20:34:38Z</time></trkpt><trkpt lat="45.806876525035" lon="12.133475775350142"><ele>260.1666666666667</ele><time>2026-04-02T20:34:39Z</time></trkpt><trkpt lat="45.806802578821156" lon="12.133520688456798"><ele>260.0</ele><time>2026-04-02T20:34:40Z</time></trkpt><trkpt lat="45.80671620946614" lon="12.133542093828234"><ele>260.5</ele><time>2026-04-02T20:34:41Z</time></trkpt><trkpt lat="45.80662413446706" lon="12.133537611767158"><ele>261.0</ele><time>2026-04-02T20:34:42Z</time></trkpt><trkpt lat="45.806537915120295" lon="12.13350381763457"><ele>261.5</ele><time>2026-04-02T20:34:43Z</time></trkpt><trkpt lat="45.80646595865762" lon="12.133461139942892"><ele>262.0</ele><time>2026-04-02T20:34:44Z</time></trkpt><trkpt lat="45.80641167778137" lon="12.133410006932799"><ele>262.5</ele><time>2026-04-02T20:34:45Z</time></trkpt><trkpt lat="45.80632267070623" lon="12.133314795017265"><ele>263.0</ele><time>2026-04-02T20:34:47Z</time></trkpt><trkpt lat="45.80627388015811" lon="12.133252227275536"><ele>262.85714285714283</ele><time>2026-04-02T20:34:47.999Z</time></trkpt><trkpt lat="45.806219934680826" lon="12.133179483921863"><ele>262.71428571428567</ele><time>2026-04-02T20:34:48.999Z</time></trkpt><trkpt lat="45.806172859433815" lon="12.133111270133504"><ele>262.57142857142856</ele><time>2026-04-02T20:34:49.999Z</time></trkpt><trkpt lat="45.80612331981163" lon="12.133040229915744"><ele>262.42857142857144</ele><time>2026-04-02T20:34:50.999Z</time></trkpt><trkpt lat="45.80607410199831" lon="12.13296961345731"><ele>262.28571428571433</ele><time>2026-04-02T20:34:51.999Z</time></trkpt><trkpt lat="45.8060234934462" lon="12.132900926958644"><ele>262.14285714285717</ele><time>2026-04-02T20:34:52.999Z</time></trkpt><trkpt lat="45.80597284085435" lon="12.13283687709517"><ele>262.0</ele><time>2026-04-02T20:34:53.999Z</time></trkpt><trkpt lat="45.80591274857734" lon="12.13278967212495"><ele>261.8333333333333</ele><time>2026-04-02T20:34:54.999Z</time></trkpt><trkpt lat="45.80584470896942" lon="12.13275513017556"><ele>261.66666666666663</ele><time>2026-04-02T20:34:55.999Z</time></trkpt><trkpt lat="45.80576639808428" lon="12.132730904125363"><ele>261.5</ele><time>2026-04-02T20:34:56.999Z</time></trkpt><trkpt lat="45.805682445747735" lon="12.132751156312235"><ele>261.3333333333333</ele><time>2026-04-02T20:34:57.999Z</time></trkpt><trkpt lat="45.805601914884214" lon="12.132815212255903"><ele>261.1666666666667</ele><time>2026-04-02T20:34:58.999Z</time></trkpt><trkpt lat="45.80551786813419" lon="12.132837628637358"><ele>261.0</ele><time>2026-04-02T20:34:59.999Z</time></trkpt><trkpt lat="45.80543690892001" lon="12.132869515072155"><ele>261.0</ele><time>2026-04-02T20:35:00.999Z</time></trkpt><trkpt lat="45.80535806960364" lon="12.132906569587362"><ele>261.0</ele><time>2026-04-02T20:35:01.999Z</time></trkpt><trkpt lat="45.8052870033204" lon="12.132962103492973"><ele>261.0</ele><time>2026-04-02T20:35:02.999Z</time></trkpt><trkpt lat="45.80522335008213" lon="12.13305278901038"><ele>261.0</ele><time>2026-04-02T20:35:03.999Z</time></trkpt><trkpt lat="45.805165618357734" lon="12.133163562264267"><ele>261.0</ele><time>2026-04-02T20:35:04.999Z</time></trkpt><trkpt lat="45.805102081913276" lon="12.133271907030814"><ele>261.0</ele><time>2026-04-02T20:35:05.999Z</time></trkpt><trkpt lat="45.80503539306079" lon="12.13338289243486"><ele>260.0</ele><time>2026-04-02T20:35:06.999Z</time></trkpt><trkpt lat="45.80497413622756" lon="12.133486890370646"><ele>259.0</ele><time>2026-04-02T20:35:07.999Z</time></trkpt><trkpt lat="45.80490798437185" lon="12.133561148919112"><ele>258.0</ele><time>2026-04-02T20:35:08.999Z</time></trkpt><trkpt lat="45.804851227985914" lon="12.133613740497807"><ele>257.0</ele><time>2026-04-02T20:35:09.999Z</time></trkpt><trkpt lat="45.80474128368612" lon="12.133686906223886"><ele>256.0</ele><time>2026-04-02T20:35:11.999Z</time></trkpt><trkpt lat="45.80466907268644" lon="12.133724724149246"><ele>255.0</ele><time>2026-04-02T20:35:12.999Z</time></trkpt><trkpt lat="45.8045969813113" lon="12.133791482667073"><ele>255.0</ele><time>2026-04-02T20:35:13.999Z</time></trkpt><trkpt lat="45.80452673416448" lon="12.133825423158951"><ele>255.0</ele><time>2026-04-02T20:35:14.999Z</time></trkpt><trkpt lat="45.804444024943926" lon="12.133868646154461"><ele>255.0</ele><time>2026-04-02T20:35:15.999Z</time></trkpt><trkpt lat="45.80435261614497" lon="12.133892725852212"><ele>255.0</ele><time>2026-04-02T20:35:16.999Z</time></trkpt><trkpt lat="45.8042610130986" lon="12.133931767519396"><ele>255.0</ele><time>2026-04-02T20:35:17.999Z</time></trkpt><trkpt lat="45.804166352508666" lon="12.133971225805075"><ele>255.0</ele><time>2026-04-02T20:35:18.999Z</time></trkpt><trkpt lat="45.8040763722423" lon="12.134011557205802"><ele>253.4</ele><time>2026-04-02T20:35:19.999Z</time></trkpt><trkpt lat="45.803987267285315" lon="12.134057976654596"><ele>251.8</ele><time>2026-04-02T20:35:20.999Z</time></trkpt><trkpt lat="45.80390784825036" lon="12.13412097728985"><ele>250.2</ele><time>2026-04-02T20:35:21.999Z</time></trkpt><trkpt lat="45.80382031201623" lon="12.134166855480055"><ele>248.6</ele><time>2026-04-02T20:35:22.999Z</time></trkpt><trkpt lat="45.8037367593075" lon="12.134217387463712"><ele>247.0</ele><time>2026-04-02T20:35:23.999Z</time></trkpt><trkpt lat="45.8036498005402" lon="12.134242041049093"><ele>247.0</ele><time>2026-04-02T20:35:24.999Z</time></trkpt><trkpt lat="45.80356521458249" lon="12.1342889236154"><ele>247.0</ele><time>2026-04-02T20:35:25.999Z</time></trkpt><trkpt lat="45.80348636212172" lon="12.134335178029128"><ele>247.0</ele><time>2026-04-02T20:35:26.999Z</time></trkpt><trkpt lat="45.803415389467226" lon="12.134390547391993"><ele>247.0</ele><time>2026-04-02T20:35:27.999Z</time></trkpt><trkpt lat="45.8033521888674" lon="12.134436937792982"><ele>247.0</ele><time>2026-04-02T20:35:28.999Z</time></trkpt><trkpt lat="45.80327555323107" lon="12.134294471072604"><ele>245.83333333333331</ele><time>2026-04-02T20:35:30.999Z</time></trkpt><trkpt lat="45.80321656491886" lon="12.134204604992608"><ele>244.66666666666666</ele><time>2026-04-02T20:35:31.999Z</time></trkpt><trkpt lat="45.803155403064615" lon="12.134118916202155"><ele>243.5</ele><time>2026-04-02T20:35:32.999Z</time></trkpt><trkpt lat="45.80308861712697" lon="12.134035592832618"><ele>242.33333333333331</ele><time>2026-04-02T20:35:33.999Z</time></trkpt><trkpt lat="45.803005321937405" lon="12.133968984222756"><ele>241.16666666666666</ele><time>2026-04-02T20:35:34.999Z</time></trkpt><trkpt lat="45.80293455720844" lon="12.133883824848482"><ele>240.0</ele><time>2026-04-02T20:35:35.999Z</time></trkpt><trkpt lat="45.80286320672859" lon="12.133812396272496"><ele>239.8</ele><time>2026-04-02T20:35:36.999Z</time></trkpt><trkpt lat="45.80279890329422" lon="12.13377177003328"><ele>239.6</ele><time>2026-04-02T20:35:37.999Z</time></trkpt><trkpt lat="45.802734879880894" lon="12.133758626626685"><ele>239.39999999999998</ele><time>2026-04-02T20:35:38.999Z</time></trkpt><trkpt lat="45.80261868333084" lon="12.133739850839481"><ele>239.2</ele><time>2026-04-02T20:35:40.999Z</time></trkpt><trkpt lat="45.8024950253229" lon="12.13369069398044"><ele>239.0</ele><time>2026-04-02T20:35:42.999Z</time></trkpt><trkpt lat="45.80237370588198" lon="12.133722688963333"><ele>239.42857142857144</ele><time>2026-04-02T20:35:44.999Z</time></trkpt><trkpt lat="45.80230520735582" lon="12.133744095086158"><ele>239.85714285714286</ele><time>2026-04-02T20:35:45.999Z</time></trkpt><trkpt lat="45.80224244833428" lon="12.133800093009874"><ele>240.28571428571428</ele><time>2026-04-02T20:35:46.999Z</time></trkpt><trkpt lat="45.80217514171411" lon="12.133847370953685"><ele>240.71428571428572</ele><time>2026-04-02T20:35:47.999Z</time></trkpt><trkpt lat="45.802106210327835" lon="12.133885843167269"><ele>241.1428571428571</ele><time>2026-04-02T20:35:48.999Z</time></trkpt><trkpt lat="45.80203573827214" lon="12.133887461527644"><ele>241.57142857142856</ele><time>2026-04-02T20:35:49.999Z</time></trkpt><trkpt lat="45.801962306369425" lon="12.133896401748128"><ele>242.0</ele><time>2026-04-02T20:35:50.999Z</time></trkpt><trkpt lat="45.80181761448194" lon="12.133896313599488"><ele>242.00000000000003</ele><time>2026-04-02T20:35:52.999Z</time></trkpt><trkpt lat="45.80173762493438" lon="12.133887808381429"><ele>242.0</ele><time>2026-04-02T20:35:53.999Z</time></trkpt><trkpt lat="45.80165235107711" lon="12.133896246406328"><ele>242.0</ele><time>2026-04-02T20:35:54.999Z</time></trkpt><trkpt lat="45.80157094015022" lon="12.133880427045007"><ele>242.0</ele><time>2026-04-02T20:35:55.999Z</time></trkpt><trkpt lat="45.80149390939367" lon="12.133861840705178"><ele>242.00000000000003</ele><time>2026-04-02T20:35:56.999Z</time></trkpt><trkpt lat="45.801420037884405" lon="12.133858852339893"><ele>242.0</ele><time>2026-04-02T20:35:57.999Z</time></trkpt><trkpt lat="45.801328203841386" lon="12.133834775893613"><ele>242.00000000000003</ele><time>2026-04-02T20:35:58.999Z</time></trkpt><trkpt lat="45.8012458656939" lon="12.133817110113105"><ele>242.0</ele><time>2026-04-02T20:35:59.999Z</time></trkpt><trkpt lat="45.80115578185128" lon="12.133801025021874"><ele>242.0</ele><time>2026-04-02T20:36:00.999Z</time></trkpt><trkpt lat="45.80107090041893" lon="12.133794716897386"><ele>242.0</ele><time>2026-04-02T20:36:01.999Z</time></trkpt><trkpt lat="45.800986888571636" lon="12.133782450852177"><ele>242.00000000000003</ele><time>2026-04-02T20:36:02.999Z</time></trkpt><trkpt lat="45.80091985080214" lon="12.133772242248984"><ele>242.0</ele><time>2026-04-02T20:36:03.999Z</time></trkpt><trkpt lat="45.80085451425046" lon="12.133762981925868"><ele>240.33333333333334</ele><time>2026-04-02T20:36:04.999Z</time></trkpt><trkpt lat="45.80077837161769" lon="12.133770074740585"><ele>238.66666666666669</ele><time>2026-04-02T20:36:05.999Z</time></trkpt><trkpt lat="45.80070949560118" lon="12.133797326181352"><ele>237.0</ele><time>2026-04-02T20:36:06.999Z</time></trkpt><trkpt lat="45.80066187447882" lon="12.13388827455688"><ele>235.33333333333331</ele><time>2026-04-02T20:36:07.999Z</time></trkpt><trkpt lat="45.800597254680135" lon="12.13396350274311"><ele>233.66666666666666</ele><time>2026-04-02T20:36:08.999Z</time></trkpt><trkpt lat="45.80054478726224" lon="12.134057283441736"><ele>232.0</ele><time>2026-04-02T20:36:09.999Z</time></trkpt><trkpt lat="45.80049353687769" lon="12.134149576889694"><ele>230.83333333333331</ele><time>2026-04-02T20:36:10.999Z</time></trkpt><trkpt lat="45.800439649228984" lon="12.134233727870388"><ele>229.66666666666666</ele><time>2026-04-02T20:36:11.999Z</time></trkpt><trkpt lat="45.80038044649532" lon="12.134312208238038"><ele>228.5</ele><time>2026-04-02T20:36:12.999Z</time></trkpt><trkpt lat="45.800317791907275" lon="12.13438721562136"><ele>227.33333333333331</ele><time>2026-04-02T20:36:13.999Z</time></trkpt><trkpt lat="45.80025942756686" lon="12.134457467395434"><ele>226.16666666666666</ele><time>2026-04-02T20:36:14.999Z</time></trkpt><trkpt lat="45.80021260241028" lon="12.134541106040277"><ele>225.0</ele><time>2026-04-02T20:36:15.999Z</time></trkpt><trkpt lat="45.80016569139644" lon="12.134603509268695"><ele>223.2</ele><time>2026-04-02T20:36:16.999Z</time></trkpt><trkpt lat="45.80008454340121" lon="12.13469724986484"><ele>221.4</ele><time>2026-04-02T20:36:18.999Z</time></trkpt><trkpt lat="45.80002426936453" lon="12.134647213380145"><ele>219.60000000000002</ele><time>2026-04-02T20:36:21.999Z</time></trkpt><trkpt lat="45.79999117277747" lon="12.134489337464403"><ele>217.8</ele><time>2026-04-02T20:36:25Z</time></trkpt><trkpt lat="45.79997652505606" lon="12.134373960350926"><ele>216.0</ele><time>2026-04-02T20:36:26Z</time></trkpt><trkpt lat="45.79996371718417" lon="12.134250795307297"><ele>216.0</ele><time>2026-04-02T20:36:27Z</time></trkpt><trkpt lat="45.799950716414365" lon="12.134126003797181"><ele>216.00000000000003</ele><time>2026-04-02T20:36:28Z</time></trkpt><trkpt lat="45.799939732384566" lon="12.13400027319268"><ele>216.00000000000003</ele><time>2026-04-02T20:36:29Z</time></trkpt><trkpt lat="45.799931325378715" lon="12.133885195597918"><ele>216.0</ele><time>2026-04-02T20:36:30Z</time></trkpt><trkpt lat="45.799923304325894" lon="12.133712724862706"><ele>216.0</ele><time>2026-04-02T20:36:32Z</time></trkpt><trkpt lat="45.79992033065849" lon="12.133608306430542"><ele>216.33333333333334</ele><time>2026-04-02T20:36:33Z</time></trkpt><trkpt lat="45.79992175271888" lon="12.133495112453328"><ele>216.66666666666669</ele><time>2026-04-02T20:36:34Z</time></trkpt><trkpt lat="45.79992771129672" lon="12.133382122437858"><ele>217.0</ele><time>2026-04-02T20:36:35Z</time></trkpt><trkpt lat="45.79994387239903" lon="12.13326000714165"><ele>217.33333333333334</ele><time>2026-04-02T20:36:36Z</time></trkpt><trkpt lat="45.799971186445966" lon="12.133150732556427"><ele>217.66666666666669</ele><time>2026-04-02T20:36:37Z</time></trkpt><trkpt lat="45.800008857597206" lon="12.133063581996572"><ele>218.0</ele><time>2026-04-02T20:36:38Z</time></trkpt><trkpt lat="45.80005052154664" lon="12.132963027127836"><ele>218.0</ele><time>2026-04-02T20:36:39Z</time></trkpt><trkpt lat="45.80008468086156" lon="12.132871732678804"><ele>218.0</ele><time>2026-04-02T20:36:40Z</time></trkpt><trkpt lat="45.8001362211148" lon="12.132728144512681"><ele>218.0</ele><time>2026-04-02T20:36:42Z</time></trkpt><trkpt lat="45.80008024778793" lon="12.132581248335308"><ele>218.0</ele><time>2026-04-02T20:36:44Z</time></trkpt><trkpt lat="45.799976948577616" lon="12.132614604063013"><ele>218.0</ele><time>2026-04-02T20:36:46Z</time></trkpt><trkpt lat="45.79991856585681" lon="12.132664469280428"><ele>218.00000000000003</ele><time>2026-04-02T20:36:47Z</time></trkpt><trkpt lat="45.799849222502736" lon="12.132733254380941"><ele>218.0</ele><time>2026-04-02T20:36:48Z</time></trkpt><trkpt lat="45.79976678231434" lon="12.132779306557842"><ele>218.0</ele><time>2026-04-02T20:36:49Z</time></trkpt><trkpt lat="45.79968233133826" lon="12.132811530788715"><ele>218.0</ele><time>2026-04-02T20:36:50Z</time></trkpt><trkpt lat="45.79960690789781" lon="12.132843885680677"><ele>218.00000000000003</ele><time>2026-04-02T20:36:51Z</time></trkpt><trkpt lat="45.799526894264375" lon="12.132889288318028"><ele>218.0</ele><time>2026-04-02T20:36:52Z</time></trkpt><trkpt lat="45.79947169821062" lon="12.132978469841047"><ele>218.00000000000003</ele><time>2026-04-02T20:36:53Z</time></trkpt><trkpt lat="45.79941530140212" lon="12.133059016542775"><ele>218.0</ele><time>2026-04-02T20:36:54Z</time></trkpt><trkpt lat="45.79934393753995" lon="12.133087855363174"><ele>218.0</ele><time>2026-04-02T20:36:55Z</time></trkpt><trkpt lat="45.79926374981363" lon="12.133089505641484"><ele>218.0</ele><time>2026-04-02T20:36:56Z</time></trkpt><trkpt lat="45.799195757417586" lon="12.13306309087735"><ele>218.00000000000003</ele><time>2026-04-02T20:36:57Z</time></trkpt><trkpt lat="45.79912244870767" lon="12.133037010585273"><ele>218.0</ele><time>2026-04-02T20:36:58Z</time></trkpt><trkpt lat="45.79904426382257" lon="12.133009291018398"><ele>218.66666666666669</ele><time>2026-04-02T20:36:59Z</time></trkpt><trkpt lat="45.798971267459066" lon="12.13295668643047"><ele>219.33333333333334</ele><time>2026-04-02T20:37:00Z</time></trkpt><trkpt lat="45.7988957009601" lon="12.13290067629621"><ele>220.0</ele><time>2026-04-02T20:37:01Z</time></trkpt><trkpt lat="45.798817325680304" lon="12.132851323293028"><ele>220.66666666666669</ele><time>2026-04-02T20:37:02Z</time></trkpt><trkpt lat="45.79875447245251" lon="12.132818038487711"><ele>221.33333333333334</ele><time>2026-04-02T20:37:03Z</time></trkpt><trkpt lat="45.7986442576495" lon="12.132882944410522"><ele>222.0</ele><time>2026-04-02T20:37:05Z</time></trkpt><trkpt lat="45.79864845773054" lon="12.132976233977727"><ele>222.0</ele><time>2026-04-02T20:37:06Z</time></trkpt><trkpt lat="45.79865306270189" lon="12.133147711076717"><ele>222.0</ele><time>2026-04-02T20:37:08Z</time></trkpt><trkpt lat="45.79863224063965" lon="12.13330835526091"><ele>222.0</ele><time>2026-04-02T20:37:10Z</time></trkpt><trkpt lat="45.7985611363022" lon="12.133368069402948"><ele>222.0</ele><time>2026-04-02T20:37:12Z</time></trkpt><trkpt lat="45.79847178656085" lon="12.133295808461916"><ele>222.0</ele><time>2026-04-02T20:37:14Z</time></trkpt><trkpt lat="45.798374361225484" lon="12.133252017692396"><ele>222.8</ele><time>2026-04-02T20:37:16Z</time></trkpt><trkpt lat="45.798246309178886" lon="12.133180913002185"><ele>223.6</ele><time>2026-04-02T20:37:18Z</time></trkpt><trkpt lat="45.79816690192766" lon="12.133147200931816"><ele>224.40000000000003</ele><time>2026-04-02T20:37:19Z</time></trkpt><trkpt lat="45.79809027862195" lon="12.133124483083254"><ele>225.20000000000002</ele><time>2026-04-02T20:37:20Z</time></trkpt><trkpt lat="45.79800396654878" lon="12.13313834128747"><ele>226.0</ele><time>2026-04-02T20:37:21Z</time></trkpt><trkpt lat="45.79791849894144" lon="12.133130712619778"><ele>225.99999999999997</ele><time>2026-04-02T20:37:22Z</time></trkpt><trkpt lat="45.79783681658094" lon="12.133086452928412"><ele>226.0</ele><time>2026-04-02T20:37:23Z</time></trkpt><trkpt lat="45.79776720418288" lon="12.133055885707316"><ele>226.0</ele><time>2026-04-02T20:37:24Z</time></trkpt><trkpt lat="45.797705670542214" lon="12.133022171923288"><ele>226.0</ele><time>2026-04-02T20:37:25Z</time></trkpt><trkpt lat="45.79763579378435" lon="12.132971989820122"><ele>225.99999999999997</ele><time>2026-04-02T20:37:26Z</time></trkpt><trkpt lat="45.79756598833599" lon="12.13290463940925"><ele>226.0</ele><time>2026-04-02T20:37:27Z</time></trkpt><trkpt lat="45.79750413253001" lon="12.132831242415094"><ele>226.16666666666666</ele><time>2026-04-02T20:37:28Z</time></trkpt><trkpt lat="45.797448519894765" lon="12.132756463857586"><ele>226.33333333333331</ele><time>2026-04-02T20:37:29Z</time></trkpt><trkpt lat="45.79736019857474" lon="12.132609755935658"><ele>226.5</ele><time>2026-04-02T20:37:31Z</time></trkpt><trkpt lat="45.79732063180419" lon="12.132524168475628"><ele>226.66666666666669</ele><time>2026-04-02T20:37:32Z</time></trkpt><trkpt lat="45.79728899981213" lon="12.132429714159693"><ele>226.83333333333334</ele><time>2026-04-02T20:37:32.999Z</time></trkpt><trkpt lat="45.79725390336284" lon="12.132329113151972"><ele>227.0</ele><time>2026-04-02T20:37:33.999Z</time></trkpt><trkpt lat="45.79720933160225" lon="12.132247513007389"><ele>227.00000000000003</ele><time>2026-04-02T20:37:34.999Z</time></trkpt><trkpt lat="45.79718906143591" lon="12.132155055653119"><ele>227.0</ele><time>2026-04-02T20:37:35.999Z</time></trkpt><trkpt lat="45.797087241524636" lon="12.132079200039703"><ele>227.0</ele><time>2026-04-02T20:37:37.999Z</time></trkpt><trkpt lat="45.79700885647684" lon="12.132070742670857"><ele>227.0</ele><time>2026-04-02T20:37:38.999Z</time></trkpt><trkpt lat="45.79692004863575" lon="12.132035588801509"><ele>227.00000000000003</ele><time>2026-04-02T20:37:39.999Z</time></trkpt><trkpt lat="45.79682621214241" lon="12.132022490337338"><ele>227.0</ele><time>2026-04-02T20:37:40.999Z</time></trkpt><trkpt lat="45.796717940317045" lon="12.132020702744432"><ele>224.6</ele><time>2026-04-02T20:37:41.999Z</time></trkpt><trkpt lat="45.79661732771173" lon="12.132042634614933"><ele>222.2</ele><time>2026-04-02T20:37:42.999Z</time></trkpt><trkpt lat="45.79651751767761" lon="12.132021269156764"><ele>219.8</ele><time>2026-04-02T20:37:43.999Z</time></trkpt><trkpt lat="45.79642308461269" lon="12.132004294436923"><ele>217.4</ele><time>2026-04-02T20:37:44.999Z</time></trkpt><trkpt lat="45.796336137425506" lon="12.131982626796828"><ele>215.0</ele><time>2026-04-02T20:37:45.999Z</time></trkpt><trkpt lat="45.7962616376148" lon="12.131962274931753"><ele>215.00000000000003</ele><time>2026-04-02T20:37:46.999Z</time></trkpt><trkpt lat="45.79620037744135" lon="12.13193245745728"><ele>215.0</ele><time>2026-04-02T20:37:47.999Z</time></trkpt><trkpt lat="45.796123648747674" lon="12.131862639586762"><ele>215.0</ele><time>2026-04-02T20:37:49.999Z</time></trkpt><trkpt lat="45.79616688730262" lon="12.131796802122322"><ele>215.0</ele><time>2026-04-02T20:37:50.999Z</time></trkpt><trkpt lat="45.79621493897061" lon="12.131647829023198"><ele>215.00000000000003</ele><time>2026-04-02T20:37:53.999Z</time></trkpt><trkpt lat="45.79623188475427" lon="12.131551084093894"><ele>215.0</ele><time>2026-04-02T20:37:54.999Z</time></trkpt><trkpt lat="45.79625726370412" lon="12.131451770421183"><ele>214.33333333333334</ele><time>2026-04-02T20:37:55.999Z</time></trkpt><trkpt lat="45.79629217336142" lon="12.131349810969576"><ele>213.66666666666669</ele><time>2026-04-02T20:37:56.999Z</time></trkpt><trkpt lat="45.79633127262375" lon="12.131255718616577"><ele>213.0</ele><time>2026-04-02T20:37:57.999Z</time></trkpt><trkpt lat="45.79637598873191" lon="12.13116462286842"><ele>212.33333333333331</ele><time>2026-04-02T20:37:58.999Z</time></trkpt><trkpt lat="45.79642987683084" lon="12.13108089237371"><ele>211.66666666666666</ele><time>2026-04-02T20:37:59.999Z</time></trkpt><trkpt lat="45.79649196690903" lon="12.130985563976953"><ele>211.0</ele><time>2026-04-02T20:38:00.999Z</time></trkpt><trkpt lat="45.796546822337035" lon="12.130891106834612"><ele>210.99999999999997</ele><time>2026-04-02T20:38:01.999Z</time></trkpt><trkpt lat="45.79659964820232" lon="12.130796081560739"><ele>211.0</ele><time>2026-04-02T20:38:02.999Z</time></trkpt><trkpt lat="45.79664518094465" lon="12.130708155678722"><ele>211.0</ele><time>2026-04-02T20:38:03.999Z</time></trkpt><trkpt lat="45.796686026337426" lon="12.130619419381993"><ele>211.0</ele><time>2026-04-02T20:38:04.999Z</time></trkpt><trkpt lat="45.796685625974185" lon="12.130479119252602"><ele>210.99999999999997</ele><time>2026-04-02T20:38:05.999Z</time></trkpt><trkpt lat="45.79663208849062" lon="12.130359702790228"><ele>211.0</ele><time>2026-04-02T20:38:06.999Z</time></trkpt><trkpt lat="45.796520755982414" lon="12.13034391585998"><ele>211.33333333333331</ele><time>2026-04-02T20:38:07.999Z</time></trkpt><trkpt lat="45.79644026395083" lon="12.130360269240928"><ele>211.66666666666666</ele><time>2026-04-02T20:38:08.999Z</time></trkpt><trkpt lat="45.79636234667141" lon="12.13041120052456"><ele>212.0</ele><time>2026-04-02T20:38:09.999Z</time></trkpt><trkpt lat="45.796287533242655" lon="12.130477122919372"><ele>212.33333333333331</ele><time>2026-04-02T20:38:10.999Z</time></trkpt><trkpt lat="45.796213211992466" lon="12.130529809424264"><ele>212.66666666666666</ele><time>2026-04-02T20:38:11.999Z</time></trkpt><trkpt lat="45.79613461928033" lon="12.130577003083516"><ele>213.0</ele><time>2026-04-02T20:38:12.999Z</time></trkpt><trkpt lat="45.79605389228504" lon="12.130616900866988"><ele>213.66666666666666</ele><time>2026-04-02T20:38:13.999Z</time></trkpt><trkpt lat="45.79597063702658" lon="12.130662117020707"><ele>214.33333333333331</ele><time>2026-04-02T20:38:14.999Z</time></trkpt><trkpt lat="45.795887613774276" lon="12.130676899281983"><ele>215.0</ele><time>2026-04-02T20:38:15.999Z</time></trkpt><trkpt lat="45.79581418003882" lon="12.130714892927115"><ele>215.66666666666666</ele><time>2026-04-02T20:38:16.999Z</time></trkpt><trkpt lat="45.79575282820786" lon="12.13077877638589"><ele>216.33333333333331</ele><time>2026-04-02T20:38:17.999Z</time></trkpt><trkpt lat="45.795680040901935" lon="12.130798084691675"><ele>217.0</ele><time>2026-04-02T20:38:18.999Z</time></trkpt><trkpt lat="45.79561289113544" lon="12.130850215056043"><ele>214.83333333333331</ele><time>2026-04-02T20:38:19.999Z</time></trkpt><trkpt lat="45.79555556271615" lon="12.130934238927509"><ele>212.66666666666666</ele><time>2026-04-02T20:38:20.999Z</time></trkpt><trkpt lat="45.795483999836684" lon="12.130969343613609"><ele>210.5</ele><time>2026-04-02T20:38:21.999Z</time></trkpt><trkpt lat="45.795414380137565" lon="12.131014885620269"><ele>208.33333333333331</ele><time>2026-04-02T20:38:22.999Z</time></trkpt><trkpt lat="45.79533903789946" lon="12.13104351441428"><ele>206.16666666666666</ele><time>2026-04-02T20:38:23.999Z</time></trkpt><trkpt lat="45.795266273566895" lon="12.131061851872738"><ele>204.0</ele><time>2026-04-02T20:38:24.999Z</time></trkpt><trkpt lat="45.79518868658961" lon="12.13107634048406"><ele>203.28571428571428</ele><time>2026-04-02T20:38:25.999Z</time></trkpt><trkpt lat="45.795115447289945" lon="12.131076604451438"><ele>202.57142857142858</ele><time>2026-04-02T20:38:26.999Z</time></trkpt><trkpt lat="45.79504355772668" lon="12.131059431794842"><ele>201.85714285714283</ele><time>2026-04-02T20:38:27.999Z</time></trkpt><trkpt lat="45.79497460997185" lon="12.131043246083602"><ele>201.14285714285714</ele><time>2026-04-02T20:38:28.999Z</time></trkpt><trkpt lat="45.79490178773688" lon="12.131039233795782"><ele>200.42857142857142</ele><time>2026-04-02T20:38:29.999Z</time></trkpt><trkpt lat="45.79482467376897" lon="12.13105789636661"><ele>199.7142857142857</ele><time>2026-04-02T20:38:31Z</time></trkpt><trkpt lat="45.79475530925842" lon="12.131102005949458"><ele>199.0</ele><time>2026-04-02T20:38:32Z</time></trkpt><trkpt lat="45.79469517260927" lon="12.131144179119708"><ele>198.99999999999997</ele><time>2026-04-02T20:38:33Z</time></trkpt><trkpt lat="45.79463056739941" lon="12.131226260213841"><ele>199.0</ele><time>2026-04-02T20:38:36Z</time></trkpt><trkpt lat="45.79465851198249" lon="12.131100594932963"><ele>199.0</ele><time>2026-04-02T20:38:40Z</time></trkpt><trkpt lat="45.79465560791174" lon="12.130999840543046"><ele>199.0</ele><time>2026-04-02T20:38:42Z</time></trkpt><trkpt lat="45.79465181352442" lon="12.130868197336126"><ele>198.99999999999997</ele><time>2026-04-02T20:38:44Z</time></trkpt><trkpt lat="45.79464591056261" lon="12.130713754415902"><ele>199.0</ele><time>2026-04-02T20:38:46Z</time></trkpt><trkpt lat="45.794640255658614" lon="12.130536597236437"><ele>199.33333333333331</ele><time>2026-04-02T20:38:48Z</time></trkpt><trkpt lat="45.79464341761458" lon="12.130443083853198"><ele>199.66666666666666</ele><time>2026-04-02T20:38:49Z</time></trkpt><trkpt lat="45.79465143438236" lon="12.130351087614812"><ele>200.0</ele><time>2026-04-02T20:38:50Z</time></trkpt><trkpt lat="45.79466915686657" lon="12.130263037086587"><ele>200.33333333333331</ele><time>2026-04-02T20:38:51Z</time></trkpt><trkpt lat="45.79472190816804" lon="12.130103768098186"><ele>200.66666666666666</ele><time>2026-04-02T20:38:53Z</time></trkpt><trkpt lat="45.794794883540746" lon="12.129980324107592"><ele>201.0</ele><time>2026-04-02T20:38:55Z</time></trkpt><trkpt lat="45.79484408006484" lon="12.129922538975231"><ele>200.20000000000002</ele><time>2026-04-02T20:38:56Z</time></trkpt><trkpt lat="45.794900104417636" lon="12.129865419511711"><ele>199.4</ele><time>2026-04-02T20:38:57Z</time></trkpt><trkpt lat="45.794999592795456" lon="12.129772468199883"><ele>198.6</ele><time>2026-04-02T20:38:59Z</time></trkpt><trkpt lat="45.795097538287635" lon="12.129665017467026"><ele>197.8</ele><time>2026-04-02T20:39:01Z</time></trkpt><trkpt lat="45.795171275329466" lon="12.129539966438522"><ele>197.0</ele><time>2026-04-02T20:39:03Z</time></trkpt><trkpt lat="45.795260502998865" lon="12.12944038846567"><ele>201.6</ele><time>2026-04-02T20:39:05Z</time></trkpt><trkpt lat="45.79533870772194" lon="12.12934655761673"><ele>206.2</ele><time>2026-04-02T20:39:07Z</time></trkpt><trkpt lat="45.795440623504966" lon="12.129307602436324"><ele>210.8</ele><time>2026-04-02T20:39:09Z</time></trkpt><trkpt lat="45.79554418005161" lon="12.129250120158627"><ele>215.4</ele><time>2026-04-02T20:39:11Z</time></trkpt><trkpt lat="45.795641936402355" lon="12.129201636619738"><ele>220.0</ele><time>2026-04-02T20:39:13Z</time></trkpt><trkpt lat="45.79571896338126" lon="12.12908503260638"><ele>219.0</ele><time>2026-04-02T20:39:15Z</time></trkpt><trkpt lat="45.795722096603214" lon="12.12899366681201"><ele>218.0</ele><time>2026-04-02T20:39:16Z</time></trkpt><trkpt lat="45.79577390209395" lon="12.128845477540894"><ele>217.0</ele><time>2026-04-02T20:39:18Z</time></trkpt><trkpt lat="45.79580936961389" lon="12.128685180644073"><ele>216.0</ele><time>2026-04-02T20:39:20Z</time></trkpt><trkpt lat="45.795861530631804" lon="12.128546515495552"><ele>215.0</ele><time>2026-04-02T20:39:22Z</time></trkpt><trkpt lat="45.79594556274089" lon="12.128427155153073"><ele>215.0</ele><time>2026-04-02T20:39:24Z</time></trkpt><trkpt lat="45.795987307255594" lon="12.128356661138213"><ele>215.0</ele><time>2026-04-02T20:39:25Z</time></trkpt><trkpt lat="45.796078619187895" lon="12.128255466612549"><ele>215.0</ele><time>2026-04-02T20:39:27Z</time></trkpt><trkpt lat="45.79616591189023" lon="12.128159257588393"><ele>215.0</ele><time>2026-04-02T20:39:29Z</time></trkpt><trkpt lat="45.79626528928833" lon="12.128061223472454"><ele>215.0</ele><time>2026-04-02T20:39:31Z</time></trkpt><trkpt lat="45.79636557729499" lon="12.127964073018815"><ele>218.6</ele><time>2026-04-02T20:39:33Z</time></trkpt><trkpt lat="45.79644920094479" lon="12.12787749179019"><ele>222.2</ele><time>2026-04-02T20:39:35Z</time></trkpt><trkpt lat="45.79652716905039" lon="12.127781402991051"><ele>225.8</ele><time>2026-04-02T20:39:37Z</time></trkpt><trkpt lat="45.79661236900878" lon="12.127649341759213"><ele>229.4</ele><time>2026-04-02T20:39:39Z</time></trkpt><trkpt lat="45.796655279409194" lon="12.127579545713772"><ele>233.0</ele><time>2026-04-02T20:39:40Z</time></trkpt><trkpt lat="45.796742948354854" lon="12.12745250272943"><ele>231.0</ele><time>2026-04-02T20:39:42Z</time></trkpt><trkpt lat="45.79683374919998" lon="12.127350970921691"><ele>229.0</ele><time>2026-04-02T20:39:44Z</time></trkpt><trkpt lat="45.79692344013045" lon="12.127261567478692"><ele>227.0</ele><time>2026-04-02T20:39:46Z</time></trkpt><trkpt lat="45.797029628612755" lon="12.127205447000959"><ele>225.0</ele><time>2026-04-02T20:39:48Z</time></trkpt><trkpt lat="45.797115257258966" lon="12.127081096885773"><ele>229.2</ele><time>2026-04-02T20:39:50Z</time></trkpt><trkpt lat="45.79718378542865" lon="12.12693414490434"><ele>233.4</ele><time>2026-04-02T20:39:52Z</time></trkpt><trkpt lat="45.79721092539739" lon="12.126848977393562"><ele>237.60000000000002</ele><time>2026-04-02T20:39:53Z</time></trkpt><trkpt lat="45.7973010923685" lon="12.126730509019827"><ele>241.8</ele><time>2026-04-02T20:39:55Z</time></trkpt><trkpt lat="45.79738349871768" lon="12.126627871217265"><ele>246.0</ele><time>2026-04-02T20:39:57Z</time></trkpt><trkpt lat="45.797476812370505" lon="12.126524622040522"><ele>246.0</ele><time>2026-04-02T20:39:59Z</time></trkpt><trkpt lat="45.797558175515874" lon="12.126407884969288"><ele>246.0</ele><time>2026-04-02T20:40:01Z</time></trkpt><trkpt lat="45.797655914956806" lon="12.126309938963475"><ele>246.0</ele><time>2026-04-02T20:40:02.999Z</time></trkpt><trkpt lat="45.79770104888953" lon="12.126233805053634"><ele>246.0</ele><time>2026-04-02T20:40:03.999Z</time></trkpt><trkpt lat="45.79774233194347" lon="12.12615495359068"><ele>246.0</ele><time>2026-04-02T20:40:04.999Z</time></trkpt><trkpt lat="45.79778483335479" lon="12.12607210191976"><ele>246.0</ele><time>2026-04-02T20:40:05.999Z</time></trkpt><trkpt lat="45.79782307537609" lon="12.125983390540313"><ele>249.33333333333334</ele><time>2026-04-02T20:40:06.999Z</time></trkpt><trkpt lat="45.797873937743766" lon="12.12591216075715"><ele>252.66666666666669</ele><time>2026-04-02T20:40:07.999Z</time></trkpt><trkpt lat="45.79790919620997" lon="12.125836638868922"><ele>256.0</ele><time>2026-04-02T20:40:08.999Z</time></trkpt><trkpt lat="45.79794420334805" lon="12.125757691882573"><ele>259.33333333333337</ele><time>2026-04-02T20:40:09.999Z</time></trkpt><trkpt lat="45.79800539168355" lon="12.125619701662139"><ele>262.6666666666667</ele><time>2026-04-02T20:40:11.999Z</time></trkpt><trkpt lat="45.79806379804869" lon="12.125499934267019"><ele>266.0</ele><time>2026-04-02T20:40:13.999Z</time></trkpt><trkpt lat="45.79812514939655" lon="12.125396760292178"><ele>266.0</ele><time>2026-04-02T20:40:15.999Z</time></trkpt><trkpt lat="45.798151772724346" lon="12.125235832282986"><ele>266.0</ele><time>2026-04-02T20:40:17.999Z</time></trkpt><trkpt lat="45.798230281018405" lon="12.125209826435084"><ele>266.0</ele><time>2026-04-02T20:40:18.999Z</time></trkpt><trkpt lat="45.79825619413176" lon="12.125112088018627"><ele>266.0</ele><time>2026-04-02T20:40:19.999Z</time></trkpt><trkpt lat="45.79826880726092" lon="12.12502224516223"><ele>266.0</ele><time>2026-04-02T20:40:20.999Z</time></trkpt><trkpt lat="45.7982987932187" lon="12.124857495157272"><ele>266.0</ele><time>2026-04-02T20:40:22.999Z</time></trkpt><trkpt lat="45.79833551060511" lon="12.124704945579657"><ele>266.0</ele><time>2026-04-02T20:40:24.999Z</time></trkpt><trkpt lat="45.79841584233231" lon="12.124583075741254"><ele>266.0</ele><time>2026-04-02T20:40:26.999Z</time></trkpt><trkpt lat="45.79850986936925" lon="12.124484251629857"><ele>266.0</ele><time>2026-04-02T20:40:28.999Z</time></trkpt><trkpt lat="45.79861430174419" lon="12.124407262815907"><ele>268.6666666666667</ele><time>2026-04-02T20:40:30.999Z</time></trkpt><trkpt lat="45.79873596414318" lon="12.12435464085478"><ele>271.33333333333337</ele><time>2026-04-02T20:40:32.999Z</time></trkpt><trkpt lat="45.79880635880133" lon="12.124326086131216"><ele>274.0</ele><time>2026-04-02T20:40:33.999Z</time></trkpt><trkpt lat="45.79887654329255" lon="12.12429234094803"><ele>276.6666666666667</ele><time>2026-04-02T20:40:34.999Z</time></trkpt><trkpt lat="45.79893991871624" lon="12.124257048377414"><ele>279.3333333333333</ele><time>2026-04-02T20:40:35.999Z</time></trkpt><trkpt lat="45.799017080320056" lon="12.124214011051704"><ele>282.0</ele><time>2026-04-02T20:40:37Z</time></trkpt><trkpt lat="45.799086800583105" lon="12.124170724427527"><ele>282.0</ele><time>2026-04-02T20:40:38Z</time></trkpt><trkpt lat="45.799154858995614" lon="12.124126438712919"><ele>282.0</ele><time>2026-04-02T20:40:39Z</time></trkpt><trkpt lat="45.79921702933659" lon="12.124081604552984"><ele>282.0</ele><time>2026-04-02T20:40:40Z</time></trkpt><trkpt lat="45.79927730296731" lon="12.124030964283316"><ele>282.0</ele><time>2026-04-02T20:40:41Z</time></trkpt><trkpt lat="45.79937890489916" lon="12.123930993641912"><ele>282.0</ele><time>2026-04-02T20:40:43Z</time></trkpt><trkpt lat="45.799460296840465" lon="12.123842648751479"><ele>282.0</ele><time>2026-04-02T20:40:45Z</time></trkpt><trkpt lat="45.79953463702803" lon="12.123761209440904"><ele>283.2</ele><time>2026-04-02T20:40:47Z</time></trkpt><trkpt lat="45.79959454248951" lon="12.123697495246656"><ele>284.4</ele><time>2026-04-02T20:40:49Z</time></trkpt><trkpt lat="45.79967265992047" lon="12.12382872832237"><ele>285.6</ele><time>2026-04-02T20:40:51Z</time></trkpt><trkpt lat="45.79977431082446" lon="12.123920734136691"><ele>286.8</ele><time>2026-04-02T20:40:53Z</time></trkpt><trkpt lat="45.79986390184782" lon="12.124025776779268"><ele>288.0</ele><time>2026-04-02T20:40:55Z</time></trkpt><trkpt lat="45.79995095288213" lon="12.124109400484251"><ele>288.3333333333333</ele><time>2026-04-02T20:40:57Z</time></trkpt><trkpt lat="45.800005449497526" lon="12.12416181433135"><ele>288.6666666666667</ele><time>2026-04-02T20:40:58Z</time></trkpt><trkpt lat="45.80009367303478" lon="12.1242384788057"><ele>289.0</ele><time>2026-04-02T20:40:59.999Z</time></trkpt><trkpt lat="45.800159846477975" lon="12.12427698405096"><ele>289.33333333333337</ele><time>2026-04-02T20:41:00.999Z</time></trkpt><trkpt lat="45.80022613755643" lon="12.124290055483343"><ele>289.6666666666667</ele><time>2026-04-02T20:41:01.999Z</time></trkpt><trkpt lat="45.80028596879419" lon="12.124324941182929"><ele>290.0</ele><time>2026-04-02T20:41:02.999Z</time></trkpt><trkpt lat="45.800410428524295" lon="12.124346635426612"><ele>290.57142857142856</ele><time>2026-04-02T20:41:04.999Z</time></trkpt><trkpt lat="45.800478938633454" lon="12.124344217668053"><ele>291.14285714285717</ele><time>2026-04-02T20:41:05.999Z</time></trkpt><trkpt lat="45.80054282607968" lon="12.124335317781881"><ele>291.7142857142857</ele><time>2026-04-02T20:41:06.999Z</time></trkpt><trkpt lat="45.80061226826537" lon="12.124321963285084"><ele>292.2857142857143</ele><time>2026-04-02T20:41:07.999Z</time></trkpt><trkpt lat="45.800678482683225" lon="12.124321753147736"><ele>292.8571428571429</ele><time>2026-04-02T20:41:08.999Z</time></trkpt><trkpt lat="45.80075281988262" lon="12.124332078985518"><ele>293.42857142857144</ele><time>2026-04-02T20:41:09.999Z</time></trkpt><trkpt lat="45.800833041187" lon="12.12433090270711"><ele>294.0</ele><time>2026-04-02T20:41:10.999Z</time></trkpt><trkpt lat="45.80091243744475" lon="12.124334028837428"><ele>294.0</ele><time>2026-04-02T20:41:11.999Z</time></trkpt><trkpt lat="45.800997573293685" lon="12.124339622894858"><ele>294.0</ele><time>2026-04-02T20:41:12.999Z</time></trkpt><trkpt lat="45.801078759097194" lon="12.124331149725716"><ele>294.0</ele><time>2026-04-02T20:41:13.999Z</time></trkpt><trkpt lat="45.80116814134535" lon="12.124347860774648"><ele>294.0</ele><time>2026-04-02T20:41:14.999Z</time></trkpt><trkpt lat="45.80126241463422" lon="12.124338398229582"><ele>294.0</ele><time>2026-04-02T20:41:15.999Z</time></trkpt><trkpt lat="45.80135482273913" lon="12.124311607764087"><ele>294.0</ele><time>2026-04-02T20:41:16.999Z</time></trkpt><trkpt lat="45.80144893959828" lon="12.124326282355101"><ele>294.2</ele><time>2026-04-02T20:41:17.999Z</time></trkpt><trkpt lat="45.80154372056724" lon="12.124323289742255"><ele>294.4</ele><time>2026-04-02T20:41:18.998Z</time></trkpt><trkpt lat="45.80164553746916" lon="12.12431618071525"><ele>294.6</ele><time>2026-04-02T20:41:19.998Z</time></trkpt><trkpt lat="45.801750260848216" lon="12.12429877889423"><ele>294.8</ele><time>2026-04-02T20:41:20.998Z</time></trkpt><trkpt lat="45.801851494477766" lon="12.124279916064774"><ele>295.0</ele><time>2026-04-02T20:41:21.998Z</time></trkpt><trkpt lat="45.80195435490916" lon="12.124241676779125"><ele>295.2</ele><time>2026-04-02T20:41:22.998Z</time></trkpt><trkpt lat="45.802059297849" lon="12.124257573008872"><ele>295.4</ele><time>2026-04-02T20:41:23.998Z</time></trkpt><trkpt lat="45.80215912031341" lon="12.12425662401249"><ele>295.6</ele><time>2026-04-02T20:41:24.998Z</time></trkpt><trkpt lat="45.80226302033438" lon="12.124262505262372"><ele>295.8</ele><time>2026-04-02T20:41:25.998Z</time></trkpt><trkpt lat="45.80236656946081" lon="12.124257484161852"><ele>296.0</ele><time>2026-04-02T20:41:26.998Z</time></trkpt><trkpt lat="45.802472296410755" lon="12.124280692978497"><ele>296.0</ele><time>2026-04-02T20:41:27.998Z</time></trkpt><trkpt lat="45.80257441241461" lon="12.12430646968419"><ele>296.0</ele><time>2026-04-02T20:41:28.998Z</time></trkpt><trkpt lat="45.802675326825465" lon="12.124327662975242"><ele>296.0</ele><time>2026-04-02T20:41:29.998Z</time></trkpt><trkpt lat="45.8027669939081" lon="12.124345221765902"><ele>296.0</ele><time>2026-04-02T20:41:30.998Z</time></trkpt><trkpt lat="45.80285350051827" lon="12.12435985762885"><ele>296.0</ele><time>2026-04-02T20:41:31.998Z</time></trkpt><trkpt lat="45.80293605434247" lon="12.12435598113748"><ele>295.8</ele><time>2026-04-02T20:41:32.998Z</time></trkpt><trkpt lat="45.80300933984935" lon="12.124333720820527"><ele>295.6</ele><time>2026-04-02T20:41:33.998Z</time></trkpt><trkpt lat="45.80308214647376" lon="12.124288872433254"><ele>295.4</ele><time>2026-04-02T20:41:34.998Z</time></trkpt><trkpt lat="45.803154093954014" lon="12.124217192356348"><ele>295.2</ele><time>2026-04-02T20:41:35.998Z</time></trkpt><trkpt lat="45.8032236054121" lon="12.124115131473022"><ele>295.0</ele><time>2026-04-02T20:41:36.998Z</time></trkpt><trkpt lat="45.80328417808066" lon="12.123985399224033"><ele>296.0</ele><time>2026-04-02T20:41:37.998Z</time></trkpt><trkpt lat="45.80334328318123" lon="12.123862757177024"><ele>297.0</ele><time>2026-04-02T20:41:38.998Z</time></trkpt><trkpt lat="45.803395641047835" lon="12.123743006857145"><ele>298.0</ele><time>2026-04-02T20:41:39.998Z</time></trkpt><trkpt lat="45.80346344289754" lon="12.123654684235973"><ele>299.0</ele><time>2026-04-02T20:41:40.998Z</time></trkpt><trkpt lat="45.80352829271684" lon="12.123587221387474"><ele>300.0</ele><time>2026-04-02T20:41:41.998Z</time></trkpt><trkpt lat="45.80359446332105" lon="12.123554238907127"><ele>301.0</ele><time>2026-04-02T20:41:42.998Z</time></trkpt><trkpt lat="45.80371193375555" lon="12.123563307778289"><ele>301.2</ele><time>2026-04-02T20:41:44.998Z</time></trkpt><trkpt lat="45.80380435062257" lon="12.12365635424494"><ele>301.40000000000003</ele><time>2026-04-02T20:41:46.998Z</time></trkpt><trkpt lat="45.80383563087406" lon="12.12375613398442"><ele>301.6</ele><time>2026-04-02T20:41:47.998Z</time></trkpt><trkpt lat="45.80383428871602" lon="12.123882752887205"><ele>301.8</ele><time>2026-04-02T20:41:48.998Z</time></trkpt><trkpt lat="45.80381210546576" lon="12.124014819057349"><ele>302.0</ele><time>2026-04-02T20:41:49.998Z</time></trkpt><trkpt lat="45.803813964516934" lon="12.12415554138696"><ele>302.0</ele><time>2026-04-02T20:41:50.998Z</time></trkpt><trkpt lat="45.80383740592114" lon="12.124285566240427"><ele>302.0</ele><time>2026-04-02T20:41:51.998Z</time></trkpt><trkpt lat="45.80387813945617" lon="12.124390820321413"><ele>302.0</ele><time>2026-04-02T20:41:52.998Z</time></trkpt><trkpt lat="45.803925125552865" lon="12.124482961142597"><ele>302.0</ele><time>2026-04-02T20:41:53.998Z</time></trkpt><trkpt lat="45.80399028402748" lon="12.124554700750865"><ele>302.0</ele><time>2026-04-02T20:41:54.998Z</time></trkpt><trkpt lat="45.80406195024114" lon="12.12459401507796"><ele>302.0</ele><time>2026-04-02T20:41:55.998Z</time></trkpt><trkpt lat="45.80414190183131" lon="12.124603560363026"><ele>302.0</ele><time>2026-04-02T20:41:56.998Z</time></trkpt><trkpt lat="45.804213108584314" lon="12.124637338564733"><ele>302.0</ele><time>2026-04-02T20:41:57.998Z</time></trkpt><trkpt lat="45.804289271171584" lon="12.124661211978557"><ele>302.0</ele><time>2026-04-02T20:41:58.998Z</time></trkpt><trkpt lat="45.80437003465541" lon="12.124672181939422"><ele>302.0</ele><time>2026-04-02T20:41:59.998Z</time></trkpt><trkpt lat="45.80444946690088" lon="12.124682178634359"><ele>302.0</ele><time>2026-04-02T20:42:00.998Z</time></trkpt><trkpt lat="45.80452842588777" lon="12.124700015594268"><ele>302.0</ele><time>2026-04-02T20:42:01.998Z</time></trkpt><trkpt lat="45.804615110140304" lon="12.124730777155422"><ele>302.0</ele><time>2026-04-02T20:42:02.998Z</time></trkpt><trkpt lat="45.80470468981315" lon="12.124769867548263"><ele>302.0</ele><time>2026-04-02T20:42:03.998Z</time></trkpt><trkpt lat="45.80479221507133" lon="12.124799743768872"><ele>302.0</ele><time>2026-04-02T20:42:04.998Z</time></trkpt><trkpt lat="45.80487078609184" lon="12.12486615696491"><ele>302.0</ele><time>2026-04-02T20:42:05.998Z</time></trkpt><trkpt lat="45.804949088261026" lon="12.124938020003736"><ele>302.0</ele><time>2026-04-02T20:42:06.998Z</time></trkpt><trkpt lat="45.80501827679888" lon="12.125015115186477"><ele>302.0</ele><time>2026-04-02T20:42:07.998Z</time></trkpt><trkpt lat="45.80508670072492" lon="12.125089267853879"><ele>302.0</ele><time>2026-04-02T20:42:08.998Z</time></trkpt><trkpt lat="45.80513595350031" lon="12.125189943087413"><ele>302.0</ele><time>2026-04-02T20:42:09.998Z</time></trkpt><trkpt lat="45.805211580104334" lon="12.125249679197621"><ele>302.0</ele><time>2026-04-02T20:42:10.998Z</time></trkpt><trkpt lat="45.80526995782243" lon="12.125322141284382"><ele>302.0</ele><time>2026-04-02T20:42:11.998Z</time></trkpt><trkpt lat="45.80533424069803" lon="12.125361409423201"><ele>302.0</ele><time>2026-04-02T20:42:12.998Z</time></trkpt><trkpt lat="45.805403765574276" lon="12.12535676971405"><ele>303.5</ele><time>2026-04-02T20:42:13.998Z</time></trkpt><trkpt lat="45.805467905213355" lon="12.12533516992261"><ele>305.0</ele><time>2026-04-02T20:42:14.998Z</time></trkpt><trkpt lat="45.80552547033279" lon="12.125297984998761"><ele>306.5</ele><time>2026-04-02T20:42:15.998Z</time></trkpt><trkpt lat="45.80565062764219" lon="12.125263205826043"><ele>308.0</ele><time>2026-04-02T20:42:17.998Z</time></trkpt><trkpt lat="45.80571836247094" lon="12.125237899333374"><ele>309.5</ele><time>2026-04-02T20:42:18.998Z</time></trkpt><trkpt lat="45.80579261804548" lon="12.125208462158229"><ele>311.0</ele><time>2026-04-02T20:42:19.998Z</time></trkpt><trkpt lat="45.80587162233457" lon="12.125176093948395"><ele>311.0</ele><time>2026-04-02T20:42:20.998Z</time></trkpt><trkpt lat="45.805952835936736" lon="12.125141778336042"><ele>311.0</ele><time>2026-04-02T20:42:21.998Z</time></trkpt><trkpt lat="45.806035050598105" lon="12.125114684637149"><ele>311.0</ele><time>2026-04-02T20:42:22.998Z</time></trkpt><trkpt lat="45.80612096781917" lon="12.125093444137516"><ele>311.0</ele><time>2026-04-02T20:42:23.998Z</time></trkpt><trkpt lat="45.80621267402124" lon="12.12508403361967"><ele>311.0</ele><time>2026-04-02T20:42:24.998Z</time></trkpt><trkpt lat="45.806311082814005" lon="12.125081341082277"><ele>311.0</ele><time>2026-04-02T20:42:25.998Z</time></trkpt><trkpt lat="45.8064212460916" lon="12.125082007996843"><ele>310.8</ele><time>2026-04-02T20:42:26.998Z</time></trkpt><trkpt lat="45.806533126647" lon="12.125087626325882"><ele>310.6</ele><time>2026-04-02T20:42:27.998Z</time></trkpt><trkpt lat="45.80664680941317" lon="12.12508160197628"><ele>310.4</ele><time>2026-04-02T20:42:28.998Z</time></trkpt><trkpt lat="45.80675446350819" lon="12.125091879081523"><ele>310.2</ele><time>2026-04-02T20:42:29.998Z</time></trkpt><trkpt lat="45.80685617897242" lon="12.125104503215463"><ele>310.0</ele><time>2026-04-02T20:42:30.998Z</time></trkpt><trkpt lat="45.80695964979898" lon="12.12511392100339"><ele>310.0</ele><time>2026-04-02T20:42:31.998Z</time></trkpt><trkpt lat="45.8070661236528" lon="12.125125096762867"><ele>310.0</ele><time>2026-04-02T20:42:32.998Z</time></trkpt><trkpt lat="45.80717454198968" lon="12.12514069838547"><ele>310.0</ele><time>2026-04-02T20:42:33.998Z</time></trkpt><trkpt lat="45.80727924197465" lon="12.125145190074857"><ele>310.0</ele><time>2026-04-02T20:42:34.998Z</time></trkpt><trkpt lat="45.80738026925552" lon="12.125132771433007"><ele>310.0</ele><time>2026-04-02T20:42:35.998Z</time></trkpt><trkpt lat="45.80748360441333" lon="12.125120538264955"><ele>310.0</ele><time>2026-04-02T20:42:36.998Z</time></trkpt><trkpt lat="45.80758990101604" lon="12.125123555889763"><ele>310.0</ele><time>2026-04-02T20:42:37.998Z</time></trkpt><trkpt lat="45.80769747053493" lon="12.125095172060707"><ele>310.0</ele><time>2026-04-02T20:42:38.998Z</time></trkpt><trkpt lat="45.807801788970664" lon="12.125044947954418"><ele>310.0</ele><time>2026-04-02T20:42:39.998Z</time></trkpt><trkpt lat="45.807906494324" lon="12.12501269173494"><ele>310.0</ele><time>2026-04-02T20:42:40.998Z</time></trkpt><trkpt lat="45.808005990428974" lon="12.124972792190137"><ele>310.4</ele><time>2026-04-02T20:42:41.998Z</time></trkpt><trkpt lat="45.80810172024132" lon="12.124926749522967"><ele>310.8</ele><time>2026-04-02T20:42:42.999Z</time></trkpt><trkpt lat="45.80819203334599" lon="12.124887467594098"><ele>311.2</ele><time>2026-04-02T20:42:43.998Z</time></trkpt><trkpt lat="45.80828870810174" lon="12.124871168013332"><ele>311.6</ele><time>2026-04-02T20:42:44.998Z</time></trkpt><trkpt lat="45.808371883981664" lon="12.124826298501567"><ele>312.0</ele><time>2026-04-02T20:42:45.998Z</time></trkpt><trkpt lat="45.80845747074937" lon="12.124818653415101"><ele>313.1666666666667</ele><time>2026-04-02T20:42:46.998Z</time></trkpt><trkpt lat="45.8085635425241" lon="12.124811465310978"><ele>314.3333333333333</ele><time>2026-04-02T20:42:47.998Z</time></trkpt><trkpt lat="45.80868456088079" lon="12.124789642300005"><ele>315.5</ele><time>2026-04-02T20:42:49.998Z</time></trkpt><trkpt lat="45.808751846737344" lon="12.12474884888619"><ele>316.66666666666663</ele><time>2026-04-02T20:42:50.998Z</time></trkpt><trkpt lat="45.808818253165576" lon="12.12473663368352"><ele>317.8333333333333</ele><time>2026-04-02T20:42:51.998Z</time></trkpt><trkpt lat="45.80888901282424" lon="12.124708775163343"><ele>319.0</ele><time>2026-04-02T20:42:53.999Z</time></trkpt><trkpt lat="45.8089515405836" lon="12.124682287428628"><ele>319.0</ele><time>2026-04-02T20:43:04.999Z</time></trkpt><trkpt lat="45.80889773980052" lon="12.124564230710725"><ele>319.0</ele><time>2026-04-02T20:43:11.999Z</time></trkpt><trkpt lat="45.80883154099017" lon="12.124607938357423"><ele>319.0</ele><time>2026-04-02T20:43:19.999Z</time></trkpt><trkpt lat="45.80876613795393" lon="12.124674619871422"><ele>319.0</ele><time>2026-04-02T20:43:21.999Z</time></trkpt><trkpt lat="45.808681870402296" lon="12.124759668384412"><ele>319.0</ele><time>2026-04-02T20:43:23.999Z</time></trkpt><trkpt lat="45.808595884970764" lon="12.124826049652235"><ele>319.0</ele><time>2026-04-02T20:43:25.999Z</time></trkpt><trkpt lat="45.80851245223598" lon="12.124839208884955"><ele>319.0</ele><time>2026-04-02T20:43:27.999Z</time></trkpt><trkpt lat="45.80844487162796" lon="12.124838534347933"><ele>319.0</ele><time>2026-04-02T20:43:34.999Z</time></trkpt><trkpt lat="45.808438747745214" lon="12.124943174219263"><ele>319.0</ele><time>2026-04-02T20:43:39.999Z</time></trkpt><trkpt lat="45.80847290593807" lon="12.124863374200839"><ele>319.0</ele><time>2026-04-02T20:44:13.999Z</time></trkpt><trkpt lat="45.80853445341976" lon="12.12483844842553"><ele>319.0</ele><time>2026-04-02T20:44:16.999Z</time></trkpt><trkpt lat="45.808601261553136" lon="12.124844467661795"><ele>319.0</ele><time>2026-04-02T20:44:53Z</time></trkpt><trkpt lat="45.808676836029775" lon="12.124787222924523"><ele>319.0</ele><time>2026-04-02T20:44:57Z</time></trkpt><trkpt lat="45.80876186024818" lon="12.124700766665129"><ele>319.0</ele><time>2026-04-02T20:45:00Z</time></trkpt><trkpt lat="45.808830506387785" lon="12.12464708866014"><ele>319.0</ele><time>2026-04-02T20:45:02Z</time></trkpt><trkpt lat="45.80889908199664" lon="12.124609003838732"><ele>319.0</ele><time>2026-04-02T20:45:04Z</time></trkpt><trkpt lat="45.80899119375926" lon="12.124599538880652"><ele>319.0</ele><time>2026-04-02T20:45:23Z</time></trkpt><trkpt lat="45.80906805113341" lon="12.124580547678367"><ele>319.0</ele><time>2026-04-02T20:45:25Z</time></trkpt><trkpt lat="45.80914935994044" lon="12.1245534013118"><ele>319.0</ele><time>2026-04-02T20:45:27Z</time></trkpt><trkpt lat="45.809215171305894" lon="12.124538483084606"><ele>319.0</ele><time>2026-04-02T20:45:29Z</time></trkpt><trkpt lat="45.80929291480099" lon="12.124510334791205"><ele>319.0</ele><time>2026-04-02T20:45:31Z</time></trkpt><trkpt lat="45.80939264118294" lon="12.124456217182532"><ele>319.0</ele><time>2026-04-02T20:45:33Z</time></trkpt><trkpt lat="45.80949942556209" lon="12.124459494449438"><ele>319.0</ele><time>2026-04-02T20:45:35Z</time></trkpt><trkpt lat="45.80960526969653" lon="12.124434032115609"><ele>318.8571428571429</ele><time>2026-04-02T20:45:37Z</time></trkpt><trkpt lat="45.809678601853015" lon="12.124412745673569"><ele>318.71428571428567</ele><time>2026-04-02T20:45:38Z</time></trkpt><trkpt lat="45.80973842422853" lon="12.124446023292593"><ele>318.57142857142856</ele><time>2026-04-02T20:45:39Z</time></trkpt><trkpt lat="45.809806862651975" lon="12.12449983540598"><ele>318.42857142857144</ele><time>2026-04-02T20:45:39.999Z</time></trkpt><trkpt lat="45.809868012391405" lon="12.124562039691927"><ele>318.28571428571433</ele><time>2026-04-02T20:45:40.999Z</time></trkpt><trkpt lat="45.809920152366594" lon="12.124626330916296"><ele>318.1428571428571</ele><time>2026-04-02T20:45:41.999Z</time></trkpt><trkpt lat="45.80997525589048" lon="12.124680748405256"><ele>318.0</ele><time>2026-04-02T20:45:42.999Z</time></trkpt><trkpt lat="45.81003491295009" lon="12.124721528167408"><ele>318.0</ele><time>2026-04-02T20:45:43.999Z</time></trkpt><trkpt lat="45.81009669402397" lon="12.124749684383001"><ele>318.0</ele><time>2026-04-02T20:45:44.999Z</time></trkpt><trkpt lat="45.81019730721607" lon="12.124792987632944"><ele>318.0</ele><time>2026-04-02T20:45:46.999Z</time></trkpt><trkpt lat="45.81026005470521" lon="12.124841552327862"><ele>318.0</ele><time>2026-04-02T20:45:47.999Z</time></trkpt><trkpt lat="45.81031952857241" lon="12.124888486178744"><ele>318.0</ele><time>2026-04-02T20:45:48.999Z</time></trkpt><trkpt lat="45.810380734402855" lon="12.124934207512071"><ele>318.0</ele><time>2026-04-02T20:45:49.999Z</time></trkpt><trkpt lat="45.810436583067606" lon="12.124989471017724"><ele>318.0</ele><time>2026-04-02T20:45:50.999Z</time></trkpt><trkpt lat="45.8104932489551" lon="12.125042551710417"><ele>316.5</ele><time>2026-04-02T20:45:51.999Z</time></trkpt><trkpt lat="45.81054673431439" lon="12.125120881420969"><ele>315.0</ele><time>2026-04-02T20:45:52.999Z</time></trkpt><trkpt lat="45.810608350952" lon="12.12517587446726"><ele>313.5</ele><time>2026-04-02T20:45:53.999Z</time></trkpt><trkpt lat="45.81066556183307" lon="12.12523587385325"><ele>312.0</ele><time>2026-04-02T20:45:54.999Z</time></trkpt><trkpt lat="45.81071686917249" lon="12.12529860639741"><ele>310.5</ele><time>2026-04-02T20:45:55.999Z</time></trkpt><trkpt lat="45.810764112615615" lon="12.125360628773889"><ele>309.0</ele><time>2026-04-02T20:45:56.999Z</time></trkpt><trkpt lat="45.8108493595364" lon="12.12545975013025"><ele>309.0</ele><time>2026-04-02T20:45:58.999Z</time></trkpt><trkpt lat="45.81090535192012" lon="12.125533904600479"><ele>309.0</ele><time>2026-04-02T20:46:00.999Z</time></trkpt><trkpt lat="45.810979482316256" lon="12.125580441526026"><ele>309.0</ele><time>2026-04-02T20:46:02.999Z</time></trkpt><trkpt lat="45.811037871225174" lon="12.125625888227086"><ele>309.0</ele><time>2026-04-02T20:46:04.999Z</time></trkpt><trkpt lat="45.81111920981748" lon="12.125678088894903"><ele>309.0</ele><time>2026-04-02T20:46:07.999Z</time></trkpt><trkpt lat="45.81118171413899" lon="12.125738288461593"><ele>309.0</ele><time>2026-04-02T20:46:10.999Z</time></trkpt><trkpt lat="45.81124070496581" lon="12.125789684559004"><ele>309.2</ele><time>2026-04-02T20:46:13.999Z</time></trkpt><trkpt lat="45.811290345840014" lon="12.125881905509674"><ele>309.4</ele><time>2026-04-02T20:46:16.999Z</time></trkpt><trkpt lat="45.81133522255126" lon="12.125997915545634"><ele>309.6</ele><time>2026-04-02T20:46:18.999Z</time></trkpt><trkpt lat="45.81138037146264" lon="12.126150150162086"><ele>309.8</ele><time>2026-04-02T20:46:20.999Z</time></trkpt><trkpt lat="45.811421056557265" lon="12.12627281921887"><ele>310.0</ele><time>2026-04-02T20:46:22.999Z</time></trkpt><trkpt lat="45.81148138933805" lon="12.126338739385444"><ele>310.0</ele><time>2026-04-02T20:46:24.999Z</time></trkpt><trkpt lat="45.81156011693024" lon="12.12636172505903"><ele>310.0</ele><time>2026-04-02T20:46:26.999Z</time></trkpt><trkpt lat="45.81163466340579" lon="12.126337712760872"><ele>310.0</ele><time>2026-04-02T20:46:28.999Z</time></trkpt><trkpt lat="45.81172727430436" lon="12.126250975243938"><ele>310.0</ele><time>2026-04-02T20:46:30.999Z</time></trkpt><trkpt lat="45.81176682386083" lon="12.126163085419604"><ele>310.0</ele><time>2026-04-02T20:46:31.999Z</time></trkpt><trkpt lat="45.8118069842239" lon="12.126064320787902"><ele>310.0</ele><time>2026-04-02T20:46:32.999Z</time></trkpt><trkpt lat="45.81186878107311" lon="12.125991315647417"><ele>309.6</ele><time>2026-04-02T20:46:33.999Z</time></trkpt><trkpt lat="45.81191212971774" lon="12.125909441617402"><ele>309.2</ele><time>2026-04-02T20:46:34.999Z</time></trkpt><trkpt lat="45.81195388473831" lon="12.125837629319806"><ele>308.8</ele><time>2026-04-02T20:46:35.999Z</time></trkpt><trkpt lat="45.812040962131455" lon="12.125720204800682"><ele>308.4</ele><time>2026-04-02T20:46:37.999Z</time></trkpt><trkpt lat="45.81214730270903" lon="12.125667276342433"><ele>308.0</ele><time>2026-04-02T20:46:39.999Z</time></trkpt><trkpt lat="45.81227341218842" lon="12.125681408054568"><ele>308.0</ele><time>2026-04-02T20:46:41.999Z</time></trkpt><trkpt lat="45.81233363915042" lon="12.125720498775378"><ele>308.0</ele><time>2026-04-02T20:46:42.999Z</time></trkpt><trkpt lat="45.81238983361018" lon="12.12577508393555"><ele>308.0</ele><time>2026-04-02T20:46:43.999Z</time></trkpt><trkpt lat="45.812428416708926" lon="12.125849812561562"><ele>308.0</ele><time>2026-04-02T20:46:44.999Z</time></trkpt><trkpt lat="45.81247380529857" lon="12.125932740495678"><ele>308.0</ele><time>2026-04-02T20:46:45.999Z</time></trkpt><trkpt lat="45.81250489648976" lon="12.126029123822441"><ele>308.0</ele><time>2026-04-02T20:46:46.999Z</time></trkpt><trkpt lat="45.812511327478816" lon="12.126144779841333"><ele>308.0</ele><time>2026-04-02T20:46:47.999Z</time></trkpt><trkpt lat="45.812524351993275" lon="12.126260779712386"><ele>306.8</ele><time>2026-04-02T20:46:48.999Z</time></trkpt><trkpt lat="45.812541782190564" lon="12.126370792577431"><ele>305.6</ele><time>2026-04-02T20:46:49.999Z</time></trkpt><trkpt lat="45.81257606889959" lon="12.12646321294307"><ele>304.4</ele><time>2026-04-02T20:46:50.999Z</time></trkpt><trkpt lat="45.812639925183504" lon="12.1265949460628"><ele>303.2</ele><time>2026-04-02T20:46:52.999Z</time></trkpt><trkpt lat="45.81275132653079" lon="12.126605841132672"><ele>302.0</ele><time>2026-04-02T20:46:55Z</time></trkpt><trkpt lat="45.81286442426439" lon="12.126586246199762"><ele>301.83333333333337</ele><time>2026-04-02T20:46:57Z</time></trkpt><trkpt lat="45.81293306163296" lon="12.126575780127677"><ele>301.6666666666667</ele><time>2026-04-02T20:46:58Z</time></trkpt><trkpt lat="45.81300021670837" lon="12.126576842010113"><ele>301.5</ele><time>2026-04-02T20:46:59Z</time></trkpt><trkpt lat="45.81306329049889" lon="12.12659502758803"><ele>301.3333333333333</ele><time>2026-04-02T20:47:00Z</time></trkpt><trkpt lat="45.813127017362135" lon="12.126635245415526"><ele>301.16666666666663</ele><time>2026-04-02T20:47:01Z</time></trkpt><trkpt lat="45.81316079182685" lon="12.126718953415489"><ele>301.0</ele><time>2026-04-02T20:47:02Z</time></trkpt><trkpt lat="45.81323443495233" lon="12.126862361251737"><ele>301.0</ele><time>2026-04-02T20:47:04Z</time></trkpt><trkpt lat="45.813321470354445" lon="12.126942723298024"><ele>301.0</ele><time>2026-04-02T20:47:06Z</time></trkpt><trkpt lat="45.8133796535132" lon="12.126979885099056"><ele>301.0</ele><time>2026-04-02T20:47:13Z</time></trkpt><trkpt lat="45.813388695023285" lon="12.12681302894268"><ele>301.0</ele><time>2026-04-02T20:47:16Z</time></trkpt><trkpt lat="45.813327938901615" lon="12.126724903198125"><ele>301.0</ele><time>2026-04-02T20:47:18Z</time></trkpt><trkpt lat="45.81326256918089" lon="12.12662518723401"><ele>302.16666666666663</ele><time>2026-04-02T20:47:20Z</time></trkpt><trkpt lat="45.813237949187" lon="12.12654020207148"><ele>303.3333333333333</ele><time>2026-04-02T20:47:21Z</time></trkpt><trkpt lat="45.8131857411261" lon="12.126472028684777"><ele>304.5</ele><time>2026-04-02T20:47:22Z</time></trkpt><trkpt lat="45.81314089367924" lon="12.126366020577661"><ele>305.6666666666667</ele><time>2026-04-02T20:47:23Z</time></trkpt><trkpt lat="45.81308978074206" lon="12.126244814049427"><ele>306.83333333333337</ele><time>2026-04-02T20:47:24Z</time></trkpt><trkpt lat="45.81305368374176" lon="12.126101648225807"><ele>308.0</ele><time>2026-04-02T20:47:25Z</time></trkpt><trkpt lat="45.813024234334534" lon="12.125953652729573"><ele>308.0</ele><time>2026-04-02T20:47:26Z</time></trkpt><trkpt lat="45.81301337321506" lon="12.125825551952149"><ele>308.0</ele><time>2026-04-02T20:47:27Z</time></trkpt><trkpt lat="45.81302126515692" lon="12.125690933368006"><ele>308.0</ele><time>2026-04-02T20:47:28Z</time></trkpt><trkpt lat="45.81304194928556" lon="12.125558761527547"><ele>308.0</ele><time>2026-04-02T20:47:29Z</time></trkpt><trkpt lat="45.81307847111597" lon="12.125414363403172"><ele>308.0</ele><time>2026-04-02T20:47:30Z</time></trkpt><trkpt lat="45.813132539908594" lon="12.125266408261831"><ele>308.0</ele><time>2026-04-02T20:47:31Z</time></trkpt><trkpt lat="45.813205016611214" lon="12.125121087846823"><ele>308.0</ele><time>2026-04-02T20:47:32Z</time></trkpt><trkpt lat="45.81329654781962" lon="12.12498035192882"><ele>308.0</ele><time>2026-04-02T20:47:33Z</time></trkpt><trkpt lat="45.813397799611934" lon="12.124832588280078"><ele>308.0</ele><time>2026-04-02T20:47:34Z</time></trkpt><trkpt lat="45.813494420519646" lon="12.124689053171677"><ele>309.0</ele><time>2026-04-02T20:47:35Z</time></trkpt><trkpt lat="45.813593895782084" lon="12.124539846317585"><ele>310.0</ele><time>2026-04-02T20:47:36Z</time></trkpt><trkpt lat="45.81369255909171" lon="12.124385905193957"><ele>311.0</ele><time>2026-04-02T20:47:37Z</time></trkpt><trkpt lat="45.81378408767617" lon="12.124201291469895"><ele>312.0</ele><time>2026-04-02T20:47:38Z</time></trkpt><trkpt lat="45.813881884658656" lon="12.124022320408821"><ele>312.0</ele><time>2026-04-02T20:47:39Z</time></trkpt><trkpt lat="45.813969390406584" lon="12.123838807554826"><ele>312.0</ele><time>2026-04-02T20:47:40Z</time></trkpt><trkpt lat="45.81404545982524" lon="12.123668200801724"><ele>312.0</ele><time>2026-04-02T20:47:41Z</time></trkpt><trkpt lat="45.814111006160104" lon="12.123513692168897"><ele>312.0</ele><time>2026-04-02T20:47:42Z</time></trkpt><trkpt lat="45.81414524007578" lon="12.123352181071033"><ele>313.0</ele><time>2026-04-02T20:47:43Z</time></trkpt><trkpt lat="45.814132042246506" lon="12.123175933030197"><ele>314.0</ele><time>2026-04-02T20:47:44Z</time></trkpt><trkpt lat="45.814059514951246" lon="12.123026731900445"><ele>315.0</ele><time>2026-04-02T20:47:45Z</time></trkpt><trkpt lat="45.81394023484469" lon="12.12292268672181"><ele>316.0</ele><time>2026-04-02T20:47:46Z</time></trkpt><trkpt lat="45.813815603005914" lon="12.122857832213413"><ele>316.0</ele><time>2026-04-02T20:47:47Z</time></trkpt><trkpt lat="45.813690782642546" lon="12.122804544133299"><ele>316.0</ele><time>2026-04-02T20:47:48Z</time></trkpt><trkpt lat="45.813573083461584" lon="12.122731036135344"><ele>316.0</ele><time>2026-04-02T20:47:49Z</time></trkpt><trkpt lat="45.81346005400561" lon="12.122643121452805"><ele>316.0</ele><time>2026-04-02T20:47:50Z</time></trkpt><trkpt lat="45.813352142185416" lon="12.122551541344201"><ele>316.75</ele><time>2026-04-02T20:47:51Z</time></trkpt><trkpt lat="45.81324051647711" lon="12.122450179153208"><ele>317.5</ele><time>2026-04-02T20:47:52Z</time></trkpt><trkpt lat="45.81312813786667" lon="12.122352939745834"><ele>318.25</ele><time>2026-04-02T20:47:53Z</time></trkpt><trkpt lat="45.81301185792244" lon="12.122247976415226"><ele>319.0</ele><time>2026-04-02T20:47:54Z</time></trkpt><trkpt lat="45.81289585154386" lon="12.122148583460666"><ele>319.0</ele><time>2026-04-02T20:47:55Z</time></trkpt><trkpt lat="45.812779986346136" lon="12.122047922436572"><ele>319.0</ele><time>2026-04-02T20:47:56Z</time></trkpt><trkpt lat="45.812675127148815" lon="12.12193698091129"><ele>319.0</ele><time>2026-04-02T20:47:57Z</time></trkpt><trkpt lat="45.81259082033314" lon="12.121792919329005"><ele>319.0</ele><time>2026-04-02T20:47:58Z</time></trkpt><trkpt lat="45.812503092671975" lon="12.12165435712558"><ele>321.25</ele><time>2026-04-02T20:47:59Z</time></trkpt><trkpt lat="45.812434311285664" lon="12.121494888360667"><ele>323.5</ele><time>2026-04-02T20:48:00Z</time></trkpt><trkpt lat="45.81237404414564" lon="12.12132731868446"><ele>325.75</ele><time>2026-04-02T20:48:01Z</time></trkpt><trkpt lat="45.81232912020475" lon="12.121156240389054"><ele>328.0</ele><time>2026-04-02T20:48:02Z</time></trkpt><trkpt lat="45.81229444865823" lon="12.120978735565043"><ele>328.0</ele><time>2026-04-02T20:48:03Z</time></trkpt><trkpt lat="45.812280312609175" lon="12.120797852524461"><ele>328.0</ele><time>2026-04-02T20:48:04Z</time></trkpt><trkpt lat="45.81227249092201" lon="12.12060596295717"><ele>328.0</ele><time>2026-04-02T20:48:05Z</time></trkpt><trkpt lat="45.81226481867436" lon="12.120417739614993"><ele>328.0</ele><time>2026-04-02T20:48:06Z</time></trkpt><trkpt lat="45.81225729297885" lon="12.120233111459706"><ele>329.0</ele><time>2026-04-02T20:48:07Z</time></trkpt><trkpt lat="45.81224994078028" lon="12.120052739822198"><ele>330.0</ele><time>2026-04-02T20:48:08Z</time></trkpt><trkpt lat="45.81223341986184" lon="12.119881969650987"><ele>331.0</ele><time>2026-04-02T20:48:09Z</time></trkpt><trkpt lat="45.81222726937586" lon="12.119714320974916"><ele>332.0</ele><time>2026-04-02T20:48:10Z</time></trkpt><trkpt lat="45.81222332720112" lon="12.119560368983956"><ele>332.1666666666667</ele><time>2026-04-02T20:48:11Z</time></trkpt><trkpt lat="45.81221889192459" lon="12.1194179011982"><ele>332.33333333333337</ele><time>2026-04-02T20:48:11.999Z</time></trkpt><trkpt lat="45.81221728768816" lon="12.119291822358212"><ele>332.5</ele><time>2026-04-02T20:48:12.999Z</time></trkpt><trkpt lat="45.81221244780268" lon="12.119180955912814"><ele>332.6666666666667</ele><time>2026-04-02T20:48:13.999Z</time></trkpt><trkpt lat="45.81221099442386" lon="12.119080389370742"><ele>332.8333333333333</ele><time>2026-04-02T20:48:14.999Z</time></trkpt><trkpt lat="45.81220085320035" lon="12.118929346516063"><ele>333.0</ele><time>2026-04-02T20:48:16.999Z</time></trkpt><trkpt lat="45.81208072418215" lon="12.118835391265959"><ele>333.0</ele><time>2026-04-02T20:48:19.999Z</time></trkpt><trkpt lat="45.81200563020454" lon="12.118853768724044"><ele>333.0</ele><time>2026-04-02T20:48:20.999Z</time></trkpt><trkpt lat="45.81191625787214" lon="12.118875692834928"><ele>333.0</ele><time>2026-04-02T20:48:21.999Z</time></trkpt><trkpt lat="45.81181569958499" lon="12.118886435771364"><ele>333.0</ele><time>2026-04-02T20:48:22.999Z</time></trkpt><trkpt lat="45.81171945575164" lon="12.11889281406207"><ele>333.0</ele><time>2026-04-02T20:48:23.999Z</time></trkpt><trkpt lat="45.81161772753452" lon="12.11890190875995"><ele>332.75</ele><time>2026-04-02T20:48:24.999Z</time></trkpt><trkpt lat="45.81150603198482" lon="12.118911266369379"><ele>332.5</ele><time>2026-04-02T20:48:25.999Z</time></trkpt><trkpt lat="45.81137793304739" lon="12.118918119327141"><ele>332.25</ele><time>2026-04-02T20:48:26.999Z</time></trkpt><trkpt lat="45.811245840071486" lon="12.118928275787765"><ele>332.0</ele><time>2026-04-02T20:48:27.999Z</time></trkpt><trkpt lat="45.81111069406657" lon="12.118941019051642"><ele>332.75</ele><time>2026-04-02T20:48:28.999Z</time></trkpt><trkpt lat="45.81097237160972" lon="12.11893947171666"><ele>333.5</ele><time>2026-04-02T20:48:29.999Z</time></trkpt><trkpt lat="45.81085388612409" lon="12.118919456570875"><ele>334.25</ele><time>2026-04-02T20:48:30.999Z</time></trkpt><trkpt lat="45.810714158898605" lon="12.118908548559858"><ele>335.0</ele><time>2026-04-02T20:48:31.999Z</time></trkpt><trkpt lat="45.810564462316975" lon="12.118910805952487"><ele>335.0</ele><time>2026-04-02T20:48:32.999Z</time></trkpt><trkpt lat="45.81041385125308" lon="12.118899988531686"><ele>335.0</ele><time>2026-04-02T20:48:33.999Z</time></trkpt><trkpt lat="45.81026807586622" lon="12.118894042498155"><ele>335.0</ele><time>2026-04-02T20:48:34.999Z</time></trkpt><trkpt lat="45.810127038740966" lon="12.118890127249365"><ele>335.0</ele><time>2026-04-02T20:48:35.999Z</time></trkpt><trkpt lat="45.80999575214153" lon="12.118882746800319"><ele>334.0</ele><time>2026-04-02T20:48:36.999Z</time></trkpt><trkpt lat="45.80986813708698" lon="12.118876559050062"><ele>333.0</ele><time>2026-04-02T20:48:37.999Z</time></trkpt><trkpt lat="45.809749194531264" lon="12.11888616516169"><ele>332.0</ele><time>2026-04-02T20:48:38.999Z</time></trkpt><trkpt lat="45.80962733467902" lon="12.118895558463256"><ele>331.0</ele><time>2026-04-02T20:48:39.999Z</time></trkpt><trkpt lat="45.80950557343249" lon="12.11890673002732"><ele>331.0</ele><time>2026-04-02T20:48:40.999Z</time></trkpt><trkpt lat="45.809389154763984" lon="12.11892733306192"><ele>331.0</ele><time>2026-04-02T20:48:41.999Z</time></trkpt><trkpt lat="45.80928198284264" lon="12.118890034101952"><ele>331.0</ele><time>2026-04-02T20:48:42.999Z</time></trkpt><trkpt lat="45.8091853772329" lon="12.118844231478333"><ele>331.0</ele><time>2026-04-02T20:48:43.999Z</time></trkpt><trkpt lat="45.8090855808887" lon="12.118784630631785"><ele>331.0</ele><time>2026-04-02T20:48:44.999Z</time></trkpt><trkpt lat="45.80898354189899" lon="12.118726088094142"><ele>330.5</ele><time>2026-04-02T20:48:45.999Z</time></trkpt><trkpt lat="45.80887571740366" lon="12.118692976588976"><ele>330.0</ele><time>2026-04-02T20:48:46.999Z</time></trkpt><trkpt lat="45.80877294831237" lon="12.11864415967036"><ele>329.5</ele><time>2026-04-02T20:48:47.999Z</time></trkpt><trkpt lat="45.80866006810373" lon="12.118605013381188"><ele>329.0</ele><time>2026-04-02T20:48:48.999Z</time></trkpt><trkpt lat="45.808543943620364" lon="12.11856599767676"><ele>329.25</ele><time>2026-04-02T20:48:49.999Z</time></trkpt><trkpt lat="45.80842092643057" lon="12.11852597250988"><ele>329.5</ele><time>2026-04-02T20:48:50.999Z</time></trkpt><trkpt lat="45.80829393758816" lon="12.118486308624016"><ele>329.75</ele><time>2026-04-02T20:48:51.999Z</time></trkpt><trkpt lat="45.808164094126546" lon="12.118448101756849"><ele>330.0</ele><time>2026-04-02T20:48:52.999Z</time></trkpt><trkpt lat="45.80803707397674" lon="12.118411726600861"><ele>330.0</ele><time>2026-04-02T20:48:53.999Z</time></trkpt><trkpt lat="45.80790298249564" lon="12.118394493706639"><ele>330.0</ele><time>2026-04-02T20:48:54.999Z</time></trkpt><trkpt lat="45.80777088923427" lon="12.118381820011738"><ele>330.0</ele><time>2026-04-02T20:48:55.999Z</time></trkpt><trkpt lat="45.80764065605651" lon="12.118345804813462"><ele>330.0</ele><time>2026-04-02T20:48:56.999Z</time></trkpt><trkpt lat="45.80751776741226" lon="12.118298654382102"><ele>329.75</ele><time>2026-04-02T20:48:57.999Z</time></trkpt><trkpt lat="45.80738966441495" lon="12.11825040891969"><ele>329.5</ele><time>2026-04-02T20:48:58.999Z</time></trkpt><trkpt lat="45.8072633894566" lon="12.118226144115603"><ele>329.25</ele><time>2026-04-02T20:49:00Z</time></trkpt><trkpt lat="45.80714565856032" lon="12.118183324002985"><ele>329.0</ele><time>2026-04-02T20:49:01Z</time></trkpt><trkpt lat="45.80702311656669" lon="12.118159116149679"><ele>329.0</ele><time>2026-04-02T20:49:02Z</time></trkpt><trkpt lat="45.806902086012244" lon="12.118161646879047"><ele>329.0</ele><time>2026-04-02T20:49:03Z</time></trkpt><trkpt lat="45.806776244413676" lon="12.118194185257652"><ele>329.0</ele><time>2026-04-02T20:49:04Z</time></trkpt><trkpt lat="45.80665505375982" lon="12.118230903049756"><ele>329.0</ele><time>2026-04-02T20:49:05Z</time></trkpt><trkpt lat="45.80652973788173" lon="12.118255157431822"><ele>329.25</ele><time>2026-04-02T20:49:06Z</time></trkpt><trkpt lat="45.806402754696975" lon="12.118270394237774"><ele>329.5</ele><time>2026-04-02T20:49:07Z</time></trkpt><trkpt lat="45.806278738945544" lon="12.118287867603945"><ele>329.75</ele><time>2026-04-02T20:49:08Z</time></trkpt><trkpt lat="45.80615233951828" lon="12.118304479132625"><ele>330.0</ele><time>2026-04-02T20:49:09Z</time></trkpt><trkpt lat="45.806024639636725" lon="12.118321644983077"><ele>329.0</ele><time>2026-04-02T20:49:10Z</time></trkpt><trkpt lat="45.8059032292271" lon="12.118342127866216"><ele>328.0</ele><time>2026-04-02T20:49:11Z</time></trkpt><trkpt lat="45.80578588970038" lon="12.118317374516096"><ele>327.0</ele><time>2026-04-02T20:49:12Z</time></trkpt><trkpt lat="45.80566030571676" lon="12.118300397752407"><ele>326.0</ele><time>2026-04-02T20:49:13Z</time></trkpt><trkpt lat="45.8055389114981" lon="12.118287477496175"><ele>326.0</ele><time>2026-04-02T20:49:14Z</time></trkpt><trkpt lat="45.805419368391746" lon="12.118271722680806"><ele>326.0</ele><time>2026-04-02T20:49:15Z</time></trkpt><trkpt lat="45.80530219239969" lon="12.118257582920187"><ele>326.0</ele><time>2026-04-02T20:49:16Z</time></trkpt><trkpt lat="45.80518463524348" lon="12.118270425981045"><ele>326.0</ele><time>2026-04-02T20:49:17Z</time></trkpt><trkpt lat="45.8050670703631" lon="12.118264484168268"><ele>326.4</ele><time>2026-04-02T20:49:18Z</time></trkpt><trkpt lat="45.804949209039926" lon="12.118266143626105"><ele>326.8</ele><time>2026-04-02T20:49:19Z</time></trkpt><trkpt lat="45.8048352457153" lon="12.118270255767358"><ele>327.2</ele><time>2026-04-02T20:49:20Z</time></trkpt><trkpt lat="45.804728056854245" lon="12.11827303673006"><ele>327.59999999999997</ele><time>2026-04-02T20:49:21Z</time></trkpt><trkpt lat="45.8046234778838" lon="12.118273041572383"><ele>328.0</ele><time>2026-04-02T20:49:22Z</time></trkpt><trkpt lat="45.804521600675514" lon="12.118273770090488"><ele>328.0</ele><time>2026-04-02T20:49:23Z</time></trkpt><trkpt lat="45.80442737334637" lon="12.118272396449683"><ele>328.0</ele><time>2026-04-02T20:49:24Z</time></trkpt><trkpt lat="45.80433485163053" lon="12.118273199101084"><ele>328.0</ele><time>2026-04-02T20:49:25Z</time></trkpt><trkpt lat="45.80424280279202" lon="12.118278352758704"><ele>328.0</ele><time>2026-04-02T20:49:26Z</time></trkpt><trkpt lat="45.80415441301134" lon="12.118287924483951"><ele>328.0</ele><time>2026-04-02T20:49:27Z</time></trkpt><trkpt lat="45.80406052324192" lon="12.11829012008657"><ele>327.79999999999995</ele><time>2026-04-02T20:49:28Z</time></trkpt><trkpt lat="45.803965011909" lon="12.118284728608005"><ele>327.6</ele><time>2026-04-02T20:49:29Z</time></trkpt><trkpt lat="45.80386568615676" lon="12.118261819379452"><ele>327.4</ele><time>2026-04-02T20:49:30Z</time></trkpt><trkpt lat="45.803759613570406" lon="12.118247346706779"><ele>327.20000000000005</ele><time>2026-04-02T20:49:31Z</time></trkpt><trkpt lat="45.80365619806199" lon="12.11823231517052"><ele>327.0</ele><time>2026-04-02T20:49:32Z</time></trkpt><trkpt lat="45.803550507119695" lon="12.118227042544502"><ele>326.25</ele><time>2026-04-02T20:49:33Z</time></trkpt><trkpt lat="45.803439580518145" lon="12.118250419491472"><ele>325.5</ele><time>2026-04-02T20:49:34Z</time></trkpt><trkpt lat="45.80332833237287" lon="12.11827805105155"><ele>324.75</ele><time>2026-04-02T20:49:35Z</time></trkpt><trkpt lat="45.80321214280093" lon="12.118303707846687"><ele>324.0</ele><time>2026-04-02T20:49:36Z</time></trkpt><trkpt lat="45.80309339925115" lon="12.118327770751373"><ele>324.0</ele><time>2026-04-02T20:49:37Z</time></trkpt><trkpt lat="45.802974397663846" lon="12.118356118445206"><ele>324.0</ele><time>2026-04-02T20:49:38Z</time></trkpt><trkpt lat="45.80285836785429" lon="12.118374724208117"><ele>324.0</ele><time>2026-04-02T20:49:39Z</time></trkpt><trkpt lat="45.80272884118621" lon="12.118423456394853"><ele>324.0</ele><time>2026-04-02T20:49:40Z</time></trkpt><trkpt lat="45.802609548959154" lon="12.118515867651077"><ele>322.25</ele><time>2026-04-02T20:49:41Z</time></trkpt><trkpt lat="45.802510526735524" lon="12.118640786469491"><ele>320.5</ele><time>2026-04-02T20:49:42Z</time></trkpt><trkpt lat="45.80242313694061" lon="12.118771197513853"><ele>318.75</ele><time>2026-04-02T20:49:43Z</time></trkpt><trkpt lat="45.80232853866787" lon="12.118884258859529"><ele>317.0</ele><time>2026-04-02T20:49:44Z</time></trkpt><trkpt lat="45.80222954262154" lon="12.11899343775446"><ele>316.25</ele><time>2026-04-02T20:49:45Z</time></trkpt><trkpt lat="45.80213388814003" lon="12.119098650924279"><ele>315.5</ele><time>2026-04-02T20:49:46Z</time></trkpt><trkpt lat="45.80203640059092" lon="12.11920073563329"><ele>314.75</ele><time>2026-04-02T20:49:47Z</time></trkpt><trkpt lat="45.80193222972226" lon="12.11928187090496"><ele>314.0</ele><time>2026-04-02T20:49:48Z</time></trkpt><trkpt lat="45.80182796092862" lon="12.119358385003354"><ele>312.0</ele><time>2026-04-02T20:49:49Z</time></trkpt><trkpt lat="45.80172556442684" lon="12.119427116740095"><ele>310.0</ele><time>2026-04-02T20:49:50Z</time></trkpt><trkpt lat="45.80162227851244" lon="12.119504317930158"><ele>308.0</ele><time>2026-04-02T20:49:51Z</time></trkpt><trkpt lat="45.801514163994845" lon="12.119585268601965"><ele>306.0</ele><time>2026-04-02T20:49:52Z</time></trkpt><trkpt lat="45.80141183709232" lon="12.119661983618013"><ele>306.0</ele><time>2026-04-02T20:49:53Z</time></trkpt><trkpt lat="45.8013213591441" lon="12.119722267697247"><ele>306.0</ele><time>2026-04-02T20:49:54Z</time></trkpt><trkpt lat="45.801235637944266" lon="12.119771121495242"><ele>306.0</ele><time>2026-04-02T20:49:55Z</time></trkpt><trkpt lat="45.80115150336972" lon="12.119758007794367"><ele>306.0</ele><time>2026-04-02T20:49:56Z</time></trkpt><trkpt lat="45.801075469425015" lon="12.119750396742841"><ele>306.0</ele><time>2026-04-02T20:49:57Z</time></trkpt><trkpt lat="45.80100363984761" lon="12.119699485991742"><ele>306.0</ele><time>2026-04-02T20:49:58Z</time></trkpt><trkpt lat="45.80093503863709" lon="12.119655537085006"><ele>305.2</ele><time>2026-04-02T20:49:59Z</time></trkpt><trkpt lat="45.80084505829869" lon="12.119562981381446"><ele>304.40000000000003</ele><time>2026-04-02T20:50:00Z</time></trkpt><trkpt lat="45.80077262506105" lon="12.119477637651865"><ele>303.6</ele><time>2026-04-02T20:50:01Z</time></trkpt><trkpt lat="45.80071530326785" lon="12.119379419191677"><ele>302.8</ele><time>2026-04-02T20:50:02Z</time></trkpt><trkpt lat="45.80066661097501" lon="12.11926986067929"><ele>302.0</ele><time>2026-04-02T20:50:03Z</time></trkpt><trkpt lat="45.8006337679183" lon="12.119177208538371"><ele>300.5</ele><time>2026-04-02T20:50:04Z</time></trkpt><trkpt lat="45.80058444317597" lon="12.119033147506576"><ele>299.0</ele><time>2026-04-02T20:50:05Z</time></trkpt><trkpt lat="45.80054310142304" lon="12.118912402096125"><ele>297.5</ele><time>2026-04-02T20:50:06Z</time></trkpt><trkpt lat="45.800496718353074" lon="12.118803928068393"><ele>296.0</ele><time>2026-04-02T20:50:07Z</time></trkpt><trkpt lat="45.80042764917618" lon="12.118748796975956"><ele>294.5</ele><time>2026-04-02T20:50:08Z</time></trkpt><trkpt lat="45.80035541247929" lon="12.11872500046525"><ele>293.0</ele><time>2026-04-02T20:50:09Z</time></trkpt><trkpt lat="45.800281297638065" lon="12.118770451365588"><ele>293.0</ele><time>2026-04-02T20:50:10Z</time></trkpt><trkpt lat="45.80020273552199" lon="12.118852126467905"><ele>293.0</ele><time>2026-04-02T20:50:11Z</time></trkpt><trkpt lat="45.800143235664414" lon="12.118964554128453"><ele>293.0</ele><time>2026-04-02T20:50:12Z</time></trkpt><trkpt lat="45.80008302784721" lon="12.119062521644498"><ele>293.0</ele><time>2026-04-02T20:50:13Z</time></trkpt><trkpt lat="45.80001176094533" lon="12.119148842832994"><ele>293.0</ele><time>2026-04-02T20:50:14Z</time></trkpt><trkpt lat="45.79993160640456" lon="12.119230983659314"><ele>292.5</ele><time>2026-04-02T20:50:15Z</time></trkpt><trkpt lat="45.799842564470026" lon="12.119316118755384"><ele>292.0</ele><time>2026-04-02T20:50:16Z</time></trkpt><trkpt lat="45.79976476692296" lon="12.119395145580869"><ele>291.5</ele><time>2026-04-02T20:50:17Z</time></trkpt><trkpt lat="45.79968569017583" lon="12.119437897278642"><ele>291.0</ele><time>2026-04-02T20:50:18Z</time></trkpt><trkpt lat="45.79962487872244" lon="12.11948003268345"><ele>290.5</ele><time>2026-04-02T20:50:19Z</time></trkpt><trkpt lat="45.79956717350477" lon="12.119441432244054"><ele>290.0</ele><time>2026-04-02T20:50:20Z</time></trkpt><trkpt lat="45.79951436194777" lon="12.119375312026886"><ele>290.0</ele><time>2026-04-02T20:50:21Z</time></trkpt><trkpt lat="45.79950742731083" lon="12.119271598589512"><ele>290.0</ele><time>2026-04-02T20:50:22Z</time></trkpt><trkpt lat="45.79953319325562" lon="12.119188097409742"><ele>290.0</ele><time>2026-04-02T20:50:23Z</time></trkpt><trkpt lat="45.799564907453636" lon="12.11910621133652"><ele>290.0</ele><time>2026-04-02T20:50:24Z</time></trkpt><trkpt lat="45.79958456614708" lon="12.118980125692062"><ele>290.0</ele><time>2026-04-02T20:50:26Z</time></trkpt><trkpt lat="45.799586944534404" lon="12.118849413198745"><ele>290.0</ele><time>2026-04-02T20:50:29Z</time></trkpt><trkpt lat="45.79957917071434" lon="12.118727104960497"><ele>290.0</ele><time>2026-04-02T20:50:31Z</time></trkpt><trkpt lat="45.79951559248364" lon="12.118579432444314"><ele>290.0</ele><time>2026-04-02T20:50:32.999Z</time></trkpt><trkpt lat="45.7994008801217" lon="12.11846211297845"><ele>290.0</ele><time>2026-04-02T20:50:34.999Z</time></trkpt><trkpt lat="45.79933340238298" lon="12.118422000590355"><ele>290.0</ele><time>2026-04-02T20:50:35.999Z</time></trkpt><trkpt lat="45.799262290453846" lon="12.118378274636173"><ele>290.0</ele><time>2026-04-02T20:50:36.999Z</time></trkpt><trkpt lat="45.79918438876579" lon="12.118327522089972"><ele>289.8571428571429</ele><time>2026-04-02T20:50:37.999Z</time></trkpt><trkpt lat="45.799106459160164" lon="12.118293973384706"><ele>289.7142857142857</ele><time>2026-04-02T20:50:38.999Z</time></trkpt><trkpt lat="45.79903338566803" lon="12.118270428810122"><ele>289.57142857142856</ele><time>2026-04-02T20:50:39.999Z</time></trkpt><trkpt lat="45.798956368717114" lon="12.118264725727885"><ele>289.42857142857144</ele><time>2026-04-02T20:50:40.999Z</time></trkpt><trkpt lat="45.79889401765659" lon="12.118220269729218"><ele>289.2857142857143</ele><time>2026-04-02T20:50:41.999Z</time></trkpt><trkpt lat="45.79883222414126" lon="12.118179676429925"><ele>289.14285714285717</ele><time>2026-04-02T20:50:42.999Z</time></trkpt><trkpt lat="45.79877205574029" lon="12.118121287408208"><ele>289.0</ele><time>2026-04-02T20:50:43.999Z</time></trkpt><trkpt lat="45.798712729169246" lon="12.118045262553144"><ele>289.0</ele><time>2026-04-02T20:50:44.999Z</time></trkpt><trkpt lat="45.79865833706373" lon="12.117954989860847"><ele>289.0</ele><time>2026-04-02T20:50:45.999Z</time></trkpt><trkpt lat="45.79861252991255" lon="12.117870696815839"><ele>289.0</ele><time>2026-04-02T20:50:46.999Z</time></trkpt><trkpt lat="45.798549542640856" lon="12.11776128808471"><ele>289.0</ele><time>2026-04-02T20:50:47.999Z</time></trkpt><trkpt lat="45.79849519620551" lon="12.11766498957574"><ele>289.0</ele><time>2026-04-02T20:50:48.999Z</time></trkpt><trkpt lat="45.79843455237921" lon="12.117556373812564"><ele>289.0</ele><time>2026-04-02T20:50:49.999Z</time></trkpt><trkpt lat="45.7983735193312" lon="12.11745138792389"><ele>287.59999999999997</ele><time>2026-04-02T20:50:50.999Z</time></trkpt><trkpt lat="45.79831292828329" lon="12.117350126805214"><ele>286.2</ele><time>2026-04-02T20:50:51.999Z</time></trkpt><trkpt lat="45.79824747878445" lon="12.117251173689526"><ele>284.79999999999995</ele><time>2026-04-02T20:50:52.999Z</time></trkpt><trkpt lat="45.798158524767054" lon="12.117191478806417"><ele>283.4</ele><time>2026-04-02T20:50:53.999Z</time></trkpt><trkpt lat="45.79807934184414" lon="12.117126034023338"><ele>282.0</ele><time>2026-04-02T20:50:54.999Z</time></trkpt><trkpt lat="45.797997293860554" lon="12.117082145224478"><ele>282.0</ele><time>2026-04-02T20:50:55.999Z</time></trkpt><trkpt lat="45.79791495238854" lon="12.117047377563873"><ele>282.0</ele><time>2026-04-02T20:50:56.999Z</time></trkpt><trkpt lat="45.79782421721321" lon="12.117028806708385"><ele>282.0</ele><time>2026-04-02T20:50:57.999Z</time></trkpt><trkpt lat="45.79773298725125" lon="12.116996468138948"><ele>282.0</ele><time>2026-04-02T20:50:58.999Z</time></trkpt><trkpt lat="45.797637667556394" lon="12.116993404687365"><ele>282.0</ele><time>2026-04-02T20:50:59.999Z</time></trkpt><trkpt lat="45.79753773936293" lon="12.117006263717675"><ele>281.2</ele><time>2026-04-02T20:51:00.999Z</time></trkpt><trkpt lat="45.797434306315814" lon="12.117040685068647"><ele>280.4</ele><time>2026-04-02T20:51:01.999Z</time></trkpt><trkpt lat="45.79733012511801" lon="12.117091173710662"><ele>279.6</ele><time>2026-04-02T20:51:02.999Z</time></trkpt><trkpt lat="45.797228276239586" lon="12.11714037862828"><ele>278.8</ele><time>2026-04-02T20:51:03.999Z</time></trkpt><trkpt lat="45.797122115387694" lon="12.117185850680748"><ele>278.0</ele><time>2026-04-02T20:51:04.999Z</time></trkpt><trkpt lat="45.79702195588355" lon="12.117226525482334"><ele>278.0</ele><time>2026-04-02T20:51:06Z</time></trkpt><trkpt lat="45.796923344314976" lon="12.11724969353395"><ele>278.0</ele><time>2026-04-02T20:51:07Z</time></trkpt><trkpt lat="45.796837559287574" lon="12.117236448982984"><ele>278.0</ele><time>2026-04-02T20:51:08Z</time></trkpt><trkpt lat="45.7967376414548" lon="12.117222001577943"><ele>278.0</ele><time>2026-04-02T20:51:09Z</time></trkpt><trkpt lat="45.79664447708324" lon="12.117229778115842"><ele>278.0</ele><time>2026-04-02T20:51:10Z</time></trkpt><trkpt lat="45.796562978019956" lon="12.117310395389987"><ele>274.6</ele><time>2026-04-02T20:51:11Z</time></trkpt><trkpt lat="45.796501129600216" lon="12.117407227605364"><ele>271.20000000000005</ele><time>2026-04-02T20:51:12Z</time></trkpt><trkpt lat="45.79645371875489" lon="12.117529622097912"><ele>267.8</ele><time>2026-04-02T20:51:13Z</time></trkpt><trkpt lat="45.79640981231847" lon="12.117647818719973"><ele>264.40000000000003</ele><time>2026-04-02T20:51:14Z</time></trkpt><trkpt lat="45.79636421315513" lon="12.117766185039132"><ele>261.0</ele><time>2026-04-02T20:51:15Z</time></trkpt><trkpt lat="45.79629495293687" lon="12.11784639396405"><ele>261.0</ele><time>2026-04-02T20:51:16Z</time></trkpt><trkpt lat="45.79621678923647" lon="12.117895064621658"><ele>261.0</ele><time>2026-04-02T20:51:17Z</time></trkpt><trkpt lat="45.79614539881092" lon="12.11794370528436"><ele>261.0</ele><time>2026-04-02T20:51:18Z</time></trkpt><trkpt lat="45.796068072250144" lon="12.117989668497962"><ele>261.0</ele><time>2026-04-02T20:51:19Z</time></trkpt><trkpt lat="45.795983221992564" lon="12.11803833501031"><ele>261.0</ele><time>2026-04-02T20:51:20Z</time></trkpt><trkpt lat="45.795893816462524" lon="12.11809334074457"><ele>261.0</ele><time>2026-04-02T20:51:21Z</time></trkpt><trkpt lat="45.79580565381179" lon="12.118152869123819"><ele>261.2</ele><time>2026-04-02T20:51:22Z</time></trkpt><trkpt lat="45.79571703761056" lon="12.118225145755918"><ele>261.40000000000003</ele><time>2026-04-02T20:51:23Z</time></trkpt><trkpt lat="45.79563101892712" lon="12.118278625901356"><ele>261.6</ele><time>2026-04-02T20:51:24Z</time></trkpt><trkpt lat="45.7955445734588" lon="12.118333006359261"><ele>261.8</ele><time>2026-04-02T20:51:25Z</time></trkpt><trkpt lat="45.7954594725302" lon="12.118385800020938"><ele>262.0</ele><time>2026-04-02T20:51:26Z</time></trkpt><trkpt lat="45.7953697335888" lon="12.11841929801293"><ele>261.2</ele><time>2026-04-02T20:51:27Z</time></trkpt><trkpt lat="45.79528205043047" lon="12.118455750442758"><ele>260.4</ele><time>2026-04-02T20:51:28Z</time></trkpt><trkpt lat="45.79519316056015" lon="12.118487788911626"><ele>259.6</ele><time>2026-04-02T20:51:29Z</time></trkpt><trkpt lat="45.79510355648696" lon="12.118515064916075"><ele>258.8</ele><time>2026-04-02T20:51:30Z</time></trkpt><trkpt lat="45.79501405505493" lon="12.118539161288439"><ele>258.0</ele><time>2026-04-02T20:51:31Z</time></trkpt><trkpt lat="45.79492470969417" lon="12.118560046288938"><ele>257.0</ele><time>2026-04-02T20:51:32Z</time></trkpt><trkpt lat="45.79482857214351" lon="12.118581539729345"><ele>256.0</ele><time>2026-04-02T20:51:33Z</time></trkpt><trkpt lat="45.79473735715873" lon="12.118601709437689"><ele>255.0</ele><time>2026-04-02T20:51:34Z</time></trkpt><trkpt lat="45.79464077616222" lon="12.118616826050095"><ele>254.0</ele><time>2026-04-02T20:51:35Z</time></trkpt><trkpt lat="45.79457208639198" lon="12.118619856884306"><ele>253.0</ele><time>2026-04-02T20:51:36Z</time></trkpt><trkpt lat="45.79448119439663" lon="12.118584521422788"><ele>253.0</ele><time>2026-04-02T20:51:38Z</time></trkpt><trkpt lat="45.7944379425149" lon="12.118492896523922"><ele>253.0</ele><time>2026-04-02T20:51:40Z</time></trkpt><trkpt lat="45.794468043914506" lon="12.118390704350468"><ele>253.0</ele><time>2026-04-02T20:51:42Z</time></trkpt><trkpt lat="45.79454562499757" lon="12.11823696649375"><ele>253.0</ele><time>2026-04-02T20:51:44Z</time></trkpt><trkpt lat="45.794589568606426" lon="12.118133921766564"><ele>253.0</ele><time>2026-04-02T20:51:45Z</time></trkpt><trkpt lat="45.794644004697474" lon="12.118029628205507"><ele>253.60000000000002</ele><time>2026-04-02T20:51:46Z</time></trkpt><trkpt lat="45.79469701426941" lon="12.117922828840564"><ele>254.20000000000002</ele><time>2026-04-02T20:51:47Z</time></trkpt><trkpt lat="45.79474116537473" lon="12.117807305628526"><ele>254.8</ele><time>2026-04-02T20:51:48Z</time></trkpt><trkpt lat="45.794769560473256" lon="12.11769189057165"><ele>255.4</ele><time>2026-04-02T20:51:49Z</time></trkpt><trkpt lat="45.794759251036915" lon="12.11757493527313"><ele>256.0</ele><time>2026-04-02T20:51:50Z</time></trkpt><trkpt lat="45.79470908884646" lon="12.11743025108597"><ele>255.99999999999997</ele><time>2026-04-02T20:51:52Z</time></trkpt><trkpt lat="45.79464388475517" lon="12.117396046901638"><ele>256.0</ele><time>2026-04-02T20:51:53Z</time></trkpt><trkpt lat="45.79456965873011" lon="12.117406074879117"><ele>256.0</ele><time>2026-04-02T20:51:54Z</time></trkpt><trkpt lat="45.79449132626944" lon="12.117466275848319"><ele>256.0</ele><time>2026-04-02T20:51:55Z</time></trkpt><trkpt lat="45.79441577424989" lon="12.117528734277874"><ele>255.99999999999997</ele><time>2026-04-02T20:51:56Z</time></trkpt><trkpt lat="45.794340522427305" lon="12.117582126715943"><ele>256.0</ele><time>2026-04-02T20:51:57Z</time></trkpt><trkpt lat="45.794264827087446" lon="12.11762752971556"><ele>254.0</ele><time>2026-04-02T20:51:58Z</time></trkpt><trkpt lat="45.79418296391185" lon="12.117636734528922"><ele>252.00000000000003</ele><time>2026-04-02T20:51:59Z</time></trkpt><trkpt lat="45.794093162483456" lon="12.117673789418017"><ele>250.00000000000003</ele><time>2026-04-02T20:52:00Z</time></trkpt><trkpt lat="45.793996355430714" lon="12.117678423062596"><ele>248.0</ele><time>2026-04-02T20:52:01Z</time></trkpt><trkpt lat="45.793906747866494" lon="12.117669470046765"><ele>246.0</ele><time>2026-04-02T20:52:02Z</time></trkpt><trkpt lat="45.79381797057851" lon="12.11766271399843"><ele>246.0</ele><time>2026-04-02T20:52:03Z</time></trkpt><trkpt lat="45.79372972962087" lon="12.117644731188683"><ele>246.00000000000003</ele><time>2026-04-02T20:52:04Z</time></trkpt><trkpt lat="45.793636375612294" lon="12.117626185992217"><ele>246.00000000000003</ele><time>2026-04-02T20:52:05Z</time></trkpt><trkpt lat="45.793539710332766" lon="12.117631453192885"><ele>246.0</ele><time>2026-04-02T20:52:06Z</time></trkpt><trkpt lat="45.79345311691113" lon="12.117608904111185"><ele>246.0</ele><time>2026-04-02T20:52:07Z</time></trkpt><trkpt lat="45.79336504020053" lon="12.117587498830142"><ele>246.33333333333334</ele><time>2026-04-02T20:52:08Z</time></trkpt><trkpt lat="45.79329849862827" lon="12.11757165235048"><ele>246.66666666666669</ele><time>2026-04-02T20:52:09Z</time></trkpt><trkpt lat="45.79322935262966" lon="12.117474259922046"><ele>247.0</ele><time>2026-04-02T20:52:11Z</time></trkpt><trkpt lat="45.793249699585" lon="12.117374412914314"><ele>247.33333333333334</ele><time>2026-04-02T20:52:12Z</time></trkpt><trkpt lat="45.793258572841076" lon="12.117280843457008"><ele>247.66666666666669</ele><time>2026-04-02T20:52:13Z</time></trkpt><trkpt lat="45.793242589195756" lon="12.1171753497784"><ele>248.0</ele><time>2026-04-02T20:52:14Z</time></trkpt><trkpt lat="45.79319120525062" lon="12.117088997705297"><ele>248.00000000000003</ele><time>2026-04-02T20:52:15Z</time></trkpt><trkpt lat="45.79313348301247" lon="12.117042356289106"><ele>248.0</ele><time>2026-04-02T20:52:16Z</time></trkpt><trkpt lat="45.79305543429399" lon="12.117048266903451"><ele>248.0</ele><time>2026-04-02T20:52:17Z</time></trkpt><trkpt lat="45.79297112271162" lon="12.117078662937494"><ele>248.0</ele><time>2026-04-02T20:52:18Z</time></trkpt><trkpt lat="45.79288616937586" lon="12.11712223820287"><ele>248.00000000000003</ele><time>2026-04-02T20:52:19Z</time></trkpt><trkpt lat="45.79280504642489" lon="12.117156998750561"><ele>248.0</ele><time>2026-04-02T20:52:20Z</time></trkpt><trkpt lat="45.792721284242404" lon="12.117171390160777"><ele>246.66666666666669</ele><time>2026-04-02T20:52:21Z</time></trkpt><trkpt lat="45.79264109442466" lon="12.11716510677021"><ele>245.33333333333334</ele><time>2026-04-02T20:52:22Z</time></trkpt><trkpt lat="45.79256427684222" lon="12.117150692457038"><ele>244.0</ele><time>2026-04-02T20:52:23Z</time></trkpt><trkpt lat="45.79248780334742" lon="12.117115957736345"><ele>242.66666666666669</ele><time>2026-04-02T20:52:24Z</time></trkpt><trkpt lat="45.792426805565995" lon="12.117036668305746"><ele>241.33333333333334</ele><time>2026-04-02T20:52:25Z</time></trkpt><trkpt lat="45.792357828986624" lon="12.116960934433282"><ele>240.0</ele><time>2026-04-02T20:52:26Z</time></trkpt><trkpt lat="45.792285874890496" lon="12.116911740633656"><ele>240.0</ele><time>2026-04-02T20:52:27Z</time></trkpt><trkpt lat="45.79222261430812" lon="12.116902773658053"><ele>240.0</ele><time>2026-04-02T20:52:28Z</time></trkpt><trkpt lat="45.79211174240108" lon="12.11689664000656"><ele>240.0</ele><time>2026-04-02T20:52:30Z</time></trkpt><trkpt lat="45.79204266817834" lon="12.116919703738542"><ele>240.0</ele><time>2026-04-02T20:52:31Z</time></trkpt><trkpt lat="45.791974650091895" lon="12.116948317030001"><ele>240.0</ele><time>2026-04-02T20:52:32Z</time></trkpt><trkpt lat="45.79191671238672" lon="12.117017958664587"><ele>240.0</ele><time>2026-04-02T20:52:33Z</time></trkpt><trkpt lat="45.79186669122623" lon="12.117092521305056"><ele>237.6</ele><time>2026-04-02T20:52:34Z</time></trkpt><trkpt lat="45.79180113270157" lon="12.117142175721074"><ele>235.2</ele><time>2026-04-02T20:52:35Z</time></trkpt><trkpt lat="45.791689647456906" lon="12.117164833909461"><ele>232.8</ele><time>2026-04-02T20:52:37Z</time></trkpt><trkpt lat="45.79160827398383" lon="12.117168894888176"><ele>230.4</ele><time>2026-04-02T20:52:39Z</time></trkpt><trkpt lat="45.79152139159847" lon="12.117193681013061"><ele>228.0</ele><time>2026-04-02T20:52:41Z</time></trkpt><trkpt lat="45.791406444854076" lon="12.11722135322212"><ele>228.0</ele><time>2026-04-02T20:52:43Z</time></trkpt><trkpt lat="45.79128854236657" lon="12.117253716265218"><ele>228.0</ele><time>2026-04-02T20:52:45Z</time></trkpt><trkpt lat="45.79117173034434" lon="12.117285635577693"><ele>228.0</ele><time>2026-04-02T20:52:47Z</time></trkpt><trkpt lat="45.79104710932275" lon="12.117285178217088"><ele>228.0</ele><time>2026-04-02T20:52:49Z</time></trkpt><trkpt lat="45.79091889883521" lon="12.117293789385052"><ele>225.4</ele><time>2026-04-02T20:52:51Z</time></trkpt><trkpt lat="45.790799638863625" lon="12.117320896407929"><ele>222.8</ele><time>2026-04-02T20:52:53Z</time></trkpt><trkpt lat="45.79067531993092" lon="12.11738015442274"><ele>220.2</ele><time>2026-04-02T20:52:55Z</time></trkpt><trkpt lat="45.790612403124044" lon="12.117442485539273"><ele>217.6</ele><time>2026-04-02T20:52:56Z</time></trkpt><trkpt lat="45.79053858631014" lon="12.117474554101971"><ele>215.0</ele><time>2026-04-02T20:52:57Z</time></trkpt><trkpt lat="45.7904669445564" lon="12.11749309868958"><ele>214.00000000000003</ele><time>2026-04-02T20:52:58Z</time></trkpt><trkpt lat="45.79039303473037" lon="12.117521469263943"><ele>213.0</ele><time>2026-04-02T20:52:58.999Z</time></trkpt><trkpt lat="45.790319280805925" lon="12.117525502270475"><ele>212.0</ele><time>2026-04-02T20:52:59.999Z</time></trkpt><trkpt lat="45.790244487913064" lon="12.117501530210115"><ele>211.0</ele><time>2026-04-02T20:53:00.999Z</time></trkpt><trkpt lat="45.79018881190526" lon="12.117434930131944"><ele>210.00000000000003</ele><time>2026-04-02T20:53:01.999Z</time></trkpt><trkpt lat="45.7901315252571" lon="12.117354754584143"><ele>209.0</ele><time>2026-04-02T20:53:02.999Z</time></trkpt><trkpt lat="45.790059474504325" lon="12.117284520059245"><ele>208.16666666666669</ele><time>2026-04-02T20:53:03.999Z</time></trkpt><trkpt lat="45.78998838708594" lon="12.117240899097657"><ele>207.33333333333334</ele><time>2026-04-02T20:53:04.999Z</time></trkpt><trkpt lat="45.7898980376087" lon="12.11722963835117"><ele>206.5</ele><time>2026-04-02T20:53:06.999Z</time></trkpt><trkpt lat="45.78979250437637" lon="12.117252664897228"><ele>205.66666666666669</ele><time>2026-04-02T20:53:08.999Z</time></trkpt><trkpt lat="45.78974532979458" lon="12.117315125364508"><ele>204.83333333333334</ele><time>2026-04-02T20:53:09.999Z</time></trkpt><trkpt lat="45.789693252741976" lon="12.117368999962196"><ele>204.0</ele><time>2026-04-02T20:53:11Z</time></trkpt><trkpt lat="45.78962656595079" lon="12.117387838508693"><ele>203.16666666666666</ele><time>2026-04-02T20:53:12.001Z</time></trkpt><trkpt lat="45.78956379305406" lon="12.117416644504667"><ele>202.33333333333331</ele><time>2026-04-02T20:53:13Z</time></trkpt><trkpt lat="45.78946266879795" lon="12.117440738528304"><ele>201.5</ele><time>2026-04-02T20:53:15.001Z</time></trkpt><trkpt lat="45.78934086503894" lon="12.117393064606778"><ele>200.66666666666666</ele><time>2026-04-02T20:53:17.001Z</time></trkpt><trkpt lat="45.789273938445255" lon="12.11735826176721"><ele>199.83333333333331</ele><time>2026-04-02T20:53:18.001Z</time></trkpt><trkpt lat="45.78921259456971" lon="12.11729894423458"><ele>199.0</ele><time>2026-04-02T20:53:19.001Z</time></trkpt><trkpt lat="45.78913885224455" lon="12.117290251353607"><ele>196.83333333333331</ele><time>2026-04-02T20:53:20.001Z</time></trkpt><trkpt lat="45.789070190448285" lon="12.117255314286757"><ele>194.66666666666666</ele><time>2026-04-02T20:53:21.001Z</time></trkpt><trkpt lat="45.78899457135895" lon="12.11726544910983"><ele>192.5</ele><time>2026-04-02T20:53:22.001Z</time></trkpt><trkpt lat="45.788921044476595" lon="12.117298351760143"><ele>190.33333333333331</ele><time>2026-04-02T20:53:23.001Z</time></trkpt><trkpt lat="45.78885482161157" lon="12.117343304581246"><ele>188.16666666666666</ele><time>2026-04-02T20:53:24.001Z</time></trkpt><trkpt lat="45.78879504410271" lon="12.117373196418788"><ele>186.0</ele><time>2026-04-02T20:53:25.001Z</time></trkpt><trkpt lat="45.788696070639084" lon="12.117368614967402"><ele>186.0</ele><time>2026-04-02T20:53:27.001Z</time></trkpt><trkpt lat="45.788631519737216" lon="12.117346198014362"><ele>186.0</ele><time>2026-04-02T20:53:28.001Z</time></trkpt><trkpt lat="45.788567307766996" lon="12.117337734788201"><ele>186.0</ele><time>2026-04-02T20:53:29.001Z</time></trkpt><trkpt lat="45.78849375214151" lon="12.117323750752599"><ele>186.0</ele><time>2026-04-02T20:53:30.001Z</time></trkpt><trkpt lat="45.78840229366813" lon="12.117326714840123"><ele>186.0</ele><time>2026-04-02T20:53:31Z</time></trkpt><trkpt lat="45.78831258693955" lon="12.117390186749967"><ele>186.0</ele><time>2026-04-02T20:53:32Z</time></trkpt><trkpt lat="45.78823549696774" lon="12.117428371420118"><ele>182.25</ele><time>2026-04-02T20:53:33Z</time></trkpt><trkpt lat="45.78808627578346" lon="12.117536831823998"><ele>178.5</ele><time>2026-04-02T20:53:35Z</time></trkpt><trkpt lat="45.7880000832323" lon="12.117594103010909"><ele>174.75</ele><time>2026-04-02T20:53:36Z</time></trkpt><trkpt lat="45.78790979753099" lon="12.117656780217041"><ele>171.0</ele><time>2026-04-02T20:53:36.999Z</time></trkpt><trkpt lat="45.7878109384709" lon="12.117745937111344"><ele>171.0</ele><time>2026-04-02T20:53:37.999Z</time></trkpt><trkpt lat="45.78771984669679" lon="12.11779067430867"><ele>171.0</ele><time>2026-04-02T20:53:38.999Z</time></trkpt><trkpt lat="45.7876321910984" lon="12.11785479467076"><ele>171.0</ele><time>2026-04-02T20:53:39.999Z</time></trkpt><trkpt lat="45.78754569779731" lon="12.11788002439355"><ele>171.0</ele><time>2026-04-02T20:53:40.999Z</time></trkpt><trkpt lat="45.78746579274664" lon="12.117906687179124"><ele>171.0</ele><time>2026-04-02T20:53:41.999Z</time></trkpt><trkpt lat="45.78738935852674" lon="12.11792121417873"><ele>171.0</ele><time>2026-04-02T20:53:42.999Z</time></trkpt><trkpt lat="45.78730930921584" lon="12.117940338246456"><ele>168.66666666666666</ele><time>2026-04-02T20:53:43.999Z</time></trkpt><trkpt lat="45.78722872160109" lon="12.117927042817774"><ele>166.33333333333334</ele><time>2026-04-02T20:53:44.999Z</time></trkpt><trkpt lat="45.78714549716895" lon="12.11791965252107"><ele>164.0</ele><time>2026-04-02T20:53:45.999Z</time></trkpt><trkpt lat="45.78707709201441" lon="12.117952631930024"><ele>161.66666666666669</ele><time>2026-04-02T20:53:46.999Z</time></trkpt><trkpt lat="45.787030992823006" lon="12.118030027992896"><ele>159.33333333333334</ele><time>2026-04-02T20:53:47.999Z</time></trkpt><trkpt lat="45.78707613255661" lon="12.118160138910866"><ele>157.0</ele><time>2026-04-02T20:53:48.999Z</time></trkpt><trkpt lat="45.787054509953634" lon="12.11826228869708"><ele>157.0</ele><time>2026-04-02T20:53:49.999Z</time></trkpt><trkpt lat="45.787046165685794" lon="12.118366158592254"><ele>157.0</ele><time>2026-04-02T20:53:50.999Z</time></trkpt><trkpt lat="45.786999516695666" lon="12.118429229064452"><ele>157.0</ele><time>2026-04-02T20:53:51.999Z</time></trkpt><trkpt lat="45.78692310483059" lon="12.118468509444375"><ele>157.0</ele><time>2026-04-02T20:53:52.999Z</time></trkpt><trkpt lat="45.78684899081034" lon="12.118513715226547"><ele>157.0</ele><time>2026-04-02T20:53:53.999Z</time></trkpt><trkpt lat="45.78679266624532" lon="12.118589792639437"><ele>157.0</ele><time>2026-04-02T20:53:54.999Z</time></trkpt><trkpt lat="45.786765722759114" lon="12.118697634114875"><ele>154.0</ele><time>2026-04-02T20:53:55.999Z</time></trkpt><trkpt lat="45.78676437337705" lon="12.118824578336207"><ele>151.0</ele><time>2026-04-02T20:53:56.999Z</time></trkpt><trkpt lat="45.78676144679713" lon="12.118946265688058"><ele>148.0</ele><time>2026-04-02T20:53:57.999Z</time></trkpt><trkpt lat="45.78675475752771" lon="12.119040646045004"><ele>145.0</ele><time>2026-04-02T20:53:58.999Z</time></trkpt><trkpt lat="45.786666839461475" lon="12.119121265820302"><ele>142.0</ele><time>2026-04-02T20:54:00.999Z</time></trkpt><trkpt lat="45.77863643557044" lon="12.12148192343269"><ele>96.0</ele><time>2026-04-02T20:55:57.999Z</time></trkpt><trkpt lat="45.778594348315494" lon="12.121372268566862"><ele>96.0</ele><time>2026-04-02T20:55:58.999Z</time></trkpt></trkseg></trk></gpx>